[[{"header":{"parameterUnit":"m.s-1","parameterCategory":1,"la1":30.6,"la2":28.766,"lo1":-90.7593,"lo2":-88.6598,"dy":0.0162,"dx":0.0183,"nx":116,"ny":114,"refTime":"2023-03-09T06:00:00:Z","depth":0,"parameterNumber":2,"parameterNumberName":"U-component_of_WINDS"},"data":[0.0,0.0,0.0,0.0,0.0,0.0,0.0,0.0,0.0,0.0,0.0,0.0,0.0,0.0,0.0,0.0,0.0,0.0,0.0,0.0,0.0,0.0,0.0,0.0,0.0,0.0,0.0,0.0,0.0,0.0,0.0,0.0,0.0,0.0,0.0,0.0,0.0,0.0,0.0,0.0,0.0,0.0,0.0,0.0,0.0,0.0,0.0,0.0,0.0,0.0,0.0,0.0,0.0,0.0,0.0,0.0,0.0,0.0,0.0,0.0,0.0,0.0,0.0,0.0,0.0,0.0,0.0,0.0,0.0,0.0,0.0,0.0,0.0,0.0,0.0,0.0,0.0,0.0,0.0,0.0,0.0,0.0,0.0,0.0,0.0,0.0,0.0,0.0,0.0,0.0,0.0,0.0,0.0,0.0,0.0,0.0,0.0,0.0,0.0,0.0,0.0,0.0,0.0,0.0,0.0,0.0,0.0,0.0,0.0,0.0,0.0,0.0,0.0,0.0,0.0,0.0,0.0,0.0,0.0,0.0,0.0,0.0,0.0,0.0,0.0,0.0,0.0,0.0,0.0,0.0,0.0,0.0,0.0,0.0,0.0,0.0,0.0,0.0,0.0,0.0,0.0,0.0,0.0,0.0,0.0,0.0,0.0,0.0,0.0,0.0,0.0,0.0,0.0,0.0,0.0,0.0,0.0,0.0,0.0,0.0,0.0,0.0,0.0,0.0,0.0,0.0,0.0,0.0,0.0,0.0,0.0,0.0,0.0,0.0,0.0,0.0,0.0,0.0,0.0,0.0,0.0,0.0,0.0,0.0,0.0,0.0,0.0,0.0,0.0,0.0,0.0,0.0,0.0,0.0,0.0,0.0,0.0,0.0,0.0,0.0,0.0,0.0,0.0,0.0,0.0,0.0,0.0,0.0,0.0,0.0,0.0,0.0,0.0,0.0,0.0,0.0,0.0,0.0,0.0,0.0,0.0,0.0,0.0,0.0,0.0,0.0,0.0,0.0,0.0,0.0,0.0,0.0,0.0,0.0,0.0,0.0,0.0,0.0,0.0,0.0,0.0,0.0,0.0,0.0,0.0,0.0,0.0,0.0,0.0,0.0,0.0,0.0,0.0,0.0,0.0,0.0,0.0,0.0,0.0,0.0,0.0,0.0,0.0,0.0,0.0,0.0,0.0,0.0,0.0,0.0,0.0,0.0,0.0,0.0,0.0,0.0,0.0,0.0,0.0,0.0,0.0,0.0,0.0,0.0,0.0,0.0,0.0,0.0,0.0,0.0,0.0,0.0,0.0,0.0,0.0,0.0,0.0,0.0,0.0,0.0,0.0,0.0,0.0,0.0,0.0,0.0,0.0,0.0,0.0,0.0,0.0,0.0,0.0,0.0,0.0,0.0,0.0,0.0,0.0,0.0,0.0,0.0,0.0,0.0,0.0,0.0,0.0,0.0,0.0,0.0,0.0,0.0,0.0,0.0,0.0,0.0,0.0,0.0,0.0,0.0,0.0,0.0,0.0,0.0,0.0,0.0,0.0,0.0,0.0,0.0,0.0,0.0,0.0,0.0,0.0,0.0,0.0,0.0,0.0,0.0,0.0,0.0,0.0,0.0,0.0,0.0,0.0,0.0,0.0,0.0,0.0,0.0,0.0,0.0,0.0,0.0,0.0,0.0,0.0,0.0,0.0,0.0,0.0,0.0,0.0,0.0,0.0,0.0,0.0,0.0,0.0,0.0,0.0,0.0,0.0,0.0,0.0,0.0,0.0,0.0,0.0,0.0,0.0,0.0,0.0,0.0,0.0,0.0,0.0,0.0,0.0,0.0,0.0,0.0,0.0,0.0,0.0,0.0,0.0,0.0,0.0,0.0,0.0,0.0,0.0,0.0,0.0,0.0,0.0,0.0,0.0,0.0,0.0,0.0,0.0,0.0,0.0,0.0,0.0,0.0,0.0,0.0,0.0,0.0,0.0,0.0,0.0,0.0,0.0,0.0,0.0,0.0,0.0,0.0,0.0,0.0,0.0,0.0,0.0,0.0,0.0,0.0,0.0,0.0,0.0,0.0,0.0,0.0,0.0,0.0,0.0,0.0,0.0,0.0,0.0,0.0,0.0,0.0,0.0,0.0,0.0,0.0,0.0,0.0,0.0,0.0,0.0,0.0,0.0,0.0,0.0,0.0,0.0,0.0,0.0,0.0,0.0,0.0,0.0,0.0,0.0,0.0,0.0,0.0,0.0,0.0,0.0,0.0,0.0,0.0,0.0,0.0,0.0,0.0,0.0,0.0,0.0,0.0,0.0,0.0,0.0,0.0,0.0,0.0,0.0,0.0,0.0,0.0,0.0,0.0,0.0,0.0,0.0,0.0,0.0,0.0,0.0,0.0,0.0,0.0,0.0,0.0,0.0,0.0,0.0,0.0,0.0,0.0,0.0,0.0,0.0,0.0,0.0,0.0,0.0,0.0,0.0,0.0,0.0,0.0,0.0,0.0,0.0,0.0,0.0,0.0,0.0,0.0,0.0,0.0,0.0,0.0,0.0,0.0,0.0,0.0,0.0,0.0,0.0,0.0,0.0,0.0,0.0,0.0,0.0,0.0,0.0,0.0,0.0,0.0,0.0,0.0,0.0,0.0,0.0,0.0,0.0,0.0,0.0,0.0,0.0,0.0,0.0,0.0,0.0,0.0,0.0,0.0,0.0,0.0,0.0,0.0,0.0,0.0,0.0,0.0,0.0,0.0,0.0,0.0,0.0,0.0,0.0,0.0,0.0,0.0,0.0,0.0,0.0,0.0,0.0,0.0,0.0,0.0,0.0,0.0,0.0,0.0,0.0,0.0,0.0,0.0,0.0,0.0,0.0,0.0,0.0,0.0,0.0,0.0,0.0,0.0,0.0,0.0,0.0,0.0,0.0,0.0,0.0,0.0,0.0,0.0,0.0,0.0,0.0,0.0,0.0,0.0,0.0,0.0,0.0,0.0,0.0,0.0,0.0,0.0,0.0,0.0,0.0,0.0,0.0,0.0,0.0,0.0,0.0,0.0,0.0,0.0,0.0,0.0,0.0,0.0,0.0,0.0,0.0,0.0,0.0,0.0,0.0,0.0,0.0,0.0,0.0,0.0,0.0,0.0,0.0,0.0,0.0,0.0,0.0,0.0,0.0,0.0,0.0,0.0,0.0,0.0,0.0,0.0,0.0,0.0,0.0,0.0,0.0,0.0,0.0,0.0,0.0,0.0,0.0,0.0,0.0,0.0,0.0,0.0,0.0,0.0,0.0,0.0,0.0,0.0,0.0,0.0,0.0,0.0,0.0,0.0,0.0,0.0,0.0,0.0,0.0,0.0,0.0,0.0,0.0,0.0,0.0,0.0,0.0,0.0,0.0,0.0,0.0,0.0,0.0,0.0,0.0,0.0,0.0,0.0,0.0,0.0,0.0,0.0,0.0,0.0,0.0,0.0,0.0,0.0,0.0,0.0,0.0,0.0,0.0,0.0,0.0,0.0,0.0,0.0,0.0,0.0,0.0,0.0,0.0,0.0,0.0,0.0,0.0,0.0,0.0,0.0,0.0,0.0,0.0,0.0,0.0,0.0,0.0,0.0,0.0,0.0,0.0,0.0,0.0,0.0,0.0,0.0,0.0,0.0,0.0,0.0,0.0,0.0,0.0,0.0,0.0,0.0,0.0,0.0,0.0,0.0,0.0,0.0,0.0,0.0,0.0,0.0,0.0,0.0,0.0,0.0,0.0,0.0,0.0,0.0,0.0,0.0,0.0,0.0,0.0,0.0,0.0,0.0,0.0,0.0,0.0,0.0,0.0,0.0,0.0,0.0,0.0,0.0,0.0,0.0,0.0,0.0,0.0,0.0,0.0,0.0,0.0,0.0,0.0,0.0,0.0,0.0,0.0,0.0,0.0,0.0,0.0,0.0,0.0,0.0,0.0,0.0,0.0,0.0,0.0,0.0,0.0,0.0,0.0,0.0,0.0,0.0,0.0,0.0,0.0,0.0,0.0,0.0,0.0,0.0,0.0,0.0,0.0,0.0,0.0,0.0,0.0,0.0,0.0,0.0,0.0,0.0,0.0,0.0,0.0,0.0,0.0,0.0,0.0,0.0,0.0,0.0,0.0,0.0,0.0,0.0,0.0,0.0,0.0,0.0,0.0,0.0,0.0,0.0,0.0,0.0,0.0,0.0,0.0,0.0,0.0,0.0,0.0,0.0,0.0,0.0,0.0,0.0,0.0,0.0,0.0,0.0,0.0,0.0,0.0,0.0,0.0,0.0,0.0,0.0,0.0,0.0,0.0,0.0,0.0,0.0,0.0,0.0,0.0,0.0,0.0,0.0,0.0,0.0,0.0,0.0,0.0,0.0,0.0,0.0,0.0,0.0,0.0,0.0,0.0,0.0,0.0,0.0,0.0,0.0,0.0,0.0,0.0,0.0,0.0,0.0,0.0,0.0,0.0,0.0,0.0,0.0,0.0,0.0,0.0,0.0,0.0,0.0,0.0,0.0,0.0,0.0,0.0,0.0,0.0,0.0,0.0,0.0,0.0,0.0,0.0,0.0,0.0,0.0,0.0,0.0,0.0,0.0,0.0,0.0,0.0,0.0,0.0,0.0,0.0,0.0,0.0,0.0,0.0,0.0,0.0,0.0,0.0,0.0,0.0,0.0,0.0,0.0,0.0,0.0,0.0,0.0,0.0,0.0,0.0,0.0,0.0,0.0,0.0,0.0,0.0,0.0,0.0,0.0,0.0,0.0,0.0,0.0,0.0,0.0,0.0,0.0,0.0,0.0,0.0,0.0,0.0,0.0,0.0,0.0,0.0,0.0,0.0,0.0,0.0,0.0,0.0,0.0,0.0,0.0,0.0,0.0,0.0,0.0,0.0,0.0,0.0,0.0,0.0,0.0,0.0,0.0,0.0,0.0,0.0,0.0,0.0,0.0,0.0,0.0,0.0,0.0,0.0,0.0,0.0,0.0,0.0,0.0,0.0,0.0,0.0,0.0,0.0,0.0,0.0,0.0,0.0,0.0,0.0,0.0,0.0,0.0,0.0,0.0,0.0,0.0,0.0,0.0,0.0,0.0,0.0,0.0,0.0,0.0,0.0,0.0,0.0,0.0,0.0,0.0,0.0,0.0,0.0,0.0,0.0,0.0,0.0,0.0,0.0,0.0,0.0,0.0,0.0,0.0,0.0,0.0,0.0,0.0,0.0,0.0,0.0,0.0,0.0,0.0,0.0,0.0,0.0,0.0,0.0,0.0,0.0,0.0,0.0,0.0,0.0,0.0,0.0,0.0,0.0,0.0,0.0,0.0,0.0,0.0,0.0,0.0,0.0,0.0,0.0,0.0,0.0,0.0,0.0,0.0,0.0,0.0,0.0,0.0,0.0,0.0,0.0,0.0,0.0,0.0,0.0,0.0,0.0,0.0,0.0,0.0,0.0,0.0,0.0,0.0,0.0,0.0,0.0,0.0,0.0,0.0,0.0,0.0,0.0,0.0,0.0,0.0,0.0,0.0,0.0,0.0,0.0,0.0,0.0,0.0,0.0,0.0,0.0,0.0,0.0,0.0,0.0,0.0,0.0,0.0,0.0,0.0,0.0,0.0,0.0,0.0,0.0,0.0,0.0,0.0,0.0,0.0,0.0,0.0,0.0,0.0,0.0,0.0,0.0,0.0,0.0,0.0,0.0,0.0,0.0,0.0,0.0,0.0,0.0,0.0,0.0,0.0,0.0,0.0,0.0,0.0,0.0,0.0,0.0,0.0,0.0,0.0,0.0,0.0,0.0,0.0,0.0,0.0,0.0,0.0,0.0,0.0,0.0,0.0,0.0,0.0,0.0,0.0,0.0,0.0,0.0,0.0,0.0,0.0,0.0,0.0,0.0,0.0,0.0,0.0,0.0,0.0,0.0,0.0,0.0,0.0,0.0,0.0,0.0,0.0,0.0,0.0,0.0,0.0,0.0,0.0,0.0,0.0,0.0,0.0,0.0,0.0,0.0,0.0,0.0,0.0,0.0,0.0,0.0,0.0,0.0,0.0,0.0,0.0,0.0,0.0,0.0,0.0,0.0,0.0,0.0,0.0,0.0,0.0,0.0,0.0,0.0,0.0,-5.4818,0.0,0.0,0.0,0.0,0.0,0.0,0.0,0.0,0.0,0.0,0.0,0.0,0.0,0.0,0.0,0.0,0.0,0.0,0.0,0.0,0.0,0.0,0.0,0.0,0.0,0.0,0.0,0.0,0.0,0.0,0.0,0.0,0.0,0.0,0.0,0.0,0.0,0.0,0.0,-5.2972,-5.401,-5.5665,-5.5665,-5.5434,-5.5088,0.0,0.0,0.0,0.0,0.0,0.0,0.0,0.0,0.0,0.0,0.0,0.0,0.0,0.0,0.0,0.0,0.0,0.0,0.0,0.0,0.0,0.0,0.0,0.0,0.0,0.0,0.0,0.0,0.0,0.0,0.0,0.0,0.0,0.0,0.0,0.0,0.0,0.0,0.0,0.0,0.0,0.0,0.0,0.0,0.0,0.0,0.0,0.0,0.0,0.0,0.0,0.0,0.0,0.0,0.0,0.0,0.0,0.0,0.0,0.0,0.0,0.0,0.0,0.0,0.0,0.0,0.0,0.0,0.0,0.0,0.0,-5.6665,0.0,0.0,0.0,0.0,0.0,0.0,0.0,0.0,0.0,0.0,0.0,0.0,0.0,0.0,0.0,0.0,0.0,0.0,0.0,0.0,0.0,0.0,0.0,0.0,0.0,0.0,0.0,0.0,0.0,0.0,0.0,0.0,0.0,0.0,0.0,-5.1395,-5.151,-5.2769,-5.4395,-5.6319,-5.8511,-5.8511,-5.7819,-5.6588,-5.628,0.0,0.0,0.0,0.0,0.0,0.0,0.0,0.0,0.0,0.0,0.0,0.0,0.0,0.0,0.0,0.0,0.0,0.0,0.0,0.0,0.0,0.0,0.0,0.0,0.0,0.0,0.0,0.0,0.0,0.0,0.0,0.0,0.0,0.0,0.0,0.0,0.0,0.0,0.0,0.0,0.0,0.0,0.0,0.0,0.0,0.0,0.0,0.0,0.0,0.0,0.0,0.0,0.0,0.0,0.0,0.0,0.0,0.0,0.0,0.0,0.0,0.0,0.0,-6.4512,-6.532,-6.6551,-6.6859,-6.6898,-6.659,-6.3205,-6.0319,-5.8127,-5.855,0.0,0.0,0.0,0.0,0.0,0.0,0.0,0.0,0.0,0.0,0.0,0.0,0.0,0.0,0.0,0.0,0.0,0.0,0.0,0.0,0.0,0.0,-5.378,-5.4434,-5.4395,0.0,0.0,0.0,0.0,0.0,0.0,0.0,0.0,-5.2587,-5.3241,-5.6329,-5.7319,-5.8319,-5.9358,-5.9358,-5.9627,-6.005,-5.8627,-5.755,-5.683,0.0,0.0,0.0,0.0,0.0,0.0,0.0,0.0,0.0,0.0,0.0,0.0,0.0,0.0,0.0,0.0,0.0,0.0,0.0,0.0,0.0,0.0,0.0,0.0,0.0,0.0,0.0,0.0,0.0,0.0,0.0,0.0,0.0,0.0,0.0,0.0,0.0,0.0,0.0,0.0,0.0,-5.7857,-5.7099,0.0,0.0,0.0,0.0,0.0,0.0,0.0,0.0,0.0,0.0,0.0,0.0,0.0,-6.3628,-6.5359,-6.5974,-6.6744,-6.7744,-6.9206,-6.9667,-6.9244,-7.0706,-7.0975,-7.0244,-7.0437,0.0,-6.2358,-6.1012,0.0,0.0,0.0,0.0,0.0,0.0,0.0,0.0,0.0,0.0,0.0,0.0,0.0,0.0,0.0,0.0,0.0,0.0,0.0,0.0,0.0,-5.4472,-5.5472,-5.5857,-5.6357,-5.6049,0.0,0.0,0.0,0.0,0.0,-5.2269,-5.301,-5.2779,-5.4549,-5.8396,-5.9781,-6.1089,-6.2397,-6.2858,-6.3281,-6.3628,-6.2897,-6.1012,-5.8319,-5.7407,0.0,0.0,0.0,0.0,0.0,0.0,0.0,0.0,0.0,0.0,0.0,0.0,0.0,0.0,0.0,0.0,0.0,0.0,0.0,0.0,0.0,0.0,0.0,0.0,0.0,0.0,0.0,0.0,0.0,0.0,0.0,0.0,0.0,0.0,0.0,0.0,0.0,0.0,0.0,-5.728,-5.8165,-5.778,-5.7742,-5.7396,0.0,0.0,0.0,0.0,0.0,0.0,0.0,0.0,0.0,-6.5051,-6.7167,-6.8667,-6.9436,-7.0283,-7.136,-7.2668,-7.3437,-7.4091,-7.4668,-7.5399,-7.5515,-7.5168,-7.5553,-7.3707,-7.0129,-6.6013,-6.3051,-6.0896,0.0,0.0,0.0,0.0,-5.855,-5.8704,0.0,0.0,0.0,0.0,0.0,0.0,0.0,0.0,0.0,0.0,0.0,0.0,-5.378,-5.5934,-5.7319,-5.7319,-5.8127,-5.7857,-5.6126,0.0,0.0,0.0,0.0,-5.2,-5.2231,-5.3741,-5.6357,-6.0165,-6.1897,-6.3705,-6.559,-6.6244,-6.6782,-6.7167,-6.6744,-6.4166,-6.0089,-5.883,-5.7945,-5.7253,0.0,0.0,0.0,0.0,0.0,0.0,0.0,0.0,0.0,0.0,0.0,0.0,0.0,0.0,0.0,0.0,0.0,0.0,0.0,0.0,0.0,0.0,0.0,0.0,0.0,0.0,0.0,0.0,0.0,0.0,0.0,0.0,0.0,0.0,0.0,0.0,0.0,-5.8319,-5.905,-5.8396,-5.8896,-5.8858,0.0,0.0,0.0,0.0,0.0,0.0,-6.3628,-6.6128,-6.8282,-6.9975,-7.2476,-7.4014,-7.4476,-7.5553,-7.6707,-7.7938,-7.7938,-7.8592,-7.9785,-7.9785,-7.9785,-7.9785,-7.9554,-7.8631,-7.6861,-7.1091,-6.7244,-6.4705,-6.2358,-6.132,-6.1204,-6.1858,-6.2089,-6.2281,0.0,0.0,0.0,0.0,0.0,0.0,0.0,0.0,0.0,0.0,0.0,-5.3818,-5.5395,-5.7165,-5.8242,-5.8242,-5.8973,-5.8742,-5.706,-5.6165,-5.5318,-5.4472,-5.2818,-5.2269,-5.3126,-5.6357,-5.9319,-6.1985,-6.3666,-6.5743,-6.8205,-6.8244,-6.9129,-7.0591,-6.8975,-6.5936,-6.1947,-6.187,-6.0435,-5.8165,-5.728,0.0,0.0,0.0,0.0,0.0,0.0,0.0,0.0,0.0,0.0,0.0,0.0,0.0,0.0,0.0,0.0,0.0,0.0,0.0,0.0,0.0,0.0,0.0,0.0,0.0,0.0,0.0,0.0,0.0,0.0,0.0,0.0,0.0,0.0,0.0,0.0,0.0,0.0,-5.8588,-6.0435,0.0,0.0,0.0,0.0,-6.2846,-6.5282,-6.7128,-6.8052,-7.0514,-7.2629,-7.4322,-7.6861,-7.8977,-8.0631,-8.2247,-8.3131,-8.3208,-8.3208,-8.3247,-8.3324,-8.3324,-8.3324,-8.3285,-8.2477,-8.1631,-8.0439,-7.5322,-7.1668,-6.9206,-6.7398,-6.6244,-6.559,-6.5628,-6.5628,-6.5667,0.0,0.0,0.0,0.0,0.0,0.0,0.0,0.0,0.0,-5.1125,-5.2818,-5.4472,-5.5588,-5.8704,-6.0935,-6.1473,-6.2281,-6.205,-6.0408,-5.7945,-5.5945,-5.4549,-5.2318,-5.2279,-5.4741,-5.8165,-6.1166,-6.3705,-6.5936,-6.8052,-7.0014,-7.0591,-7.1475,-7.2552,-7.1937,-6.9937,-6.6821,-6.4051,-6.205,-6.0627,-5.9204,-5.7973,0.0,0.0,0.0,0.0,0.0,0.0,0.0,0.0,0.0,0.0,0.0,0.0,0.0,0.0,0.0,0.0,0.0,0.0,0.0,0.0,0.0,0.0,0.0,0.0,0.0,0.0,0.0,0.0,0.0,0.0,0.0,0.0,0.0,0.0,0.0,0.0,0.0,-6.3243,-6.5897,0.0,-6.5397,-6.6013,-6.6551,-6.6577,-6.9475,-7.2091,-7.4014,-7.6553,-7.8938,-8.1208,-8.267,-8.3708,-8.4324,-8.4901,-8.5209,-8.5209,-8.5209,-8.5209,-8.5209,-8.467,-8.4439,-8.4401,-8.3516,-8.2978,-8.2516,-8.0131,-7.7015,-7.3514,-7.1283,-7.0206,-7.0014,-7.0591,-7.0783,-7.0937,0.0,0.0,0.0,0.0,0.0,0.0,0.0,0.0,0.0,-5.1866,-5.3703,-5.5665,-5.7638,-6.0896,-6.3166,-6.3705,-6.4282,-6.3512,-6.0973,-5.8138,-5.5665,-5.3703,-5.2279,-5.3395,-5.7319,-5.9935,-6.2897,-6.632,-6.8282,-7.0244,-7.2206,-7.2783,-7.3514,-7.4322,-7.4053,-7.2976,-7.1168,-6.7744,-6.5013,-6.2781,-6.105,-5.955,-5.8176,0.0,0.0,0.0,0.0,0.0,0.0,0.0,0.0,0.0,0.0,0.0,0.0,0.0,0.0,0.0,0.0,0.0,0.0,0.0,0.0,0.0,0.0,0.0,0.0,0.0,0.0,0.0,0.0,0.0,0.0,0.0,0.0,0.0,0.0,0.0,-6.609,-6.6667,-6.9975,-7.1629,-7.0231,-7.1168,-7.1937,-7.2245,-7.4861,-7.7476,-7.9746,-8.1708,-8.3708,-8.567,-8.6555,-8.7094,-8.7401,-8.7401,-8.7401,-8.7401,-8.7094,-8.6978,-8.6978,-8.644,-8.6017,-8.5709,-8.4824,-8.4132,-8.3516,-8.267,-8.0477,-7.7515,-7.5553,-7.4591,-7.4399,-7.4976,-7.5207,-7.5322,0.0,0.0,0.0,0.0,0.0,0.0,0.0,0.0,0.0,-5.4087,-5.5164,-5.7319,-6.1639,-6.3628,-6.4666,-6.4705,-6.4666,-6.2858,-5.8704,-5.6703,-5.4587,-5.2038,-5.2895,-5.5742,-6.0742,-6.1793,-6.4743,-6.9744,-7.0591,-7.2283,-7.4745,-7.4784,-7.5245,-7.6053,-7.5168,-7.4784,-7.463,-7.2976,-6.9398,-6.4705,-6.2935,-6.1716,-6.0589,0.0,0.0,0.0,0.0,0.0,0.0,0.0,0.0,0.0,0.0,0.0,0.0,0.0,0.0,0.0,0.0,0.0,0.0,0.0,0.0,0.0,0.0,0.0,0.0,0.0,0.0,0.0,0.0,0.0,0.0,0.0,0.0,0.0,-6.1012,-6.5359,-6.859,-6.8706,-7.2437,-7.4668,-7.3899,-7.5322,-7.7323,-7.9823,-8.1554,-8.3247,-8.4978,-8.5824,-8.6671,-8.7478,-8.8363,-8.9171,-8.9979,-9.0017,-9.0017,-9.0017,-8.921,-8.8825,-8.8825,-8.8748,-8.8286,-8.744,-8.6517,-8.5209,-8.3632,-8.2708,-8.1862,-8.1093,-8.0208,-7.9323,-7.8592,-7.8592,-7.8592,-7.8477,0.0,0.0,0.0,0.0,0.0,0.0,0.0,0.0,-5.1164,-5.2472,-5.4434,-5.7319,-6.1639,-6.4166,-6.6013,-6.7244,-6.6244,-6.4282,-6.1243,-5.7703,-5.4857,-5.2933,-5.6011,-5.9011,-6.1678,-6.4974,-6.7936,-7.0552,-7.2629,-7.4361,-7.5668,-7.6284,-7.7015,-7.7784,-7.6938,-7.6245,-7.5553,-7.4476,-7.2514,-6.986,-6.6898,-6.4474,-6.2397,0.0,0.0,0.0,0.0,0.0,0.0,0.0,0.0,0.0,0.0,0.0,0.0,0.0,0.0,0.0,0.0,0.0,0.0,0.0,0.0,0.0,0.0,0.0,0.0,0.0,0.0,0.0,0.0,0.0,0.0,0.0,0.0,-6.5359,-6.5359,-6.9244,-7.3014,-7.5438,-7.8938,-8.1054,-8.0823,-8.2324,-8.3632,-8.4324,-8.5978,-8.7401,-8.8479,-8.9325,-8.9902,-9.0171,-9.1018,-9.1556,-9.1787,-9.2364,-9.2672,-9.2633,-9.1825,-9.1441,-9.1402,-9.0171,-8.944,-8.9133,-8.7671,-8.6786,-8.617,-8.4093,-8.3093,-8.2747,-8.1323,-8.0592,-8.04,-8.04,-8.04,-8.0246,0.0,0.0,0.0,0.0,0.0,0.0,0.0,0.0,-5.1125,-5.2269,-5.4357,-5.7319,-6.1639,-6.3705,-6.5359,-6.6705,-6.4936,-6.2666,-6.0139,-5.6626,-5.4857,-5.5318,-5.8357,-6.1512,-6.4666,-6.7821,-7.0629,-7.3053,-7.4899,-7.6207,-7.7053,-7.7553,-7.8054,-7.8477,-7.8015,-7.7323,-7.6515,-7.6015,-7.5014,-7.3553,-7.086,-6.8052,-6.5243,-6.3551,-6.2127,-6.0896,-6.055,-6.0589,-6.055,-5.9088,0.0,0.0,0.0,0.0,0.0,0.0,0.0,0.0,0.0,0.0,0.0,0.0,0.0,0.0,0.0,0.0,0.0,0.0,0.0,0.0,0.0,0.0,0.0,0.0,-6.6167,-6.9436,-7.1591,-7.4014,-7.6707,-7.9708,-8.3093,-8.5324,-8.5709,-8.7248,-8.8402,-8.8748,-8.971,-9.0633,-9.1441,-9.1979,-9.2249,-9.2249,-9.2402,-9.2672,-9.2979,-9.3133,-9.3364,-9.3672,-9.321,-9.2826,-9.2479,-9.1441,-9.0594,-8.9863,-8.8863,-8.7825,-8.6748,-8.5247,-8.4016,0.0,0.0,0.0,0.0,0.0,-8.1093,-8.0977,0.0,0.0,0.0,0.0,0.0,0.0,0.0,0.0,-5.1279,-5.2972,-5.4664,-5.7319,-6.1639,-6.2743,-6.3551,-6.4512,-6.2166,-5.955,-5.7022,-5.4934,-5.5203,-5.8434,-6.0473,-6.3743,-6.859,-7.0437,-7.2899,-7.613,-7.7092,-7.7938,-7.8631,-7.8746,-7.8784,-7.8784,-7.8669,-7.8246,-7.7592,-7.7476,-7.6976,-7.613,-7.4668,-7.1975,-6.8667,-6.6974,-6.5782,-6.4936,-6.4166,-6.3051,-6.1858,-6.1512,0.0,0.0,0.0,0.0,0.0,0.0,0.0,0.0,0.0,0.0,0.0,0.0,0.0,0.0,0.0,0.0,0.0,0.0,0.0,0.0,0.0,0.0,0.0,0.0,-6.936,-7.3437,-7.8246,-7.9169,-8.0208,-8.2439,-8.567,-8.8017,-8.8902,-9.0517,-9.1825,-9.271,-9.2787,-9.3095,-9.3787,0.0,0.0,0.0,0.0,-9.2903,-9.3672,-9.2979,-9.3095,-9.398,-9.3787,-9.3326,-9.2633,-9.2556,-9.1595,-9.0056,-8.9923,-8.8594,-8.6363,-8.6094,-8.4478,-8.2093,-8.1362,-8.1093,-8.1093,-8.1093,-8.1093,-8.0977,0.0,0.0,0.0,0.0,0.0,0.0,0.0,0.0,-5.1279,-5.2972,-5.4664,-5.7319,-6.1639,-6.2255,-6.2935,-6.4474,-6.1627,-5.8665,-5.6126,-5.6819,-5.8204,-6.0242,-6.3897,-6.7282,-7.036,-7.2745,-7.4976,-7.7053,-7.8554,-7.94,-7.9554,-8.0285,-8.0592,-8.0554,-7.9862,-7.9477,-7.9285,-7.8554,-7.8169,-7.7977,-7.7669,-7.5091,-7.1283,-6.959,-6.8436,-6.7628,-6.7462,-6.809,-6.8513,-6.582,-6.559,-6.582,-6.2243,0.0,0.0,0.0,0.0,0.0,0.0,0.0,0.0,0.0,0.0,0.0,0.0,0.0,0.0,0.0,0.0,0.0,0.0,0.0,0.0,-6.8513,-7.3514,-7.8092,-8.1131,-8.3324,-8.4824,-8.5324,-8.7748,-8.9748,-9.0633,-9.221,-9.3595,-9.4441,-9.4518,-9.4557,-9.4749,-9.4057,-9.3403,-9.2749,-9.2595,-9.2903,-9.3672,-9.3557,-9.4249,-9.5788,0.0,0.0,-9.3441,-9.2787,-9.1941,-9.0902,-9.021,-8.9248,-8.8017,-8.5978,-8.3632,-8.1323,-8.117,-8.1093,-8.1093,-8.1093,-8.1093,-8.0977,0.0,0.0,0.0,0.0,0.0,0.0,0.0,0.0,-5.102,-5.1856,-5.3395,-5.5434,-5.8011,-5.8676,-5.9242,-6.005,-5.8588,-5.7049,-5.578,-5.8127,-6.0704,-6.3243,-6.659,-6.959,-7.2168,-7.4707,-7.663,-7.79,-7.9592,-8.0439,-8.0477,-8.09,-8.1093,-8.1093,-8.0631,-8.0208,-7.9785,-7.9323,-7.89,-7.8477,-7.8477,-7.7246,-7.5207,-7.3976,-7.2976,-7.2168,-7.1706,-7.1552,-7.1245,-6.909,-6.8706,-6.8552,-6.5551,-6.3743,-6.2281,0.0,0.0,0.0,0.0,0.0,0.0,0.0,0.0,0.0,0.0,0.0,0.0,0.0,0.0,-6.182,0.0,0.0,-7.0014,-7.3014,-7.7053,-8.0669,-8.3247,-8.5786,-8.7401,-8.7401,-8.9633,-9.1518,-9.2364,-9.4018,-9.5172,-9.5634,-9.5634,-9.5634,-9.5634,-9.4826,-9.4172,-9.3749,-9.3326,-9.3095,-9.3095,-9.3941,-9.4557,-9.5018,-9.5018,-9.4557,-9.3672,-9.3287,-9.2402,-9.1171,-9.0287,-8.944,-8.8479,-8.594,-8.3901,-8.2324,-8.1862,-8.1439,-8.1093,-8.1093,-8.1093,-8.1054,0.0,0.0,0.0,0.0,0.0,0.0,0.0,0.0,0.0,-5.0712,-5.2164,-5.3549,-5.4395,-5.5088,-5.5318,-5.4972,-5.5549,-5.5934,-5.5934,-5.9281,-6.282,-6.6244,-6.8975,-7.1552,-7.3937,-7.6476,-7.8092,-7.8746,-8.0323,-8.1093,-8.1093,-8.1093,-8.1093,-8.1093,-8.1093,-8.0708,-8.0054,-8.0054,-7.9669,-7.9015,-7.9015,-7.9015,-7.89,-7.8092,-7.7246,-7.6361,-7.5322,-7.3783,-7.2052,-7.1206,-7.036,-6.9436,-6.7859,-6.6782,-6.5474,-6.2243,-6.0319,0.0,0.0,0.0,0.0,0.0,0.0,0.0,0.0,0.0,-6.0973,-6.2716,-6.4436,-6.609,-6.7782,-7.0898,-7.413,-7.7053,-8.0092,-8.2862,-8.5055,-8.7594,-8.9171,-8.9171,-9.1287,-9.3056,-9.3864,-9.5365,-9.6288,-9.6288,-9.6288,-9.6249,-9.6057,-9.5211,-9.4672,-9.4518,-9.3826,-9.321,-9.2749,-9.4057,-9.448,-9.398,-9.5211,-9.498,-9.348,-9.348,-9.2633,-9.1133,-9.0133,-8.9094,-8.8017,-8.5632,-8.4132,-8.3247,-8.2401,-8.167,-8.1093,-8.1093,-8.1093,-8.1093,0.0,0.0,0.0,0.0,0.0,0.0,0.0,0.0,0.0,-5.0712,-5.2164,-5.3549,0.0,0.0,-5.401,-5.2462,-5.5088,-5.6868,-5.6868,-6.0704,-6.4551,-6.7975,-7.1321,-7.3899,-7.5668,-7.8207,-7.9554,-7.9669,-8.0631,-8.1093,-8.1093,-8.1093,-8.1093,-8.1093,-8.1093,-8.1054,-8.0939,-8.0939,-8.09,-8.0823,-8.0823,-8.0823,-8.0708,-7.9862,-7.8977,-7.8015,-7.6438,-7.4284,-7.2052,-7.1206,-7.036,-6.9513,-6.8552,-6.7667,-6.6436,-6.382,0.0,-5.8204,-5.7137,-5.7022,-5.733,-5.7973,-5.8781,-5.9781,0.0,0.0,-6.4512,-6.6167,-6.7936,-6.9629,-7.1321,-7.4399,-7.7092,-7.8169,-8.2401,-8.5901,-8.6978,-8.9325,-9.0902,-9.0902,-9.2479,-9.3903,-9.4749,-9.5711,-9.6288,-9.6288,-9.6288,-9.5942,-9.5172,-9.4326,-9.3518,-9.2787,-9.2672,-9.2941,-9.3557,-9.3749,-9.4172,-9.4826,-9.4249,-9.3518,-9.2633,-9.2633,-9.2095,-9.1095,-8.9517,-8.7902,-8.6247,-8.4478,-8.3208,-8.2362,-8.1554,-8.117,-8.1093,-8.1093,-8.1093,-8.1093,0.0,0.0,0.0,0.0,0.0,0.0,0.0,0.0,0.0,0.0,0.0,-5.1895,0.0,-5.2279,-5.201,-5.1279,-5.428,-5.6665,-5.7703,-6.2627,-6.6821,-6.9744,-7.3129,-7.5515,-7.6746,-7.8746,-7.9823,-7.9823,-8.0669,-8.1093,-8.1093,-8.1093,-8.1093,-8.1093,-8.1093,-8.1093,-8.1093,-8.1093,-8.1093,-8.1093,-8.1093,-8.1093,-8.09,-7.9054,-7.7784,-7.6746,-7.4553,-7.2476,0.0,0.0,-6.8783,-6.8898,-6.85,-6.7475,-6.5897,-6.3358,-6.0896,0.0,-5.855,-5.8434,-5.8781,0.0,-6.1897,-6.3666,-6.5397,-6.7051,-6.8898,-7.1052,-7.2514,-7.386,-7.5553,-7.7861,-8.0092,0.0,-8.4824,-8.7171,-8.8017,-8.9902,-9.0825,-8.9863,-9.121,-9.2595,-9.3441,-9.5211,-9.6095,-9.5557,-9.5518,-9.5595,-9.5749,-9.4018,-9.3056,-9.3172,-9.321,-9.2903,-9.2249,-9.421,-9.4634,-9.3557,-9.4172,-9.3749,-9.2479,-9.2479,-9.1479,-8.9671,-8.8479,-8.6978,-8.5363,-8.4632,-8.3555,-8.2285,-8.1939,-8.1516,-8.1093,-8.1093,-8.1093,-8.1093,0.0,0.0,0.0,0.0,0.0,0.0,0.0,0.0,0.0,0.0,0.0,0.0,0.0,-5.0712,-5.0712,-5.0712,-5.3318,-5.5857,-5.7819,-6.2589,-6.6821,-7.0052,-7.3476,-7.5938,-7.7284,-7.9169,-8.0169,-8.0169,-8.0785,-8.1093,-8.1093,-8.1093,-8.1093,-8.1093,-8.1093,-8.1093,-8.1093,-8.1093,-8.1093,-8.1093,-8.1093,-8.0669,-7.9785,-7.7476,-7.5322,-7.3322,-7.1745,-6.9783,0.0,0.0,-6.5974,-6.6359,-6.659,-6.5974,-6.4743,-6.2409,-6.0358,-5.8858,-5.9088,0.0,0.0,-6.2947,-6.5397,-6.7782,-6.9706,-7.1245,-7.2976,-7.5284,-7.6438,-7.7476,-7.8938,-8.0631,-8.2477,-8.4555,-8.6517,-8.8055,-8.8902,-9.0094,-9.0325,-8.8863,-8.9748,-9.0671,-9.1056,-9.3633,-9.5172,-9.5018,-9.4788,-9.5018,-9.5903,-9.3941,-9.2979,-9.3364,-9.3595,-9.3018,-9.1556,-9.448,-9.4788,-9.2518,-9.3941,-9.3749,-9.2133,-9.1902,-9.0517,-8.8286,-8.7401,-8.6247,-8.4863,-8.4401,-8.3439,-8.2285,-8.2054,-8.1593,-8.1093,-8.1093,-8.1093,-8.1093,0.0,0.0,0.0,0.0,0.0,0.0,0.0,0.0,0.0,0.0,0.0,0.0,0.0,0.0,-5.0712,-5.0712,-5.2279,-5.4357,-5.6868,-5.9523,-6.3243,-6.8282,-7.1745,-7.4745,-7.7246,-7.9785,-8.1054,-8.1054,-8.1093,-8.1093,-8.1093,-8.1093,-8.1093,-8.1093,-8.1093,-8.1093,-8.1093,-8.1093,-8.1093,-8.1093,-8.1093,-7.9631,-7.7207,-7.5438,-7.1706,-6.7475,-6.8244,0.0,0.0,0.0,-6.1716,-6.1166,-6.2024,-6.2781,0.0,-6.1358,-5.905,0.0,0.0,0.0,-6.2832,-6.6141,-6.8859,-7.1398,-7.3937,-7.5207,-7.6322,-7.8015,-7.9092,-7.9977,-8.0862,-8.2401,-8.3824,-8.4747,-8.7017,-8.894,-8.9748,-8.9902,-8.9633,-8.8786,-8.8748,-8.844,0.0,-9.0633,-9.3287,-9.4864,-9.421,-9.4134,-9.498,-9.4172,-9.3326,-9.2556,-9.3287,-9.3287,-9.2479,-9.4172,-9.4172,-9.2518,-9.3326,-9.2864,-9.121,-9.0364,-8.9056,-8.7401,-8.6517,-8.567,-8.4786,-8.3093,-8.2362,-8.2208,-8.1439,-8.1131,-8.1093,-8.1093,-8.1093,-8.1093,0.0,0.0,0.0,0.0,0.0,0.0,0.0,0.0,0.0,0.0,0.0,0.0,0.0,0.0,0.0,0.0,-5.1702,-5.3203,-5.5203,-5.8242,-6.1204,-6.4089,-6.8552,-7.1898,-7.386,-7.6399,-7.8246,-7.9361,-7.9361,-7.9361,-7.94,-7.9977,-8.0246,-8.0246,-8.0823,-8.1093,-8.1093,-8.1093,-8.0439,-7.9285,-7.8169,-7.6553,-7.4361,-7.036,-6.709,-6.432,0.0,0.0,0.0,0.0,0.0,0.0,-5.9281,0.0,0.0,-5.7742,0.0,0.0,0.0,0.0,-6.6218,-6.9629,-7.2399,-7.4784,-7.6784,-7.79,-7.8861,-7.9977,-7.8669,-7.7361,-7.7669,-7.8631,-7.9862,-8.1285,-8.5055,-8.8325,-8.971,-9.0402,-8.9825,-8.7286,-8.7478,0.0,0.0,0.0,0.0,-9.2402,-9.2749,-9.3518,-9.4903,-9.3672,-9.3018,-9.3287,-9.3018,-9.2479,-9.1633,-9.3287,-9.3287,-9.1633,-9.1902,-9.1441,-9.0325,-8.9479,-8.8171,-8.6478,-8.567,-8.4478,-8.3131,-8.2554,-8.1977,-8.1477,-8.1208,-8.1093,-8.1093,-8.1093,-8.1093,-8.1093,0.0,0.0,0.0,0.0,0.0,0.0,0.0,0.0,0.0,0.0,0.0,0.0,0.0,0.0,0.0,0.0,0.0,-5.2202,-5.3933,-5.6049,-5.828,-6.0627,-6.4436,-6.7282,-6.8975,-7.1245,-7.2899,-7.3976,-7.4591,-7.4899,-7.4899,-7.6092,-7.6784,-7.7092,-7.7669,-7.8092,-7.8361,-7.8054,-7.7284,-7.6092,-7.4399,-7.2552,-7.036,-6.6436,-6.3551,0.0,0.0,0.0,0.0,0.0,0.0,0.0,0.0,0.0,0.0,0.0,0.0,0.0,0.0,-6.6372,-6.9744,-7.3168,-7.5707,-7.7707,-7.9092,-7.9862,-8.0246,-8.0169,-7.7707,-7.5361,-7.4745,-7.4861,-7.5553,-7.7284,-8.0785,-8.4439,-8.7671,-8.7555,-8.6978,-8.6594,-8.5978,-8.517,0.0,0.0,0.0,-9.0594,-9.1556,-9.2787,-9.4441,-9.3518,-9.3172,-9.3672,-9.2903,-9.221,-9.1672,-9.271,-9.271,-9.1672,-9.1018,-9.0287,-8.944,-8.8286,-8.7171,-8.6017,-8.4593,-8.3516,-8.2708,-8.2131,-8.1554,-8.1093,-8.1093,-8.1093,-8.1093,-8.1093,-8.1093,-8.1093,0.0,0.0,0.0,0.0,0.0,0.0,0.0,0.0,0.0,0.0,0.0,0.0,0.0,0.0,0.0,0.0,0.0,0.0,-5.2972,-5.3087,-5.4549,-5.7819,-5.9627,-6.132,-6.3,-6.4743,-6.5667,-6.5782,-6.7359,-6.8129,-6.8154,-6.9821,-7.1014,-7.1822,-7.186,-7.2322,-7.3053,-7.2283,-7.186,-7.1591,-6.9975,-6.7821,-6.5359,-6.3589,-6.0935,-5.7934,0.0,0.0,0.0,0.0,0.0,0.0,0.0,0.0,0.0,0.0,0.0,-6.1973,-6.6205,-6.986,-7.3245,-7.6592,-7.8669,-8.0092,-8.09,-8.1016,-8.0477,-7.8669,-7.6169,-7.3783,0.0,0.0,-7.136,-7.3091,-7.5053,-7.84,-8.4209,-8.2324,-8.2093,0.0,0.0,0.0,0.0,0.0,0.0,-8.9654,0.0,-9.1864,-9.3557,-9.3672,-9.3672,-9.3633,-9.2903,-9.2479,-9.2441,-9.2441,-9.2441,-9.2402,-9.071,-8.9479,-8.8632,-8.694,-8.6094,-8.5824,-8.3401,-8.2785,-8.3362,-8.1747,-8.1093,-8.1093,-8.1093,-8.1093,-8.1093,-8.1093,-8.1093,-8.1093,0.0,0.0,0.0,0.0,0.0,0.0,0.0,0.0,0.0,0.0,0.0,0.0,0.0,0.0,0.0,0.0,0.0,0.0,-5.1279,-5.1318,-5.1972,-5.3462,-5.5742,-5.7819,-5.955,-6.1243,-6.2704,-6.3974,-6.4385,-6.4577,-6.4628,-6.5705,-6.632,-6.6551,-6.7205,-6.7628,-6.7859,-6.8244,-6.7282,-6.5474,-6.4436,-6.2858,-6.0896,-5.8511,-5.7126,0.0,0.0,0.0,0.0,0.0,0.0,0.0,0.0,0.0,-5.8088,0.0,0.0,-6.5513,-6.9744,-7.3399,-7.6515,-7.8631,-7.9977,-8.0823,-8.1054,-8.0092,-7.8515,-7.6169,-7.2129,-6.8321,0.0,0.0,0.0,-7.1283,-7.7246,0.0,-8.6286,-8.7094,0.0,-8.8286,0.0,-8.6709,-8.5901,-8.6363,0.0,0.0,-9.0133,-9.0979,-9.271,-9.3364,-9.3441,-9.2826,-9.2595,-9.2172,-9.1556,-9.1518,-9.1518,-9.1518,-9.0441,-8.9479,-8.8671,-8.7555,-8.6017,-8.4209,-8.3555,-8.267,-8.1708,-8.1285,-8.1093,-8.1093,-8.1093,-8.1093,-8.1093,-8.1093,-8.1093,-8.1093,0.0,0.0,0.0,0.0,0.0,0.0,0.0,0.0,0.0,0.0,0.0,0.0,0.0,0.0,0.0,0.0,0.0,0.0,0.0,-5.0712,-5.0894,-5.1356,-5.2741,-5.3972,-5.4934,-5.5895,-5.7011,-5.8308,-5.8692,-5.905,-5.9473,-6.0319,-6.0896,-6.1281,-6.1781,-6.2204,-6.2589,-6.3051,-6.2397,0.0,0.0,-5.9292,-5.8204,-5.6395,-5.5703,0.0,0.0,0.0,0.0,0.0,0.0,-5.8819,-5.9704,-6.0473,-6.1627,-6.4589,0.0,-6.9513,-7.3399,-7.6361,-7.8707,-8.0054,-8.0746,-8.0708,-7.9208,-7.7823,-7.5784,-7.2129,-6.7936,0.0,0.0,0.0,0.0,0.0,0.0,0.0,-8.4055,-8.544,-8.6709,0.0,-8.8709,0.0,-8.7325,-8.8017,-8.9056,0.0,-9.0825,-9.1633,-9.2941,-9.3441,-9.348,-9.3018,-9.2326,-9.171,-9.121,-9.121,-9.121,-9.121,-8.9979,-8.9133,-8.8632,-8.7055,-8.5517,-8.4132,0.0,-8.2516,-8.1593,-8.1246,-8.1093,-8.1093,-8.1093,-8.1093,-8.1093,-8.1093,-8.1093,-8.1093,0.0,0.0,0.0,0.0,0.0,0.0,0.0,0.0,0.0,0.0,0.0,0.0,0.0,0.0,0.0,0.0,0.0,0.0,0.0,0.0,0.0,-5.0712,-5.0712,-5.0712,-5.0712,-5.0712,-5.1048,-5.1731,-5.251,-5.3241,-5.401,-5.4703,-5.5444,-5.6175,-5.6165,-5.6615,-5.7473,-5.7588,-5.7627,-5.7588,-5.6934,-5.6676,-5.6599,0.0,0.0,0.0,0.0,0.0,0.0,0.0,-6.0165,-6.1166,-6.237,-6.382,-6.5782,-6.9321,-7.1475,-7.3437,-7.6861,-7.8938,-8.0323,-8.1054,-8.1093,-8.0015,-7.6592,-7.4899,-7.2591,-6.7475,0.0,-6.1447,-6.0473,-6.1293,-6.3063,-6.5936,0.0,-7.4784,-8.0746,-8.1785,-8.367,-8.8286,-8.894,-8.9017,-8.9017,-8.9671,-9.0479,-9.1479,-9.2133,-9.2864,-9.3672,-9.371,-9.3633,-9.3518,-9.2018,-9.121,-9.121,-9.1095,-9.1095,-9.1171,-8.9363,-8.8517,-8.844,-8.6132,-8.4863,-8.4478,-8.3093,0.0,-8.2093,-8.14,-8.1093,-8.1093,-8.1093,-8.1093,-8.1093,-8.1093,-8.1093,-8.1093,0.0,0.0,0.0,0.0,0.0,0.0,0.0,0.0,0.0,0.0,-5.0596,-5.0712,0.0,0.0,0.0,0.0,0.0,0.0,0.0,0.0,0.0,0.0,-5.0712,-5.0712,-5.0712,0.0,0.0,0.0,0.0,0.0,-5.1366,-5.152,-5.1635,-5.1789,-5.1779,-5.2241,-5.3038,-5.378,-5.4087,-5.4126,-5.4703,-5.4934,-5.4934,0.0,0.0,0.0,0.0,0.0,0.0,0.0,-6.055,-6.237,-6.532,-6.6936,-6.8552,-7.2629,-7.4553,-7.6092,-7.9515,-8.1131,-8.19,-8.2054,-8.1054,-7.9131,-7.5707,-7.2668,0.0,0.0,-6.1358,-5.9473,-5.7945,-6.01,-6.364,-6.8282,0.0,0.0,0.0,0.0,-8.7132,0.0,0.0,0.0,0.0,0.0,0.0,0.0,0.0,-9.2864,-9.3672,-9.371,-9.3403,-9.271,-9.1748,-9.121,-9.121,-9.0479,-9.0479,-9.1171,-8.8786,-8.7632,-8.7594,-8.644,-8.4747,-8.2785,-8.317,0.0,-8.1285,-8.117,-8.1093,-8.1093,-8.1093,-8.1093,-8.1093,-8.1093,-8.1093,-8.1093,0.0,0.0,0.0,0.0,0.0,0.0,0.0,-4.8894,-5.0087,-5.1779,-5.201,-5.1818,-5.1356,-5.0933,0.0,0.0,0.0,0.0,0.0,0.0,0.0,0.0,0.0,0.0,0.0,0.0,0.0,0.0,0.0,0.0,0.0,0.0,0.0,0.0,0.0,0.0,0.0,0.0,0.0,0.0,0.0,0.0,0.0,0.0,0.0,0.0,0.0,0.0,0.0,0.0,-6.0319,-6.2755,-6.659,-6.9283,-7.1706,-7.5053,-7.6976,-7.8515,-8.1054,-8.2324,-8.2862,-8.2401,-8.0708,-7.79,-7.3168,0.0,0.0,0.0,-5.8396,-5.7434,-5.706,0.0,0.0,0.0,0.0,0.0,0.0,0.0,0.0,0.0,0.0,0.0,0.0,0.0,0.0,0.0,0.0,-9.3249,-9.4941,-9.4172,-9.3326,-9.2518,-9.1633,-9.121,-9.121,-9.0364,-9.0133,-9.0517,-8.8402,-8.7171,-8.6709,-8.5863,-8.4324,-8.2324,-8.2747,0.0,-8.1093,-8.1093,-8.1093,-8.1093,-8.1093,-8.1093,-8.1093,-8.1093,-8.1093,-8.1093,0.0,0.0,0.0,0.0,0.0,0.0,0.0,-5.0279,-5.1625,-5.351,-5.3587,-5.328,-5.2769,-5.1818,-5.1097,0.0,0.0,0.0,0.0,0.0,0.0,0.0,0.0,0.0,0.0,0.0,0.0,0.0,0.0,0.0,0.0,0.0,0.0,0.0,0.0,0.0,0.0,0.0,0.0,0.0,0.0,0.0,0.0,0.0,0.0,0.0,0.0,0.0,0.0,0.0,-5.9742,-6.2178,-6.5897,-6.9783,-7.3437,-7.6015,-7.8207,-8.0208,-8.2054,-8.3208,-8.367,-8.2785,-8.04,-7.6669,-7.0783,-6.6628,0.0,0.0,-5.6175,-5.5972,-5.683,-5.8638,-6.1012,0.0,-6.7398,0.0,0.0,0.0,0.0,0.0,0.0,0.0,0.0,0.0,0.0,0.0,0.0,0.0,-9.5403,-9.4172,-9.3056,-9.2249,-9.1556,-9.1133,-9.0941,-9.0056,-8.9633,-8.9633,-8.7748,-8.6517,-8.5824,-8.4978,-8.367,-8.2054,-8.2247,0.0,0.0,-8.1093,-8.1093,-8.1093,-8.1093,-8.1093,-8.1093,-8.1093,-8.1093,-8.1093,0.0,0.0,0.0,0.0,0.0,0.0,0.0,-5.0779,-5.2702,-5.5164,-5.4818,-5.4626,-5.528,-5.3933,-5.2356,0.0,0.0,0.0,0.0,0.0,0.0,0.0,0.0,0.0,0.0,0.0,0.0,0.0,0.0,0.0,0.0,0.0,0.0,0.0,0.0,0.0,0.0,0.0,0.0,0.0,0.0,0.0,0.0,0.0,0.0,0.0,0.0,0.0,0.0,0.0,0.0,-6.0089,-6.205,-6.6551,-7.1629,-7.4207,0.0,0.0,-8.2824,-8.4132,-8.4555,-8.3708,-8.04,-7.5861,-6.9898,0.0,0.0,-5.6703,-5.5742,-5.5972,-5.683,-5.7176,-5.8934,-6.382,0.0,-6.8013,0.0,0.0,0.0,0.0,0.0,0.0,0.0,0.0,0.0,0.0,0.0,0.0,-9.2864,-9.271,-9.221,-9.1364,-9.1248,-9.0825,-9.0056,-8.921,-8.8786,-8.8786,-8.6324,-8.5093,-8.4978,-8.4093,-8.2785,-8.1246,-8.1977,0.0,0.0,-8.1093,-8.1093,-8.1093,-8.1093,-8.1093,-8.1093,-8.1093,-8.1093,-8.1093,0.0,0.0,0.0,0.0,0.0,0.0,-5.001,-5.1625,-5.3395,-5.5434,-5.5434,-5.5164,-5.5011,-5.4395,-5.328,0.0,0.0,0.0,0.0,0.0,0.0,0.0,0.0,0.0,0.0,0.0,0.0,0.0,0.0,0.0,0.0,0.0,0.0,0.0,0.0,0.0,0.0,0.0,0.0,0.0,0.0,0.0,0.0,0.0,0.0,0.0,0.0,0.0,0.0,0.0,0.0,0.0,-5.8204,-6.1281,0.0,0.0,-7.4476,-7.763,-8.1708,-8.3824,-8.4709,-8.3824,-7.9631,-7.4437,-6.9513,0.0,-5.9627,-5.6357,-5.6126,-5.6445,-5.6252,-5.7088,-5.8434,-6.0473,0.0,0.0,0.0,0.0,0.0,0.0,0.0,0.0,0.0,0.0,0.0,0.0,0.0,0.0,-9.1748,-9.221,-9.2326,-9.1979,-9.0979,-9.0248,-8.9902,-8.8594,-8.7902,-8.7902,-8.5863,-8.4632,-8.4093,-8.3208,-8.217,-8.1131,-8.1439,0.0,0.0,-8.1093,-8.1093,-8.1093,-8.1093,-8.1093,-8.1093,-8.1093,-8.1093,-8.1093,0.0,0.0,0.0,0.0,0.0,-4.9048,-5.0173,-5.1972,-5.3818,-5.5472,-5.5703,-5.5588,-5.528,-5.4357,-5.3356,-5.2385,0.0,0.0,0.0,0.0,0.0,0.0,0.0,0.0,0.0,0.0,0.0,0.0,0.0,0.0,0.0,0.0,0.0,0.0,0.0,0.0,0.0,0.0,0.0,0.0,0.0,0.0,0.0,0.0,0.0,0.0,0.0,0.0,0.0,0.0,0.0,0.0,0.0,0.0,-6.0473,0.0,-7.1168,-7.5245,-7.9323,-8.2439,-8.4324,-8.3439,-7.8746,-7.3322,0.0,0.0,-5.8858,-5.6549,-5.6368,-5.6599,-5.6472,-5.7242,-5.8088,-5.8588,0.0,-6.1704,-6.5359,0.0,0.0,0.0,0.0,0.0,0.0,0.0,0.0,0.0,0.0,0.0,-9.121,-9.1556,-9.1748,-9.1748,-9.0556,-8.9556,-8.8786,-8.7594,-8.6786,-8.6247,-8.4824,-8.3824,-8.317,-8.2324,-8.1631,-8.1093,-8.1093,0.0,0.0,-8.1093,-8.1093,-8.1093,-8.1093,-8.1093,-8.1093,-8.1093,-8.1093,-8.1093,0.0,0.0,0.0,0.0,0.0,0.0,-4.9163,-5.1587,-5.3818,-5.5472,-5.5703,-5.6011,-5.6868,-5.3933,-5.2269,-5.3126,0.0,0.0,0.0,0.0,0.0,0.0,0.0,0.0,0.0,0.0,-5.4472,-5.4472,-5.528,0.0,0.0,0.0,0.0,0.0,0.0,0.0,0.0,0.0,0.0,0.0,0.0,0.0,0.0,0.0,0.0,0.0,0.0,0.0,0.0,0.0,0.0,0.0,0.0,0.0,-5.6588,-6.0908,-6.7552,-7.3899,-7.5592,-7.9746,-8.3401,-8.2516,-7.79,-7.2629,0.0,0.0,-5.9011,-5.733,-5.6329,-5.6242,-5.7973,-5.7588,-5.7561,-5.9204,-5.9511,0.0,0.0,0.0,0.0,0.0,0.0,0.0,0.0,0.0,0.0,0.0,0.0,0.0,-9.121,-9.0402,-8.994,-8.994,-8.9902,-8.8709,-8.617,-8.6132,-8.5286,-8.3632,-8.2747,-8.2324,-8.2285,-8.1477,-8.1093,0.0,0.0,0.0,0.0,-8.1093,-8.1093,-8.1093,-8.1093,-8.1093,-8.1093,-8.1093,-8.1093,-8.1093,0.0,0.0,0.0,0.0,0.0,0.0,0.0,-5.0587,-5.2087,-5.378,-5.4511,-5.4741,-5.4434,-5.3433,-5.2654,-5.2346,0.0,0.0,0.0,0.0,0.0,0.0,0.0,0.0,0.0,0.0,-5.4511,-5.4511,-5.5318,-5.5703,-5.5703,-5.5703,0.0,0.0,0.0,0.0,0.0,0.0,0.0,0.0,0.0,0.0,0.0,0.0,0.0,0.0,0.0,0.0,0.0,0.0,0.0,0.0,0.0,0.0,0.0,-5.7319,0.0,0.0,-7.0591,-7.3283,-7.5014,-7.5322,-7.2245,-6.8398,-6.5551,0.0,-5.8357,-5.7253,-5.7242,-5.7473,-5.7434,-5.8588,-5.9396,-5.8781,-5.9627,0.0,0.0,0.0,0.0,0.0,0.0,0.0,0.0,0.0,0.0,0.0,0.0,0.0,-9.0325,-8.9517,-8.9325,-8.9885,-8.8209,-8.694,-8.6094,-8.4939,-8.4132,-8.3593,-8.2708,-8.2285,-8.2285,-8.1477,-8.1093,0.0,0.0,0.0,0.0,-8.1093,-8.1093,-8.1093,-8.1093,-8.1093,-8.1093,-8.1093,-8.1093,-8.1093,0.0,0.0,0.0,0.0,0.0,0.0,0.0,-4.9433,-5.0702,-5.2087,-5.328,-5.3818,-5.328,-5.2933,-5.25,-5.1962,0.0,0.0,0.0,0.0,0.0,0.0,0.0,0.0,0.0,-5.4664,-5.4934,-5.4934,-5.5434,-5.5703,-5.5703,-5.5703,-5.5703,0.0,0.0,0.0,0.0,0.0,0.0,0.0,0.0,0.0,-5.5703,0.0,0.0,0.0,0.0,0.0,0.0,0.0,0.0,0.0,0.0,0.0,0.0,0.0,0.0,0.0,0.0,-6.8359,-7.009,-7.0629,-6.8205,0.0,0.0,0.0,-5.7665,-5.7099,-5.7165,-5.7357,-5.7473,-5.8511,-5.9127,-5.8434,-5.9435,0.0,0.0,0.0,0.0,0.0,0.0,0.0,0.0,0.0,0.0,0.0,0.0,0.0,-8.8979,-8.8479,-8.8132,-8.8017,-8.6786,-8.5632,-8.467,-8.3632,-8.2939,-8.2631,-8.2093,-8.1862,-8.1823,-8.1323,-8.1093,0.0,0.0,0.0,0.0,-8.1093,-8.1093,-8.1093,-8.1093,-8.1093,-8.1093,-8.1093,-8.1093,-8.1093,0.0,0.0,0.0,0.0,0.0,0.0,0.0,0.0,-4.9625,-5.0596,-5.2125,-5.3087,-5.3049,-5.2346,-5.1885,-5.1808,0.0,0.0,0.0,0.0,0.0,0.0,0.0,0.0,0.0,-5.5703,-5.5703,-5.5703,-5.5703,-5.5703,-5.5703,-5.5703,-5.5703,-5.5703,-5.5703,-5.5703,-5.5742,-5.656,-5.6445,-5.578,-5.6599,-5.6406,0.0,0.0,0.0,0.0,0.0,0.0,0.0,0.0,0.0,0.0,0.0,0.0,0.0,0.0,0.0,0.0,0.0,0.0,0.0,0.0,0.0,0.0,0.0,-5.9292,0.0,-5.6983,-5.6368,-5.6319,-5.8011,-5.7627,-5.7368,-5.8165,0.0,0.0,0.0,0.0,0.0,0.0,0.0,0.0,0.0,0.0,0.0,0.0,0.0,0.0,-8.7363,-8.7171,-8.6401,-8.4786,-8.544,-8.4709,-8.2324,-8.2247,-8.1823,-8.1093,-8.1093,-8.1093,-8.1093,-8.1093,-8.1093,0.0,0.0,0.0,0.0,-8.1093,-8.1093,-8.1093,-8.1093,-8.1093,-8.1093,-8.1093,-8.1093,-8.1093,0.0,0.0,0.0,0.0,0.0,0.0,0.0,0.0,0.0,0.0,-5.1587,-5.1972,-5.1356,-5.1664,-5.1654,0.0,0.0,0.0,0.0,0.0,0.0,0.0,0.0,0.0,0.0,-5.5703,-5.5703,-5.5703,-5.5703,-5.5703,-5.5703,-5.5703,-5.5703,-5.5703,-5.5703,-5.5703,-5.5703,-5.5934,-5.5895,-5.5703,-5.5934,-5.5857,0.0,0.0,0.0,0.0,-5.5703,-5.5703,0.0,0.0,0.0,0.0,0.0,0.0,0.0,0.0,-5.5703,0.0,0.0,0.0,-5.9819,-6.0512,-6.0089,-5.9242,0.0,-5.7599,-5.6983,-5.6983,-5.683,-5.7022,0.0,-5.8127,-5.805,0.0,0.0,0.0,0.0,0.0,0.0,0.0,0.0,0.0,0.0,0.0,0.0,0.0,0.0,-8.6632,-8.644,-8.517,-8.4016,-8.2939,-8.3093,-8.2901,-8.2324,-8.1708,-8.1285,-8.1093,-8.1093,-8.1093,-8.1093,-8.1093,-8.1093,0.0,0.0,0.0,-8.1093,-8.1093,-8.1093,-8.1093,-8.1093,-8.1093,-8.1093,-8.1093,-8.1093,-8.1016,0.0,0.0,0.0,0.0,0.0,0.0,0.0,0.0,0.0,0.0,0.0,0.0,0.0,0.0,0.0,0.0,0.0,0.0,0.0,0.0,0.0,0.0,0.0,0.0,-5.5703,-5.5703,-5.5703,-5.5703,-5.5703,-5.5703,-5.5703,-5.5703,-5.5703,-5.5703,-5.5703,-5.5703,-5.5742,-5.6126,-5.6049,-5.5742,-5.6137,0.0,0.0,0.0,0.0,0.0,-5.5703,-5.5703,0.0,-5.6252,-5.6088,-5.5857,0.0,0.0,0.0,0.0,-5.6588,-5.6357,-5.678,-5.6665,-5.6522,-5.6973,-5.7126,-5.6973,-5.6511,-5.6406,-5.6406,-5.6406,-5.6406,0.0,0.0,0.0,0.0,0.0,0.0,0.0,0.0,0.0,0.0,0.0,0.0,0.0,0.0,0.0,0.0,0.0,0.0,-8.4786,-8.4362,-8.3862,-8.3016,-8.1785,-8.2093,-8.2131,-8.1747,-8.1323,-8.1093,-8.1093,-8.1093,-8.1093,-8.1093,-8.1093,-8.1093,0.0,0.0,0.0,-8.1093,-8.1093,-8.1093,-8.1093,-8.1093,-8.1093,-8.1093,-8.1093,-8.0862,-8.0439,0.0,0.0,0.0,0.0,0.0,0.0,0.0,0.0,0.0,0.0,0.0,0.0,0.0,0.0,0.0,0.0,0.0,0.0,0.0,0.0,0.0,0.0,0.0,-5.5703,-5.5703,-5.5703,-5.5703,-5.5703,-5.5818,-5.5895,-5.5895,-5.6011,-5.6011,-5.5895,-5.5742,-5.5703,-5.5742,-5.6483,-5.6368,-5.5742,-5.6522,0.0,0.0,0.0,0.0,0.0,0.0,0.0,0.0,-5.5857,-5.5818,-5.5857,-5.6868,0.0,0.0,0.0,0.0,0.0,-5.7857,-5.7126,-5.6088,-5.6088,-5.6011,-5.5895,-5.5895,-5.578,-5.5703,-5.5703,-5.5703,0.0,0.0,-5.5895,0.0,0.0,0.0,0.0,0.0,0.0,0.0,0.0,0.0,0.0,0.0,0.0,0.0,0.0,0.0,-8.3093,-8.2324,-8.2862,-8.2554,-8.1131,-8.1747,-8.1785,-8.1093,-8.1093,-8.1093,-8.1093,-8.1093,-8.1093,-8.1093,-8.1093,-8.1093,-8.1093,0.0,0.0,-8.1093,-8.0977,-8.0977,-8.1093,-8.1093,-8.1093,-8.1093,-8.0939,-8.0439,-7.9746,0.0,0.0,0.0,0.0,0.0,0.0,0.0,0.0,0.0,0.0,0.0,0.0,0.0,0.0,0.0,0.0,0.0,0.0,0.0,0.0,0.0,0.0,-5.5703,-5.5703,-5.5703,-5.5703,-5.5703,-5.5703,-5.6445,-5.6791,-5.683,-5.755,-5.7511,-5.6791,-5.6011,-5.5703,-5.5703,-5.5818,-5.5818,-5.5703,-5.5857,0.0,0.0,0.0,0.0,0.0,0.0,0.0,0.0,-5.656,-5.6329,-5.5972,-5.7588,0.0,0.0,0.0,0.0,0.0,-5.6983,-5.755,-5.7896,-5.7896,-5.7357,-5.6791,-5.6791,-5.6252,-5.5703,0.0,0.0,0.0,0.0,-5.6791,-5.7099,0.0,0.0,0.0,0.0,0.0,0.0,0.0,0.0,0.0,0.0,0.0,0.0,0.0,0.0,-8.2439,-8.2324,-8.1785,-8.1362,-8.1093,-8.1208,-8.1208,-8.1093,-8.1093,-8.1093,-8.1093,-8.1093,-8.1093,-8.1093,-8.1093,-8.1093,-8.1054,0.0,-8.0439,-8.1054,-8.0285,-8.0439,-8.1093,-8.1093,-8.1093,-8.1016,-8.0285,-7.99,-7.9592,0.0,0.0,0.0,0.0,0.0,0.0,0.0,0.0,0.0,0.0,0.0,0.0,0.0,0.0,0.0,0.0,0.0,0.0,0.0,0.0,0.0,-5.5703,-5.5703,-5.5703,-5.5703,-5.5703,-5.5934,-5.6406,-5.6791,-5.7253,-5.7703,-5.7627,-5.7126,-5.6291,-5.5857,-5.5703,-5.5742,-5.6214,-5.6406,-5.6445,0.0,0.0,0.0,0.0,0.0,0.0,0.0,0.0,0.0,0.0,-5.6011,-5.5934,-5.7203,0.0,0.0,0.0,0.0,0.0,-5.7588,-5.7973,-5.8511,-5.9435,-5.9358,-5.905,-5.905,-5.8357,-5.7627,-5.7203,0.0,0.0,0.0,0.0,-6.0242,-6.3858,0.0,0.0,0.0,0.0,0.0,0.0,0.0,0.0,0.0,0.0,0.0,0.0,0.0,0.0,-8.1631,-8.1285,-8.1093,-8.1093,-8.1093,-8.1093,-8.1093,-8.1093,-8.1093,-8.1093,-8.1093,-8.1093,-8.1093,-8.1093,-8.0823,-8.04,0.0,-8.0015,-8.0323,-7.9477,-7.9592,-8.0362,-7.9862,-7.9708,-7.9592,-7.8746,-7.8438,-7.8284,0.0,0.0,0.0,0.0,0.0,0.0,0.0,0.0,0.0,0.0,0.0,0.0,0.0,0.0,0.0,0.0,0.0,0.0,0.0,0.0,-5.5703,-5.5703,-5.5703,-5.5703,-5.5703,-5.5895,-5.6434,-5.7291,-5.7715,-5.8242,-5.8858,-5.778,-5.683,-5.6011,-5.578,-5.5818,-5.6049,-5.6714,-5.7137,-5.7368,0.0,0.0,0.0,0.0,0.0,0.0,0.0,0.0,0.0,0.0,0.0,0.0,0.0,0.0,0.0,-5.805,-5.8165,-5.8011,-5.8011,-5.8127,-5.8665,-6.0127,-6.0358,-6.0435,-6.1204,-6.0589,-5.9742,-5.9511,-5.8781,0.0,0.0,-5.9511,0.0,0.0,0.0,0.0,0.0,0.0,0.0,0.0,0.0,0.0,0.0,0.0,0.0,0.0,0.0,0.0,-8.1093,-8.1093,-8.1093,-8.1093,-8.1093,-8.1016,-8.0785,-8.0785,-8.09,-8.1093,-8.1093,-8.0977,-8.0785,-8.0785,-8.0323,-7.9477,-7.9285,-7.9323,-7.9438,-7.8554,-7.8707,-7.9438,-7.8746,-7.8361,-7.813,-7.7515,-7.7169,-7.6899,0.0,0.0,0.0,0.0,0.0,0.0,0.0,0.0,0.0,0.0,0.0,0.0,0.0,0.0,0.0,0.0,0.0,0.0,0.0,0.0,-5.5703,-5.5703,-5.5703,-5.5703,-5.5703,-5.6483,-5.7319,-5.8204,-5.9742,-6.055,-6.0589,-5.8973,-5.7742,-5.6868,-5.6049,-5.6137,-5.6907,-5.6983,-5.7473,-5.8204,-5.828,0.0,0.0,0.0,0.0,0.0,0.0,0.0,0.0,0.0,0.0,0.0,0.0,0.0,-5.7176,-5.805,-5.7742,-5.7099,-5.7099,-5.7665,-5.8511,-5.9396,-5.905,-5.9281,-6.2423,-6.1858,-6.1127,-6.2627,-6.2281,0.0,0.0,-6.0781,0.0,0.0,0.0,0.0,0.0,0.0,0.0,0.0,0.0,0.0,0.0,0.0,0.0,0.0,0.0,0.0,-8.1093,-8.1093,-8.1093,-8.1093,-8.1093,-8.0708,-7.99,-7.99,-8.0285,-8.1093,-8.1093,-8.0669,-7.99,-7.99,-7.9438,-7.8554,-7.7784,-7.79,-7.8515,-7.7707,-7.7861,-7.8592,-7.8515,-7.8015,-7.7361,-7.7323,-7.6784,-7.6092,0.0,0.0,0.0,0.0,0.0,0.0,0.0,0.0,0.0,0.0,0.0,0.0,0.0,0.0,0.0,0.0,0.0,0.0,0.0,0.0,-5.5703,-5.5703,-5.5703,-5.5703,-5.5703,-5.7088,-5.8473,-5.9858,-6.1012,-6.105,-5.9973,-5.8819,-5.7819,-5.6983,-5.6676,-5.6973,-5.7857,-5.8357,-5.8742,-5.9088,-5.9627,-5.9511,0.0,0.0,0.0,0.0,0.0,0.0,0.0,0.0,-5.5972,-5.5818,-5.6472,-5.6819,-5.6945,-5.6742,-5.6819,-5.6868,-5.6329,-5.6819,-5.7703,-5.855,-5.855,-5.9473,-6.3897,-6.4436,-6.4166,-6.4782,-6.5513,-6.5667,0.0,0.0,0.0,0.0,0.0,0.0,0.0,0.0,0.0,0.0,0.0,0.0,0.0,0.0,0.0,0.0,0.0,0.0,0.0,-8.0285,-8.0054,-7.9477,-7.9477,-7.9323,-7.8977,-7.8977,-7.9169,-7.9477,-7.9477,-7.9323,-7.8977,-7.8977,-7.8554,-7.7746,-7.7438,-7.7476,-7.7669,-7.6823,-7.6976,-7.7707,-7.7169,-7.6746,-7.6476,-7.6476,-7.6284,-7.6015,0.0,0.0,0.0,0.0,0.0,0.0,0.0,0.0,0.0,0.0,0.0,0.0,0.0,0.0,0.0,0.0,0.0,0.0,-5.5703,-5.5703,-5.5703,-5.5703,-5.5703,-5.5818,-5.6088,-5.778,-5.9396,-6.0781,-6.1935,-6.1473,-5.9473,-5.8934,-5.8088,-5.7022,-5.728,-5.7896,-5.8704,-5.9281,-5.9665,-5.9973,-6.055,-6.0435,0.0,0.0,0.0,0.0,0.0,0.0,0.0,0.0,-5.6319,-5.6088,-5.6088,-5.6522,-5.6868,-5.6291,-5.6522,-5.683,-5.5934,-5.6137,-5.6791,-5.7665,-5.8088,-5.9704,-6.5051,-6.6282,-6.6667,-6.8013,-6.8129,-6.7975,-6.7936,0.0,0.0,0.0,0.0,0.0,0.0,0.0,0.0,0.0,0.0,0.0,0.0,0.0,0.0,0.0,0.0,0.0,0.0,-7.94,-7.9131,-7.853,-7.8477,-7.8361,-7.813,-7.813,-7.7823,-7.7284,-7.7284,-7.7592,-7.813,-7.813,-7.7669,-7.6899,-7.6899,-7.6899,-7.6823,-7.6245,-7.6361,-7.6823,-7.6245,-7.6015,-7.6015,-7.6015,-7.6015,-7.6015,0.0,0.0,0.0,0.0,0.0,0.0,0.0,0.0,0.0,0.0,0.0,0.0,0.0,0.0,0.0,0.0,0.0,0.0,-5.5703,-5.5703,-5.5703,-5.5703,-5.5703,-5.6088,-5.6983,-5.8627,-5.9935,-6.0819,-6.2474,-6.1973,-5.9511,-5.9511,-5.8627,-5.706,-5.7934,-5.8781,-5.9511,-5.9511,-6.0012,-6.0781,-6.0781,-6.0781,-6.0781,0.0,0.0,0.0,0.0,0.0,0.0,0.0,-5.7703,0.0,0.0,0.0,-5.6983,-5.6983,-5.6983,-5.6791,-5.5934,-5.5703,-5.5934,-5.6791,-5.7665,-5.9896,-6.5743,-6.709,-6.8321,-7.2629,-7.0129,-6.7667,-6.9436,-6.8321,0.0,0.0,0.0,0.0,0.0,0.0,0.0,0.0,0.0,0.0,0.0,0.0,0.0,0.0,0.0,0.0,0.0,-7.8477,-7.8477,-7.8438,-7.8438,-7.8054,-7.7284,-7.7246,-7.6399,-7.4707,-7.4707,-7.5592,-7.7284,-7.7284,-7.6823,-7.6015,-7.6015,-7.6015,-7.6015,-7.6015,-7.6015,-7.6015,-7.6015,-7.6015,-7.6015,-7.6015,-7.6015,-7.6015,0.0,0.0,0.0,0.0,0.0,0.0,0.0,0.0,0.0,0.0,0.0,0.0,0.0,0.0,0.0,0.0,0.0,0.0,-5.5703,-5.5703,-5.5703,-5.5703,-5.5703,-5.5818,-5.6088,-5.778,-5.9665,-6.1716,-6.1589,-6.0858,-5.9511,-5.9511,-5.955,-5.9704,-6.0589,-6.11,-6.132,-6.132,-6.1127,-6.0781,-6.0781,-6.0781,-6.0781,0.0,0.0,0.0,0.0,0.0,0.0,0.0,0.0,0.0,0.0,0.0,-5.6088,-5.6088,-5.6088,-5.6011,-5.578,-5.6588,-5.7588,-5.7857,-5.9473,-6.205,-6.6167,-6.6667,-6.7782,-7.3245,-7.2399,-7.1014,-7.2168,0.0,0.0,0.0,0.0,0.0,0.0,0.0,0.0,0.0,0.0,0.0,0.0,0.0,0.0,0.0,0.0,0.0,0.0,-7.6746,-7.6207,-7.5014,-7.4976,-7.4861,-7.463,-7.463,-7.4361,-7.386,-7.386,-7.4437,-7.5476,-7.5476,-7.5668,-7.6015,-7.6015,-7.6015,-7.6015,-7.6015,-7.6015,-7.6015,-7.6015,-7.6015,-7.6015,-7.6015,-7.6015,-7.6015,0.0,0.0,0.0,0.0,0.0,0.0,0.0,0.0,0.0,0.0,-5.0712,-5.0827,0.0,0.0,0.0,0.0,0.0,0.0,0.0,0.0,-5.5703,-5.5703,-5.5703,-5.5857,-5.6214,-5.7242,-5.855,-6.0062,-6.0204,-5.9858,-5.905,-5.9704,-6.0281,-6.0858,-6.205,-6.2397,-6.2101,-6.2101,-6.1601,-6.0819,-6.1166,-6.1089,-6.0819,0.0,0.0,0.0,0.0,0.0,0.0,0.0,0.0,0.0,-5.7214,-5.6637,-5.6137,-5.578,-5.5703,-5.5857,-5.6549,-5.7242,-5.8204,-5.9858,-6.1435,-6.3474,-6.6859,0.0,0.0,0.0,-7.4591,-7.3476,-7.4322,0.0,0.0,0.0,0.0,0.0,0.0,0.0,0.0,0.0,0.0,0.0,0.0,0.0,0.0,0.0,0.0,0.0,0.0,-7.5014,-7.4553,-7.3538,-7.3514,-7.3514,-7.3514,-7.3514,-7.3322,-7.2976,-7.2976,-7.3245,-7.3707,-7.4091,-7.4514,-7.5014,-7.5014,-7.5014,-7.5014,-7.5014,-7.5014,-7.5053,-7.5361,-7.5476,-7.5515,-7.5861,-7.6015,-7.6015,0.0,0.0,0.0,0.0,0.0,0.0,0.0,0.0,0.0,0.0,-5.0943,-5.1202,0.0,0.0,0.0,0.0,0.0,0.0,0.0,0.0,-5.5703,-5.5703,-5.5703,-5.6049,-5.6868,-5.6945,-5.6983,-5.6983,-5.8588,-5.9011,-5.8357,-6.0089,-6.0973,-6.1089,-6.2781,-6.3051,-6.2216,-6.2216,-6.1666,-6.0858,-6.1678,-6.1524,-6.0896,-6.1678,0.0,0.0,0.0,0.0,0.0,0.0,0.0,0.0,-5.7627,-5.706,-5.683,-5.5972,-5.5742,-5.6165,-5.7857,-5.7819,-5.833,-6.2397,-6.3692,0.0,-6.8115,-7.3168,-7.7361,-7.7938,0.0,-7.5168,0.0,0.0,0.0,0.0,0.0,0.0,0.0,0.0,0.0,0.0,0.0,0.0,0.0,0.0,0.0,0.0,0.0,0.0,0.0,-7.3206,-7.3154,-7.3154,-7.3091,-7.3091,-7.3154,-7.3154,-7.2745,-7.1975,-7.1975,-7.1975,-7.2014,-7.2937,-7.3437,-7.3514,-7.3514,-7.3514,-7.3514,-7.3514,-7.3514,-7.3591,-7.4322,-7.4591,-7.4707,-7.5476,-7.5822,-7.5861,0.0,0.0,0.0,0.0,0.0,0.0,0.0,0.0,0.0,0.0,0.0,0.0,0.0,0.0,0.0,0.0,0.0,0.0,0.0,0.0,-5.5703,-5.5703,-5.5703,-5.578,-5.5972,-5.6637,-5.6983,-5.6983,-5.805,-5.8473,-5.8357,-6.0704,-6.2166,-6.2858,-6.4589,-6.4474,-6.3051,-6.3051,-6.2166,-6.0819,-6.1012,-6.0973,-6.0819,-6.1012,-6.0858,0.0,0.0,0.0,0.0,0.0,0.0,0.0,-5.8319,-5.755,-5.683,-5.5972,-5.6165,-5.6934,-5.8011,-5.9127,0.0,-6.3589,-6.6821,-6.9821,-7.1937,-7.4399,-7.5976,-7.4822,-7.5745,0.0,0.0,0.0,0.0,0.0,0.0,0.0,0.0,0.0,0.0,0.0,0.0,0.0,0.0,0.0,0.0,0.0,0.0,0.0,-7.1514,-7.086,-7.0514,-7.0514,-6.986,-6.9821,-7.0514,-7.0514,-7.0437,0.0,-7.0244,-7.0244,-7.0283,-7.1783,-7.286,-7.3514,-7.3514,-7.3514,-7.3514,-7.3514,-7.3514,-7.3514,-7.3707,-7.3783,-7.3783,-7.3976,-7.4437,-7.4899,0.0,0.0,0.0,0.0,0.0,0.0,0.0,0.0,0.0,0.0,0.0,0.0,0.0,0.0,0.0,0.0,0.0,0.0,0.0,0.0,0.0,-5.5703,-5.6088,-5.6329,-5.6329,-5.7165,-5.7627,-5.7627,-5.8473,-5.8858,-5.8934,-6.1089,-6.2512,-6.3397,-6.5128,-6.4936,-6.3308,-6.3308,-6.232,-6.0819,-6.1243,-6.1166,-6.0858,-6.1243,-6.1166,-6.0781,-6.0781,0.0,0.0,0.0,0.0,0.0,0.0,0.0,-5.7434,-5.6588,-5.6368,-5.6742,-5.8434,0.0,0.0,-6.4859,0.0,-7.1745,-7.2668,-7.3899,-7.4553,-7.3668,0.0,0.0,0.0,0.0,0.0,0.0,0.0,0.0,0.0,0.0,0.0,0.0,0.0,0.0,0.0,0.0,0.0,0.0,0.0,-7.0167,-6.9744,-6.9321,-6.909,-6.909,-6.8629,-6.8629,-6.909,-6.909,-6.909,-6.909,-6.909,-6.909,-6.9129,-6.9975,-7.086,-7.1668,-7.1668,-7.1898,-7.2245,-7.2245,-7.2245,-7.2322,-7.2706,-7.2899,-7.2937,-7.336,-7.3783,-7.4091,0.0,0.0,0.0,0.0,0.0,0.0,0.0,0.0,0.0,0.0,0.0,0.0,0.0,0.0,0.0,0.0,0.0,0.0,0.0,0.0,0.0,0.0,-5.6522,-5.6983,-5.6983,-5.7973,-5.8511,-5.8511,-5.9319,-5.9819,-5.9973,-6.155,-6.2743,-6.3577,-6.5205,-6.5013,-6.3512,-6.3346,-6.2435,-6.105,-6.1639,-6.1435,-6.0858,-6.1601,-6.1435,-6.0781,-6.0781,-6.0781,-6.0781,-6.0781,0.0,0.0,0.0,0.0,-5.8127,-5.7253,-5.6483,0.0,0.0,-5.9819,-6.1435,-6.5782,-6.936,0.0,-7.1937,-7.2668,-7.3322,-7.3476,0.0,0.0,0.0,0.0,0.0,0.0,0.0,0.0,0.0,0.0,0.0,0.0,0.0,0.0,0.0,0.0,0.0,0.0,0.0,-6.8167,-6.8167,-6.7898,-6.7898,-6.8167,-6.7898,-6.7821,-6.7975,-6.7975,-6.7975,-6.7975,-6.8129,-6.809,-6.7975,-6.7975,-6.8513,-6.9475,-6.9475,-6.986,-7.0475,-7.0629,-7.0706,-7.0783,-7.1629,-7.1975,-7.2052,-7.2783,-7.3168,-7.3245,0.0,0.0,0.0,0.0,0.0,0.0,0.0,0.0,0.0,0.0,-5.5357,-5.5395,0.0,0.0,0.0,0.0,0.0,0.0,0.0,0.0,0.0,-5.5703,-5.6522,-5.6983,-5.6983,-5.855,-5.9358,-5.9358,-6.0204,-6.1012,-6.1793,-6.2704,-6.3589,-6.4474,-6.5474,-6.5359,-6.4397,-6.3628,-6.2781,-6.187,-6.1243,-6.0896,-6.0819,-6.0935,-6.0896,-6.0781,-6.0781,-6.0781,-6.0781,-6.0781,-6.0781,0.0,0.0,0.0,0.0,-5.7253,-5.6907,0.0,0.0,0.0,-6.4243,0.0,-6.8052,-7.0206,0.0,0.0,-7.2591,0.0,0.0,0.0,0.0,0.0,0.0,0.0,0.0,0.0,0.0,0.0,0.0,0.0,0.0,0.0,0.0,0.0,0.0,0.0,-6.7705,-6.7282,-6.7282,-6.5897,-6.5782,-6.7244,-6.5859,-6.5474,-6.6244,-6.6244,-6.6244,-6.6244,-6.6936,-6.6898,-6.6244,-6.6244,-6.709,-6.8577,-6.8577,-6.8615,-6.8783,-6.9552,-6.986,-6.9937,-7.0744,-7.1052,-7.1091,-7.1206,-7.1745,-7.2283,0.0,0.0,0.0,0.0,0.0,0.0,0.0,0.0,0.0,0.0,0.0,-5.5703,0.0,0.0,0.0,0.0,0.0,0.0,0.0,0.0,0.0,-5.6406,-5.7242,-5.7934,-5.8396,-5.9588,-6.0242,-6.0242,-6.0589,-6.1473,-6.2781,-6.3628,-6.4243,-6.4628,-6.5513,-6.5436,-6.4551,-6.3666,-6.2858,-6.2024,-6.1127,-6.1089,-6.1485,-6.0973,-6.1089,-6.1447,-6.0973,-6.0781,-6.0781,-6.0781,-6.0781,-6.0666,-5.9781,0.0,0.0,0.0,0.0,0.0,-5.8473,-6.105,-6.3628,0.0,-6.709,-6.8475,-6.9321,0.0,0.0,0.0,0.0,0.0,0.0,0.0,0.0,0.0,0.0,0.0,0.0,0.0,0.0,0.0,0.0,0.0,0.0,0.0,0.0,0.0,-6.5474,-6.4974,-6.4974,-6.4282,-6.4205,-6.4936,-6.4282,-6.4051,-6.4436,-6.4436,-6.4436,-6.4436,-6.482,-6.5051,-6.5166,-6.5166,-6.609,-6.7667,-6.7667,-6.7936,-6.8436,-6.8821,-6.9244,-6.9744,-7.009,-7.0514,-7.0898,-7.0898,-7.1129,-7.1398,0.0,0.0,0.0,0.0,0.0,0.0,0.0,0.0,0.0,0.0,0.0,0.0,0.0,0.0,0.0,0.0,0.0,0.0,0.0,0.0,0.0,-5.6945,-5.7819,-5.8665,-5.9473,-6.0358,-6.0781,-6.0781,-6.0781,-6.1666,-6.332,-6.4205,-6.482,-6.5282,-6.6167,-6.6282,-6.582,-6.4512,-6.3628,-6.2986,-6.1858,-6.1704,-6.2024,-6.1358,-6.1524,-6.1985,-6.1089,-6.0781,-6.0781,-6.0781,-6.0781,-6.0704,-6.005,0.0,0.0,0.0,0.0,0.0,0.0,0.0,-6.1704,-6.4012,-6.5359,-6.6436,0.0,0.0,0.0,0.0,0.0,0.0,0.0,0.0,0.0,0.0,0.0,0.0,0.0,0.0,0.0,0.0,0.0,0.0,0.0,0.0,0.0,0.0,-6.3666,-6.3308,-6.3308,-6.3128,-6.3089,-6.3269,-6.3089,-6.3012,-6.3012,-6.3012,-6.3012,-6.3012,-6.3192,-6.3628,-6.4282,-6.4512,-6.5282,-6.6474,-6.6705,-6.7167,-6.7782,-6.7975,-6.8436,-6.9052,-6.9283,-6.986,-7.0591,-7.0591,-7.0706,-7.0898,0.0,0.0,0.0,0.0,0.0,0.0,0.0,0.0,0.0,0.0,0.0,0.0,0.0,-5.5703,-5.5703,-5.5703,0.0,0.0,0.0,0.0,0.0,-5.6945,-5.7819,0.0,-5.9473,-6.0358,-6.0781,-6.0781,-6.0781,-6.1666,-6.332,-6.4205,-6.5436,-6.7013,-6.7898,-6.8706,-6.9283,-6.6821,-6.5743,-6.5551,-6.3858,-6.2743,-6.2101,-6.2062,-6.2062,-6.1985,-6.1089,-6.0781,-6.0781,-6.0781,-6.0781,-6.0781,-6.0742,0.0,0.0,0.0,0.0,0.0,0.0,-5.778,0.0,-6.0627,-6.2281,0.0,0.0,0.0,0.0,0.0,0.0,0.0,0.0,0.0,0.0,0.0,0.0,0.0,0.0,0.0,0.0,0.0,0.0,0.0,0.0,0.0,0.0,0.0,-6.332,-6.3308,-6.3308,-6.2589,-6.2512,-6.3281,-6.2551,-6.2178,-6.2178,-6.2178,-6.2178,-6.2178,-6.2935,-6.332,-6.3397,-6.4205,-6.4666,-6.4782,-6.559,-6.5974,-6.609,-6.6859,-6.7167,-6.7321,-6.8129,-6.9013,-6.9744,-6.9744,-7.0244,-7.0898,0.0,0.0,0.0,0.0,0.0,0.0,0.0,0.0,0.0,0.0,0.0,0.0,0.0,-5.5703,-5.5703,-5.5703,-5.5703,0.0,0.0,0.0,0.0,-5.778,-5.8627,-5.9473,-6.0319,-6.0627,-6.0781,-6.0781,-6.0781,-6.1666,-6.332,-6.4205,-6.5782,-6.7936,-6.8282,-6.8244,-6.7936,-6.6513,-6.559,-6.5013,-6.4397,-6.3974,-6.3628,-6.3089,-6.3205,-6.3589,0.0,0.0,0.0,0.0,0.0,0.0,0.0,0.0,0.0,0.0,0.0,0.0,0.0,0.0,0.0,-5.955,-6.0858,-6.2012,0.0,0.0,0.0,0.0,0.0,0.0,0.0,0.0,0.0,0.0,0.0,0.0,0.0,0.0,0.0,0.0,0.0,0.0,0.0,0.0,0.0,0.0,0.0,-6.1704,-6.1704,-6.1435,-6.1396,-6.1704,-6.1435,-6.1281,-6.1281,-6.1281,-6.1281,-6.1281,-6.155,-6.1973,-6.2551,-6.3397,-6.4089,-6.4666,-6.5513,-6.5897,-6.5897,-6.6205,-6.6628,-6.7128,-6.7436,-6.809,-6.8936,-6.9475,-6.9898,-7.0206,0.0,0.0,0.0,0.0,0.0,0.0,0.0,0.0,0.0,0.0,0.0,0.0,0.0,0.0,-5.6242,-5.6549,-5.6588,-5.6588,-5.6588,-5.7088,-5.7819,-5.8665,-5.9204,-5.9896,-6.0781,-6.0781,-6.0781,-6.0781,-6.0781,-6.1512,-6.2935,-6.4089,-6.5667,-6.759,-6.8167,-6.8552,-6.8744,-6.7628,-6.6667,-6.5859,-6.5551,-6.5436,-6.5397,-6.5128,-6.5359,0.0,0.0,0.0,0.0,0.0,0.0,0.0,0.0,0.0,0.0,0.0,0.0,0.0,-5.6406,0.0,0.0,0.0,0.0,-5.9896,0.0,0.0,0.0,0.0,0.0,0.0,0.0,0.0,0.0,0.0,0.0,0.0,0.0,0.0,0.0,0.0,0.0,0.0,0.0,0.0,0.0,0.0,0.0,0.0,-6.0781,-6.0781,-6.0781,-6.0781,-6.0781,-6.0781,-6.0781,-6.0781,-6.0781,-6.0781,-6.0781,-6.1089,-6.1678,-6.2512,-6.3205,-6.382,-6.4974,-6.5628,-6.5897,-6.5897,-6.6205,-6.6705,-6.6705,-6.7205,-6.809,-6.8936,-6.9436,-6.9821,0.0,0.0,0.0,0.0,0.0,0.0,0.0,0.0,0.0,-5.5703,0.0,0.0,0.0,0.0,0.0,-5.8242,-5.8319,-5.8319,-5.8319,-5.8319,-5.8665,-5.9473,0.0,0.0,0.0,0.0,0.0,0.0,0.0,0.0,-6.2178,-6.3782,-6.5051,-6.5974,-6.7628,-6.9706,-7.1898,-7.0283,-6.9167,-6.8321,-6.7475,-6.7128,-6.7282,0.0,0.0,0.0,-6.7475,-6.6628,0.0,-6.5974,0.0,0.0,0.0,0.0,0.0,0.0,0.0,0.0,0.0,0.0,0.0,0.0,0.0,0.0,0.0,0.0,0.0,0.0,0.0,0.0,0.0,0.0,0.0,0.0,0.0,0.0,0.0,0.0,0.0,0.0,0.0,0.0,0.0,0.0,0.0,0.0,-6.0781,-6.0781,-6.0781,-6.0781,-6.0781,-6.0781,-6.0781,-6.0781,-6.0781,-6.0781,-6.0781,-6.0781,-6.0781,-6.0781,-6.0819,-6.1716,-6.2101,-6.2178,-6.3858,-6.5051,-6.5859,-6.5897,-6.5897,-6.5897,-6.5897,-6.6359,-6.7167,-6.809,-6.8936,-6.9744,0.0,0.0,0.0,0.0,0.0,0.0,0.0,0.0,0.0,0.0,0.0,0.0,-5.6983,-5.8088,-5.8665,-5.8319,-5.8819,-5.8934,-5.8357,-5.8858,-5.9281,-5.9473,-6.0089,-6.0858,-6.1716,0.0,0.0,0.0,0.0,0.0,0.0,0.0,0.0,0.0,-6.6974,-6.7513,-6.7628,-6.7782,0.0,-6.8385,-6.8129,-6.8436,0.0,0.0,0.0,0.0,0.0,-6.8013,-6.6859,0.0,-6.632,-6.4243,0.0,0.0,0.0,0.0,0.0,0.0,-5.5703,0.0,0.0,0.0,0.0,0.0,0.0,0.0,0.0,0.0,0.0,0.0,0.0,0.0,0.0,0.0,0.0,0.0,0.0,0.0,0.0,0.0,0.0,0.0,0.0,0.0,0.0,0.0,-6.0781,-6.0781,-6.0781,-6.0781,-6.0781,-6.0781,-6.0781,-6.0781,-6.0781,-6.0781,-6.0781,-6.0781,-6.0781,-6.0781,-6.0819,-6.1716,-6.2101,-6.2178,-6.3205,-6.4166,-6.5013,-6.5628,-6.5897,-6.5897,-6.5897,-6.6051,-6.6397,-6.7859,-6.8167,-6.809,0.0,0.0,0.0,0.0,0.0,0.0,0.0,0.0,0.0,0.0,0.0,0.0,-5.8523,-6.0089,-6.0896,-6.0435,-6.0819,-6.0896,-6.0435,-6.0819,-6.0935,-6.0589,-6.1396,-6.1935,-6.2101,-6.1935,0.0,0.0,0.0,0.0,0.0,0.0,0.0,0.0,0.0,0.0,0.0,0.0,0.0,0.0,-6.8513,0.0,0.0,-7.0821,-7.1052,0.0,0.0,0.0,-7.0244,-7.0052,-6.8052,0.0,0.0,0.0,0.0,0.0,0.0,0.0,0.0,0.0,0.0,0.0,0.0,0.0,-5.7357,-5.7934,0.0,0.0,0.0,0.0,0.0,0.0,0.0,0.0,0.0,0.0,0.0,0.0,0.0,0.0,0.0,0.0,0.0,-5.9742,-5.9742,-5.9742,-6.005,-6.0435,-6.0781,-6.0781,-6.0781,-6.0781,-6.0781,-6.0781,-6.0781,-6.0781,-6.0781,-6.0781,-6.0781,-6.0781,-6.0819,-6.132,-6.1562,-6.1589,-6.2435,-6.3089,-6.3628,-6.4474,-6.5243,-6.5897,-6.5897,-6.5897,-6.6051,-6.7359,-6.7552,-6.7359,0.0,0.0,0.0,0.0,0.0,0.0,0.0,0.0,0.0,0.0,0.0,-5.9242,-6.1012,-6.2551,-6.3435,-6.3435,-6.3435,-6.3385,-6.3308,-6.3308,-6.2974,-6.2255,-6.2935,-6.3012,-6.2409,-6.2974,0.0,0.0,0.0,0.0,0.0,0.0,0.0,0.0,0.0,0.0,0.0,0.0,0.0,-6.6128,-6.8667,-7.0244,0.0,0.0,-7.4707,-7.4707,-7.4822,-7.4784,-7.4437,-7.2552,-6.9706,0.0,0.0,0.0,0.0,0.0,-5.7896,0.0,0.0,0.0,0.0,0.0,0.0,0.0,-5.7703,-5.8088,-5.855,0.0,0.0,0.0,0.0,0.0,0.0,0.0,0.0,0.0,0.0,0.0,0.0,0.0,0.0,0.0,-5.8511,-5.8357,-5.8319,-5.8319,-5.8973,-5.9704,-6.0473,-6.0512,-6.0512,-6.0512,-6.0589,-6.0666,-6.0666,-6.0742,-6.0781,-6.0781,-6.0781,-6.0781,-6.0781,-6.0781,-6.0781,-6.0819,-6.1639,-6.2024,-6.2178,-6.2858,-6.4205,-6.5743,-6.5743,-6.582,-6.6013,-6.6782,-6.7051,-6.709,0.0,0.0,0.0,0.0,0.0,0.0,0.0,0.0,0.0,0.0,0.0,-6.1204,-6.3589,-6.4166,-6.4359,0.0,-6.4359,-6.4051,-6.3346,-6.3308,-6.3243,-6.3089,-6.3243,-6.3551,-6.4089,-6.3589,-6.3589,0.0,0.0,0.0,0.0,0.0,0.0,0.0,0.0,0.0,0.0,0.0,0.0,-6.6128,-6.8667,0.0,-7.2129,-7.4014,-7.4707,-7.4784,-7.5476,-7.5284,-7.4245,-7.1206,-6.8398,-6.5782,0.0,0.0,0.0,-5.9781,0.0,0.0,0.0,0.0,0.0,0.0,0.0,0.0,-5.6434,-5.6742,-5.7137,0.0,0.0,0.0,0.0,0.0,0.0,0.0,0.0,0.0,0.0,0.0,0.0,0.0,0.0,0.0,-5.9281,-5.8665,-5.8319,-5.8319,-5.8434,-5.8627,-5.8781,-5.8781,-5.8781,-5.8781,-5.9435,-5.9742,-5.9742,-6.0435,-6.0781,-6.0781,-6.0781,-6.0781,-6.0781,-6.0781,-6.0781,-6.0819,-6.0973,-6.1447,-6.2101,-6.2293,-6.332,-6.4859,-6.4859,-6.5282,-6.6013,-6.6782,-6.6667,-6.6359,0.0,0.0,0.0,0.0,0.0,0.0,0.0,0.0,0.0,0.0,-6.2897,-6.4282,-6.5166,-6.559,-6.5705,0.0,0.0,0.0,0.0,-6.4589,-6.4397,-6.3974,-6.4359,-6.4589,-6.4589,-6.4589,-6.4589,-6.4589,0.0,0.0,0.0,0.0,0.0,0.0,0.0,0.0,0.0,0.0,-6.4705,-6.6167,-6.909,0.0,-7.3091,-7.5207,-7.5745,-7.5476,-7.6322,-7.5822,-7.4322,-7.1783,-6.9552,0.0,0.0,-6.3666,-6.3012,0.0,-6.0473,-5.9973,0.0,0.0,0.0,-5.7742,0.0,0.0,0.0,-5.7011,-5.7022,0.0,0.0,0.0,0.0,0.0,0.0,0.0,0.0,0.0,0.0,0.0,0.0,0.0,0.0,0.0,-5.7665,-5.7242,-5.7165,-5.7627,-5.7665,-5.7857,-5.828,-5.8319,-5.8319,-5.8319,-5.9088,-5.9511,-5.9511,-6.0358,-6.0781,-6.0781,-6.0781,-6.0781,-6.0781,-6.0781,-6.0781,-6.0781,-6.0781,-6.105,-6.1447,-6.1447,-6.2204,-6.3435,-6.4282,-6.4859,-6.5359,-6.6205,-6.6244,-6.6013,0.0,0.0,0.0,0.0,0.0,0.0,0.0,0.0,0.0,0.0,-6.5782,-6.6551,-6.6397,0.0,0.0,0.0,0.0,0.0,0.0,-6.632,-6.5743,-6.4897,-6.5513,-6.5551,-6.4859,-6.5551,-6.5551,-6.4859,0.0,0.0,0.0,0.0,0.0,0.0,0.0,0.0,0.0,0.0,0.0,-6.709,0.0,-7.1898,-7.3322,-7.6207,-7.6746,-7.6092,-7.6976,-7.6169,-7.4437,-7.2552,-7.0937,-6.909,-6.5667,-6.4705,0.0,0.0,0.0,0.0,0.0,0.0,0.0,0.0,0.0,-5.7791,0.0,0.0,0.0,0.0,0.0,0.0,0.0,0.0,0.0,0.0,0.0,0.0,0.0,0.0,0.0,0.0,0.0,0.0,0.0,-5.5549,-5.5818,-5.6676,-5.6599,-5.6896,-5.7742,-5.7819,-5.7819,-5.7819,-5.8588,-5.9088,-5.9281,-6.0127,-6.0627,-6.0781,-6.0781,-6.0781,-6.0781,-6.0781,-6.0781,-6.0781,-6.0781,-6.0781,-6.0781,-6.0781,-6.1204,-6.1985,-6.3512,-6.4205,-6.4474,-6.532,-6.5628,-6.5667,-5.5703,-5.5703,0.0,0.0,0.0,0.0,0.0,0.0,0.0,0.0,0.0,0.0,0.0,0.0,0.0,0.0,0.0,0.0,-6.9206,0.0,-6.659,-6.5782,-6.5859,-6.5859,-6.5743,-6.5859,-6.5859,-6.5743,0.0,0.0,0.0,0.0,0.0,0.0,-6.5743,0.0,0.0,0.0,-6.8167,0.0,-7.1591,-7.1706,0.0,-7.5745,-7.6746,-7.6092,-7.6976,-7.6169,-7.4322,0.0,-7.0437,-6.909,0.0,-6.5128,-6.5397,-6.3666,0.0,0.0,0.0,0.0,0.0,0.0,-5.9858,0.0,0.0,0.0,0.0,0.0,0.0,0.0,0.0,0.0,0.0,0.0,0.0,0.0,0.0,0.0,0.0,0.0,0.0,0.0,0.0,-5.5049,-5.4972,-5.578,-5.5203,-5.5126,-5.5934,-5.6011,-5.6011,-5.6011,-5.683,-5.7627,-5.8434,-5.9242,-6.005,-6.0781,-6.0781,-6.0781,-6.0781,-6.0781,-6.0781,-6.0781,-6.0781,-6.0781,-6.0781,-6.0781,-6.0858,-6.105,-6.2012,-6.282,-6.3551,-6.4436,-6.4743,-6.4859,-5.5703,-5.6088,0.0,0.0,0.0,0.0,0.0,0.0,0.0,0.0,0.0,0.0,0.0,0.0,0.0,0.0,0.0,-6.9321,0.0,0.0,0.0,-6.809,-6.7628,-6.7359,-6.7359,-6.6859,-6.6359,-6.5897,-6.5897,0.0,0.0,0.0,0.0,0.0,-6.6167,0.0,-6.6628,0.0,-6.9013,0.0,0.0,0.0,0.0,-7.5861,-7.7053,-7.6746,-7.6592,-7.6092,-7.5053,0.0,-7.1091,0.0,0.0,0.0,0.0,0.0,0.0,0.0,0.0,0.0,0.0,0.0,0.0,0.0,-5.7484,0.0,-5.606,0.0,0.0,0.0,0.0,0.0,0.0,0.0,0.0,0.0,0.0,0.0,0.0,0.0,0.0,0.0,0.0,0.0,0.0,0.0,-5.4934,-5.4857,-5.5665,-5.5703,-5.5703,-5.5703,-5.7049,-5.7934,-5.8319,-5.9588,-6.0435,-6.0781,-6.0781,-6.0781,-6.0781,-6.0781,-6.0781,-6.0781,-6.0781,-6.0781,-6.0781,-6.0781,-6.0781,-6.0819,-6.1204,-6.1858,-6.2781,-6.4128,-6.4589,-6.4705,-5.6049,0.0,0.0,0.0,0.0,0.0,-6.1831,-6.4551,-6.6359,-6.6244,0.0,0.0,-7.1206,-7.186,0.0,0.0,-7.2322,-7.1706,0.0,0.0,-6.9321,0.0,0.0,0.0,-6.8052,-6.7667,-6.6936,-6.5897,-6.5897,0.0,0.0,0.0,0.0,0.0,0.0,-6.7821,-6.7898,0.0,-7.0629,-7.2014,-7.2629,-7.2899,-7.3168,-7.563,-7.6592,-7.6515,-7.5861,-7.563,-7.5245,-7.2706,-7.1398,0.0,-6.8167,0.0,0.0,0.0,0.0,0.0,-6.1935,0.0,0.0,0.0,0.0,0.0,0.0,0.0,0.0,0.0,0.0,0.0,0.0,0.0,0.0,0.0,0.0,0.0,0.0,0.0,0.0,0.0,0.0,0.0,0.0,0.0,0.0,-5.528,-5.4626,-5.4587,-5.5626,-5.5703,-5.5703,-5.5703,-5.7165,-5.805,-5.8319,-5.9742,-6.055,-6.0781,-6.0781,-6.0781,-6.0781,-6.0781,-6.0781,-6.0781,-6.0781,-6.0781,-6.0781,-6.0781,-6.0781,-6.0781,-6.0781,-6.1166,-6.1935,-6.3628,-6.4243,-6.4397,-5.6945,-5.6983,0.0,0.0,0.0,-6.0089,-6.1831,-6.3551,-6.5243,0.0,0.0,0.0,0.0,0.0,0.0,0.0,0.0,-7.6823,-7.3591,0.0,-7.0591,0.0,0.0,-6.8859,0.0,-6.7936,-6.7552,-6.5897,-6.5897,0.0,0.0,0.0,0.0,0.0,0.0,-6.9629,-6.9783,-7.2283,-7.3822,-7.4591,-7.463,-7.463,-7.463,0.0,-7.4784,-7.4784,-7.4745,0.0,0.0,-7.1783,-7.0937,0.0,0.0,0.0,0.0,0.0,0.0,0.0,0.0,0.0,0.0,-6.0358,0.0,0.0,0.0,0.0,-5.6725,0.0,0.0,0.0,0.0,0.0,0.0,0.0,0.0,0.0,0.0,0.0,0.0,0.0,0.0,0.0,0.0,0.0,0.0,-5.4395,-5.3741,-5.3972,-5.5588,-5.5703,-5.5703,-5.5703,-5.656,-5.7434,-5.828,-5.9127,-5.9973,-6.0781,-6.0781,-6.0781,-6.0781,-6.0781,-6.0781,-6.0781,-6.0781,-6.0781,-6.0781,-6.0781,-6.0781,-6.0781,-6.0781,-6.0819,-6.105,-6.2704,-6.3346,-6.3589,0.0,0.0,0.0,0.0,0.0,-6.0935,-6.2627,-6.4359,-6.6859,0.0,0.0,0.0,0.0,-8.0015,-8.0746,0.0,0.0,-7.9246,-7.6976,-7.5476,0.0,0.0,0.0,-7.1937,0.0,0.0,0.0,0.0,0.0,0.0,0.0,0.0,0.0,0.0,0.0,-6.9475,0.0,0.0,0.0,0.0,0.0,-7.3707,-7.4707,0.0,0.0,-7.4784,-7.5361,-7.5207,0.0,-7.3091,-7.186,-7.0706,-6.9629,-6.8667,-6.7859,-6.7282,-6.6898,0.0,0.0,0.0,-6.5436,-6.205,0.0,0.0,0.0,0.0,0.0,0.0,0.0,0.0,0.0,0.0,0.0,0.0,0.0,0.0,0.0,0.0,0.0,0.0,0.0,0.0,0.0,0.0,0.0,-5.4357,-5.3703,-5.3933,-5.5588,-5.5703,-5.5703,-5.5703,-5.7126,-5.8011,-5.8319,-5.9665,-6.0512,-6.0781,-6.0781,-6.0781,-6.0781,-6.0781,-6.0781,-6.0781,-6.0781,-6.0781,-6.0781,-6.0781,-6.0781,-6.0781,-6.0781,-6.0781,-6.1012,-6.2666,-6.3308,-6.3551,-5.9935,0.0,0.0,0.0,0.0,-6.182,-6.3512,0.0,0.0,0.0,-7.5899,0.0,-8.3555,0.0,-8.4439,0.0,-8.4401,-8.2285,-7.8707,-7.8323,0.0,-7.4399,-7.463,0.0,0.0,0.0,0.0,0.0,0.0,-6.8013,0.0,0.0,0.0,0.0,0.0,-6.9321,-7.0975,0.0,-7.363,0.0,0.0,-7.2668,0.0,0.0,-7.3745,-7.4361,0.0,-7.4553,-7.3668,-7.286,-7.1822,-7.0821,-7.0283,-6.9552,-6.8744,-6.8205,-6.7821,-6.7359,-6.6551,-6.6705,0.0,-6.3281,-6.2512,0.0,-5.8588,0.0,0.0,0.0,0.0,0.0,0.0,0.0,0.0,0.0,0.0,0.0,0.0,0.0,0.0,0.0,0.0,0.0,0.0,0.0,-5.2202,-5.3895,-5.351,-5.3818,0.0,0.0,-5.5703,-5.5703,-5.7396,-5.8319,-5.8319,-5.9973,-6.0781,-6.0781,-6.0781,-6.0781,-6.0781,-6.0781,-6.0781,-6.0781,-6.0781,-6.0781,-6.0781,-6.0781,-6.0781,-6.0781,-6.0781,-6.0781,-6.1012,-6.2666,-6.3705,-6.4359,0.0,0.0,0.0,0.0,-6.1127,0.0,0.0,0.0,-7.3129,0.0,-7.9208,-8.2324,-8.5055,-8.6709,-8.7325,-8.6555,-8.7863,-8.5978,-7.9361,-8.1131,0.0,0.0,-7.613,-7.5861,-7.2591,0.0,0.0,0.0,0.0,0.0,0.0,0.0,0.0,0.0,-6.8385,0.0,-7.0898,-7.2629,-7.4322,-7.5592,-7.3129,-7.1668,-7.1014,-7.0975,-7.2014,-7.3514,-7.3514,-7.2937,-7.2052,-7.1245,-7.0937,-7.0898,-7.0898,-7.0398,-6.9744,-6.9744,-6.9167,-6.8359,-6.7513,-6.7282,-6.6667,-6.4128,0.0,0.0,0.0,0.0,-6.0123,0.0,0.0,0.0,0.0,0.0,0.0,0.0,0.0,0.0,0.0,0.0,0.0,0.0,0.0,0.0,0.0,-5.1203,-5.1395,-5.3087,-5.3164,0.0,0.0,0.0,-5.5665,-5.5742,-5.7396,-5.8319,-5.8357,-5.9973,-6.0781,-6.0781,-6.0781,-6.0781,-6.0781,-6.0781,-6.0781,-6.0781,-6.0781,-6.0781,-6.0781,-6.0781,-6.0781,-6.0781,-6.0781,-6.0858,-6.1127,-6.2704,-6.4397,-6.5782,-6.0973,-6.1781,-6.2781,0.0,-6.3666,-6.4512,0.0,0.0,0.0,0.0,-8.2208,-8.5824,-9.0902,-9.1287,-9.1325,-9.171,-9.0441,0.0,0.0,0.0,0.0,-7.9285,-7.9169,-7.8438,-7.6899,-7.5861,0.0,-7.3091,0.0,0.0,-6.9667,0.0,0.0,0.0,0.0,0.0,-6.9167,-7.086,-7.2206,-7.3053,-7.1745,-7.1898,0.0,0.0,-7.2552,-7.3514,-7.3514,-7.2937,-7.2168,-7.1937,-7.1437,-7.0898,-7.0898,-7.0744,-7.0591,-7.0591,-7.0437,-7.0206,-6.9975,-6.9937,-6.9321,-6.6744,-6.5667,-6.4551,0.0,0.0,0.0,0.0,0.0,0.0,0.0,0.0,0.0,0.0,0.0,0.0,0.0,0.0,0.0,0.0,0.0,0.0,0.0,-5.0808,-5.1395,-5.3087,-5.2577,0.0,0.0,0.0,0.0,-5.6637,-5.7742,-5.8588,-5.9204,-6.0242,-6.0781,-6.0781,-6.0781,-6.0781,-6.0781,-6.0781,-6.0781,-6.0781,-6.0781,-6.0781,-6.0781,-6.0781,-6.0781,-6.0781,-6.0781,-6.155,-6.2704,-6.3115,-6.4397,-6.5859,-6.2627,0.0,0.0,-6.559,0.0,0.0,-6.9706,0.0,0.0,-8.0823,-8.3555,0.0,-9.0479,-9.1556,-9.2095,-9.2556,-9.1287,0.0,-8.7517,0.0,0.0,-8.1785,-8.117,-7.9977,-7.8015,-7.6669,0.0,-7.4168,0.0,0.0,-7.0167,0.0,0.0,0.0,0.0,-6.8244,0.0,-7.1168,-7.2091,-7.2168,-7.1668,0.0,0.0,-7.1668,-7.1937,-7.236,-7.236,-7.2283,-7.2129,-7.1745,-7.1321,-7.0898,-7.0898,-7.0898,-7.0898,-7.0898,-7.0898,-7.0898,-7.0898,-7.0629,-6.9938,-6.8188,-6.7087,-6.5858,-6.3775,-6.2871,-6.2071,0.0,0.0,0.0,0.0,0.0,0.0,0.0,0.0,0.0,0.0,0.0,0.0,0.0,0.0,0.0,0.0,0.0,-5.1241,-5.2538,0.0,0.0,0.0,0.0,0.0,-5.6406,-5.7665,-5.8704,-5.9473,-6.0358,-6.0781,-6.0781,-6.0781,-6.0781,-6.0781,-6.0781,-6.0781,-6.0781,-6.0781,-6.0781,-6.0781,-6.0781,-6.0781,-6.0819,-6.1216,-6.2166,-6.3346,-6.3743,-6.4743,-6.5782,-6.5051,0.0,0.0,0.0,0.0,0.0,0.0,-7.513,0.0,-8.2016,0.0,-8.6324,-8.7902,-9.0056,-9.1364,-9.1364,0.0,-9.0248,-8.8055,-8.8402,-8.694,-8.2978,-8.2593,-8.0977,-7.7861,-7.6746,-7.5399,0.0,0.0,0.0,0.0,0.0,0.0,0.0,0.0,0.0,0.0,-7.1975,-7.2514,-7.1706,-7.1937,-7.1168,-6.9937,-7.0744,-7.1052,-7.1052,-7.1052,-7.1475,-7.1898,-7.1168,-7.0898,-7.0898,-7.0898,-7.0898,-7.0898,-7.0898,-7.0898,-7.0898,-7.0783,-7.0244,-6.9515,-6.8661,-6.7779,-6.6764,-6.5287,-6.4721,-6.3873,-6.1687,-6.1205,-6.0678,0.0,0.0,0.0,0.0,0.0,0.0,0.0,0.0,0.0,0.0,0.0,0.0,0.0,0.0,0.0,0.0,0.0,0.0,0.0,0.0,0.0,-5.6011,-5.7511,-5.8742,-5.9665,0.0,-6.0781,-6.0781,-6.0781,-6.0781,-6.0781,-6.0781,-6.0781,-6.0781,-6.0781,-6.0781,-6.0781,-6.0781,-6.0781,-6.0896,-6.1755,-6.2589,-6.3397,-6.4166,-6.5051,-6.5667,0.0,0.0,0.0,0.0,0.0,-7.5245,-7.8246,-7.9977,-8.1823,-8.4132,-8.7748,-9.0479,-9.1518,-9.2018,-9.2287,-9.2287,-9.1595,0.0,0.0,0.0,0.0,-8.5517,-8.4093,-8.2439,-8.0477,-7.8246,-7.6592,0.0,0.0,0.0,0.0,0.0,0.0,0.0,0.0,0.0,-6.7667,-6.9552,0.0,-6.9206,-7.0552,-7.0937,-7.0783,-7.1629,-7.1975,-7.1975,-7.1975,-7.1591,-7.1091,-7.0937,-7.0898,-7.0898,-7.0898,-7.0898,-7.0898,-7.0898,-7.0898,-7.0744,-7.009,-6.9821,-6.9361,-6.7975,-6.7464,-6.7095,-6.61,-6.4868,-6.379,-6.3225,-6.2121,-6.0993,-6.0022,0.0,0.0,0.0,0.0,0.0,0.0,0.0,0.0,0.0,0.0,0.0,0.0,0.0,0.0,0.0,0.0,0.0,0.0,0.0,0.0,0.0,-5.8127,0.0,0.0,0.0,-6.0781,-6.0781,-6.0781,-6.0781,-6.0781,-6.0781,-6.0781,-6.0781,-6.0781,-6.0781,-6.0781,-6.0781,-6.0781,-6.0896,-6.1755,-6.2589,-6.332,-6.3462,-6.4551,-6.5859,0.0,0.0,0.0,0.0,0.0,0.0,0.0,-8.3285,0.0,-8.4286,-8.6017,-8.7594,-8.8479,-8.9748,-9.071,-9.1095,-9.0402,-8.9902,-8.9902,-8.8286,-8.6786,-8.5517,-8.3824,0.0,-8.0477,-7.7938,-7.6399,-7.6015,0.0,0.0,0.0,0.0,0.0,0.0,0.0,-6.6859,0.0,0.0,0.0,-7.0437,-7.1245,-7.1552,-7.1629,-7.2052,-7.1898,-7.1514,-7.1514,-7.1245,-7.0898,-7.0898,-7.0898,-7.0898,-7.0898,-7.0898,-7.0898,-7.0898,-7.0898,-7.0706,-6.9937,-6.936,-6.8783,-6.7751,-6.7092,-6.6678,-6.6432,-6.5375,-6.4332,-6.3813,-6.2852,-6.1686,-6.0497,-5.9198,0.0,0.0,0.0,0.0,0.0,0.0,0.0,0.0,0.0,0.0,0.0,0.0,0.0,0.0,0.0,0.0,0.0,0.0,0.0,0.0,0.0,0.0,0.0,0.0,0.0,-6.0781,-6.0781,-6.0781,-6.0781,-6.0781,-6.0781,-6.0781,-6.0781,-6.0781,-6.0781,-6.0781,-6.0781,-6.0935,-6.2204,-6.2974,-6.3423,-6.432,-6.5166,-6.582,0.0,-7.036,0.0,0.0,-7.7092,0.0,-8.1708,-8.4939,-8.6478,-8.4632,-8.4555,-8.4939,-8.5632,-8.7478,-8.894,-8.9594,-8.9056,-8.8632,-8.844,-8.6978,-8.567,-8.467,-8.3131,-8.1593,-8.0131,-7.7592,-7.6015,0.0,0.0,0.0,0.0,0.0,0.0,0.0,0.0,0.0,0.0,0.0,-7.0898,-7.1937,-7.2129,-7.2206,-7.2168,-7.1975,-7.1514,-7.0898,-7.0898,-7.0898,-7.0898,-7.0898,-7.0898,-7.0898,-7.0898,-7.0898,-7.086,-7.0706,-7.0783,-7.0643,-6.9528,-6.8847,-6.8259,-6.7553,-6.68,-6.6266,-6.6541,-6.5714,-6.4715,-6.4026,-6.3179,-6.2119,-6.066,-5.9736,0.0,0.0,0.0,0.0,0.0,0.0,0.0,0.0,0.0,0.0,0.0,0.0,0.0,0.0,0.0,-5.1318,-5.2115,-5.301,-5.4549,0.0,0.0,-5.9011,-6.0512,0.0,-6.0781,-6.0781,-6.0781,-6.0781,-6.0781,-6.0781,-6.0781,-6.0781,-6.0781,-6.0781,-6.0781,-6.0781,-6.0781,-6.0973,-6.2666,-6.3308,-6.3512,-6.5243,-6.5897,-6.5782,0.0,0.0,0.0,0.0,0.0,0.0,-8.1054,-8.4055,-8.644,-8.6978,-8.7709,-8.8248,-8.8325,-8.8556,-8.8709,-8.8786,-8.8748,-8.8363,-8.7555,-8.6632,-8.5401,-8.3785,-8.2824,-8.19,-8.1016,-7.8477,-7.6053,0.0,0.0,0.0,0.0,0.0,0.0,0.0,0.0,0.0,0.0,-7.0629,-7.1591,-7.1091,-7.186,-7.2206,-7.2091,-7.1321,-7.0975,-7.0898,-7.0898,-7.0898,-7.0898,-7.0898,-7.0898,-7.0898,-7.0898,-7.0898,-7.0744,-7.0014,-7.0321,-7.0426,-6.8204,-6.8073,-6.8267,-6.7014,-6.6635,-6.6557,-6.6574,-6.5448,-6.4327,-6.4118,-6.2869,-6.1481,-6.0485,-6.0264,-5.995,0.0,0.0,0.0,0.0,0.0,0.0,0.0,0.0,0.0,0.0,0.0,0.0,0.0,0.0,-5.2154,-5.3049,-5.3895,-5.5164,-5.6945,0.0,-5.8742,-5.9627,-6.0396,-6.0781,-6.0781,-6.0781,-6.0781,-6.0781,-6.0781,-6.0781,-6.0781,-6.0781,-6.0781,-6.0781,-6.0781,-6.0781,-6.0973,-6.2666,-6.3308,-6.3512,-6.5243,-6.5897,-6.5897,0.0,0.0,0.0,0.0,0.0,0.0,0.0,-8.3747,-8.4709,-8.5055,-8.6286,-8.7132,-8.7132,-8.6709,-8.6401,-8.6401,-8.594,-8.5478,-8.5132,-8.4286,-8.3516,-8.2862,-8.2016,-8.1439,-8.1093,-7.9092,-7.7015,0.0,0.0,0.0,0.0,0.0,0.0,0.0,0.0,-6.7282,-6.7282,-7.0206,-7.1206,-7.0975,-7.186,-7.2206,-7.2091,-7.1245,-7.0898,-7.0898,-7.0898,-7.0898,-7.0898,-7.0898,-7.0591,-7.0244,-7.0744,-7.0552,-7.0246,-7.0525,-7.0456,-7.0126,-6.9287,-6.8567,-6.7889,-6.7481,-6.7006,-6.6628,-6.6742,-6.5505,-6.4296,-6.4211,-6.2888,-6.1601,-6.1207,-6.0695,-6.0378,0.0,0.0,0.0,0.0,0.0,0.0,0.0,0.0,0.0,0.0,0.0,0.0,0.0,0.0,0.0,-5.2385,-5.3241,0.0,-5.6175,0.0,-5.8704,-5.9473,-6.0358,-6.0781,-6.0781,-6.0781,-6.0781,-6.0781,-6.0781,-6.0781,-6.0781,-6.0781,-6.0781,-6.0781,-6.0781,-6.0781,-6.0973,-6.2666,-6.3308,-6.3512,-6.5243,-6.5897,-6.5897,-7.663,0.0,-7.7207,0.0,-8.0169,-8.0862,-8.2901,-8.3439,-8.3593,-8.3593,-8.4632,-8.5363,-8.5363,-8.4863,-8.4516,-8.4516,-8.3939,-8.3478,-8.3208,-8.2631,-8.217,-8.1939,-8.14,0.0,-8.1093,-7.9631,-7.7938,-7.6015,-7.3937,0.0,0.0,0.0,0.0,0.0,-6.6898,-6.7552,-6.8013,-7.0321,-7.1283,-7.1321,-7.1937,-7.2206,-7.2091,-7.1245,-7.0898,-7.0898,-7.0898,-7.0898,-7.0898,-7.0898,-7.036,-6.986,-7.0667,-7.0514,-7.0157,-7.0672,-7.0553,-7.0157,-6.9675,-6.8795,-6.8003,-6.7685,-6.7156,-6.6737,-6.6874,-6.5547,-6.414,-6.3633,-6.2578,-6.1719,-6.1719,-6.1166,-6.0846,-6.1246,0.0,0.0,0.0,0.0,0.0,0.0,-5.6378,-5.4997,-5.4082,0.0,0.0,0.0,0.0,0.0,0.0,0.0,0.0,0.0,0.0,0.0,0.0,-6.0358,-6.0781,-6.0781,-6.0781,-6.0781,-6.0781,-6.0781,-6.0781,-6.0781,-6.0781,-6.0781,-6.0781,-6.0781,-6.0935,-6.132,-6.2743,-6.3474,-6.3858,-6.5359,-6.5897,-6.5897,-7.813,-7.7823,-7.8092,-8.0631,-8.1093,-8.1362,-8.217,-8.3054,-8.3593,-8.3593,-8.3593,-8.3632,-8.3632,-8.3593,-8.3593,-8.3593,-8.3593,-8.3208,-8.2362,-8.2324,-8.1939,0.0,0.0,-8.1093,-8.1093,-8.0246,-7.8554,-7.6015,0.0,0.0,-6.5936,0.0,-6.6782,-6.8436,-7.009,-7.0398,-6.9783,-7.1475,-7.2168,-7.2168,-7.2206,-7.2206,-7.2091,-7.1245,-7.0898,-7.0898,-7.0898,-7.0898,-7.0898,-7.0898,-7.036,-6.986,-7.0667,-7.0898,-7.0773,-7.0092,-7.0524,-7.0708,-6.8509,-6.8525,-6.8817,-6.7302,-6.6914,-6.6914,-6.6914,-6.5547,-6.3828,-6.2109,-6.1719,-6.1719,-6.1719,-6.168,-6.1365,-6.0481,0.0,0.0,0.0,0.0,0.0,0.0,-5.7028,-5.584,-5.5696,0.0,0.0,0.0,0.0,0.0,0.0,0.0,0.0,-5.6945,-5.7857,0.0,-5.9473,-6.0358,-6.0781,-6.0781,-6.0781,-6.0781,-6.0781,-6.0781,-6.0781,-6.0781,-6.0781,-6.0781,-6.0781,-6.0781,-6.132,-6.2178,-6.2974,-6.382,-6.4705,-6.5551,-6.5897,-6.5897,-8.0169,-8.0054,-8.0131,-8.0977,-8.1093,-8.1208,-8.1439,-8.1708,-8.19,-8.19,-8.19,-8.19,-8.19,-8.2401,-8.2477,0.0,-8.19,-8.1785,0.0,-8.1477,-8.1362,-8.1093,-8.1093,-8.1093,-8.1093,-8.0823,-7.9438,-7.6899,0.0,0.0,0.0,-6.959,-6.9283,-6.9321,-6.986,-6.9937,-6.9821,-7.1475,-7.186,-7.1398,-7.2629,-7.236,-7.136,-7.1668,-7.1398,-7.0898,-7.0898,-7.0898,-7.0939,-7.105,-7.0926,-7.0689,-7.0477,-7.0341,-7.0212,-7.0285,-7.0091,-6.9699,-6.9082,-6.8274,-6.7651,-6.7773,-6.7344,-6.6914,-6.6914,-6.5547,-6.3828,-6.207,-6.1719,-6.1719,-6.1719,-6.1719,-6.1601,-6.1287,-6.1523,0.0,0.0,0.0,0.0,0.0,-5.5011,-5.3702,0.0,-5.307,0.0,0.0,0.0,0.0,0.0,0.0,0.0,0.0,-5.755,0.0,-5.9473,-6.0358,-6.0781,-6.0781,-6.0781,-6.0781,-6.0781,-6.0781,-6.0781,-6.0781,-6.0781,-6.0781,-6.0781,-6.0781,-6.0973,-6.1281,-6.2127,-6.2627,-6.3051,-6.4474,-6.5013,-6.5089,-8.1093,-8.1093,-8.1093,-8.1093,-8.1093,-8.1093,-8.1093,-8.1093,-8.1093,-8.1093,-8.1093,-8.1093,-8.1093,-8.1554,0.0,-8.1131,-8.1093,-8.1093,-8.1093,-8.1093,-8.1093,-8.1093,-8.1093,-8.1093,-8.1093,-8.0785,0.0,-7.7746,-7.6476,-7.4784,-7.2668,-7.1475,-7.0821,-7.0629,-7.0283,-7.0167,-7.0206,-7.1283,-7.1398,-7.1014,-7.2091,-7.186,-7.0975,-7.1514,-7.136,-7.0898,-7.0898,-7.0748,-7.0578,-7.1042,-7.1048,-7.077,-7.0428,-7.0415,-7.0491,-7.013,-6.9618,-6.9168,-6.8982,-6.8203,-6.7422,-6.7656,-6.7305,-6.6719,-6.6055,-6.5078,-6.3828,-6.207,-6.1719,-6.1719,-6.1719,-6.1719,-6.1719,-6.1719,-6.1719,-6.1484,-6.0859,0.0,0.0,0.0,0.0,0.0,0.0,-5.4255,-5.4428,0.0,0.0,0.0,0.0,0.0,0.0,-5.6626,-5.805,0.0,-5.9973,-6.0512,-6.0781,-6.0781,-6.0781,-6.0781,-6.0781,-6.0781,-6.0781,-6.0781,-6.0781,-6.0781,-6.0781,-6.0781,-6.0973,-6.1331,-6.1908,-6.2486,-6.3166,-6.4205,-6.482,-6.5166,-8.1093,-8.1093,-8.1093,0.0,-8.1093,0.0,-8.1093,-8.1093,-8.1093,-8.1093,-8.1093,-8.1093,-8.1093,-8.1093,-8.1093,-8.1093,0.0,0.0,0.0,-8.1093,-8.1093,-8.1093,-8.1054,-8.1016,-8.1016,-8.0169,-7.9285,-7.84,-7.5245,-7.3668,-7.363,-7.1898,-7.1514,-7.2245,-7.1321,-7.0898,-7.0898,-7.0898,-7.0898,-7.0898,-7.0975,-7.0937,-7.0898,-7.0975,-7.095,-7.09,-7.0862,-7.0447,-7.0069,-7.0874,-7.0757,-7.0239,-7.038,-7.0958,-7.1231,-6.9588,-6.9159,-6.9057,-6.8318,-6.8125,-6.793,-6.7109,-6.6914,-6.6445,-6.4765,-6.4375,-6.3906,-6.2226,-6.1836,-6.1797,-6.1797,-6.1758,-6.168,-6.1601,-6.1562,-6.0976,-5.9336,0.0,0.0,0.0,0.0,0.0,0.0,-5.6945,-5.6637,0.0,0.0,0.0,0.0,0.0,-5.6665,-5.8242,-5.9088,-5.9935,-6.0781,-6.0781,-6.0781,-6.0781,-6.0781,-6.0781,-6.0781,-6.0781,-6.0781,-6.0781,-6.0781,-6.0781,-6.0781,-6.0781,-6.132,-6.2101,-6.2024,-6.3012,-6.4512,-6.4436,-6.5013,-6.582,0.0,0.0,-8.1093,-8.1093,-8.1093,-8.1093,-8.1093,-8.1093,-8.1093,-8.1093,-8.1093,-8.1093,-8.1093,-8.1093,-8.1093,-8.1093,-8.1093,-8.1093,-8.1093,-8.1093,-8.1093,-8.1093,-8.0477,-8.0131,-8.0131,-7.9246,-7.84,-7.7592,-7.613,-7.5399,-7.5361,-7.3668,-7.3014,-7.3129,-7.1591,-7.0898,-7.0898,-7.0898,-7.0898,-7.0975,-7.1629,-7.1475,-7.0975,-7.1629,-7.157,-7.1037,-7.0369,-7.0118,-7.0183,-7.0553,-7.0576,-7.0345,-6.983,-6.98,-6.9761,-6.8746,-6.8902,-6.9099,-6.7617,-6.7226,-6.7148,-6.6953,-6.6914,-6.6601,-6.5547,-6.5273,-6.5,-6.3906,-6.3164,-6.2695,-6.2695,-6.2148,-6.1484,-6.082,-6.0195,-5.9414,-5.8359,-5.7461,0.0,0.0,-5.6295,-5.6401,-5.7002,-5.6449,-5.6515,0.0,0.0,0.0,0.0,-5.828,-5.8511,-5.8319,-5.9088,-5.9935,-6.0781,-6.0781,-6.0781,-6.0781,-6.0781,-6.0781,-6.0781,-6.0781,-6.0781,-6.0781,-6.0781,-6.0781,-6.0781,-6.0781,-6.132,-6.2024,-6.1358,-6.2127,-6.3551,-6.2897,-6.3628,-6.4897,-8.1093,-8.1093,-8.1093,-8.1093,-8.1093,-8.1093,-8.1093,-8.1093,-8.1093,-8.1093,-8.1093,-8.1093,-8.1093,-8.1093,-8.1093,-8.1093,-8.1093,-8.1093,-8.1093,-8.1093,-8.1093,-8.1093,-8.0285,-7.9823,-7.9823,-7.8592,-7.7553,-7.6707,-7.6245,-7.5784,-7.5399,-7.4091,-7.3283,-7.286,-7.1514,-7.0898,-7.0898,-7.0898,-7.0898,-7.0937,-7.1398,-7.1321,-7.095,-7.1531,-7.1506,-7.1115,-7.0329,-7.0159,-7.0352,-7.0462,-7.0543,-7.0532,-7.0116,-7.0273,-7.0273,-6.8672,-6.8242,-6.8203,-6.7656,-6.7187,-6.6914,-6.6914,-6.6914,-6.668,-6.5781,-6.5586,-6.5351,-6.4492,-6.3594,-6.3008,-6.3008,-6.2305,-6.1562,-6.1055,-6.0273,-5.9336,-5.8086,-5.75,0.0,-5.6854,-5.7133,-5.7586,-5.8287,-5.7821,-5.7736,-5.8242,-5.8204,0.0,-5.828,-5.9435,-5.9704,-5.8858,-5.9665,-6.0319,-6.0781,-6.0781,-6.0781,-6.0781,-6.0781,-6.1012,-6.1358,-6.0973,-6.1012,-6.1358,-6.0973,-6.0781,-6.0781,-6.0781,-6.1089,-6.1512,-6.1396,-6.2166,-6.332,-6.3243,-6.4051,-6.5205,-8.1093,-8.1093,-8.1093,-8.1093,-8.1093,-8.1093,-8.1093,-8.1093,-8.1093,-8.1093,-8.1093,-8.1093,-8.1093,-8.1093,-8.1093,-8.1093,-8.1093,-8.1093,-8.1093,-8.1093,-8.1054,-8.09,-8.0054,-7.9554,-7.9438,-7.79,-7.6746,-7.6015,-7.6015,-7.5553,-7.4668,-7.3899,-7.3014,-7.2168,-7.1283,-7.0898,-7.0898,-7.0898,-7.0925,-7.094,-7.094,-7.0966,-7.1004,-7.119,-7.1262,-7.121,-7.0484,-7.0367,-7.0537,-7.0537,-7.061,-7.0703,-7.0703,-7.1211,-7.1367,-6.9219,-6.7851,-6.7226,-6.7851,-6.7461,-6.6914,-6.6914,-6.6914,-6.6719,-6.5976,-6.5781,-6.5586,-6.4844,-6.3984,-6.3359,-6.3203,-6.2461,-6.1797,-6.1562,-6.0664,-5.9492,-5.793,0.0,-5.7847,-5.7601,-5.8476,-5.9342,-5.9899,-5.9686,-5.9281,-5.8704,-5.9204,-5.9281,-5.8704,-6.0012,-6.0473,-5.9704,-6.0396,-6.0781,-6.0781,-6.0781,-6.0781,-6.0781,-6.0935,-6.1358,-6.2101,-6.1473,-6.1589,-6.2243,-6.1358,-6.1012,-6.0973,-6.0858,-6.0858,-6.105,-6.1831,-6.2666,-6.3589,-6.4166,-6.5051,-6.5859,-8.1093,-8.1093,-8.1093,-8.1093,-8.1093,-8.1093,-8.1093,-8.1093,-8.1093,-8.1093,-8.1093,-8.1093,-8.1093,-8.1093,-8.1093,-8.1093,-8.1093,-8.1093,-8.1093,-8.1093,-8.0785,-8.0054,-7.9169,-7.8361,-7.7707,-7.6707,-7.613,-7.6015,-7.6015,-7.5553,-7.4668,-7.3899,-7.3014,-7.2168,-7.1283,-7.0898,-7.0898,-7.0898,-7.0991,-7.1148,-7.1148,-7.1252,-7.1397,-7.1427,-7.1536,-7.1525,-7.0723,-7.055,-7.0662,-7.0662,-7.0664,-7.0703,-7.0703,-7.0781,-7.082,-7.043,-6.9219,-6.7851,-6.7265,-6.6992,-6.6914,-6.6914,-6.6914,-6.6875,-6.6719,-6.6719,-6.664,-6.6523,-6.5781,-6.4961,-6.4219,-6.3398,-6.2305,-6.0859,-5.9297,-5.793,-5.6953,0.0,-5.7847,-5.7601,-5.9533,-6.0871,-6.0829,-6.0033,-5.9742,-6.0358,-5.9858,-5.9781,-6.0358,-6.0666,-6.0742,-6.0589,-6.0742,-6.0781,-6.0781,-6.0781,-6.0781,-6.0819,-6.1562,-6.1985,-6.2139,-6.2666,-6.3012,-6.3089,-6.2243,-6.1908,-6.1831,-6.1089,-6.1243,-6.1908,-6.2062,-6.3051,-6.432,-6.3743,-6.4512,-6.5782,-8.1093,-8.1093,-8.1093,-8.1093,-8.1093,-8.1093,-8.1093,-8.1093,-8.1093,-8.1093,-8.1093,-8.1093,-8.1093,-8.1093,-8.1093,-8.1093,-8.1093,-8.09,-8.0439,-8.0823,-8.0708,-7.9862,-7.8977,-7.79,-7.663,-7.5745,-7.5515,-7.6015,-7.5091,-7.4437,-7.4053,-7.3206,-7.2322,-7.1475,-7.1091,-7.0966,-7.105,-7.105,-7.119,-7.1378,-7.1378,-7.1435,-7.1491,-7.1583,-7.1647,-7.1618,-7.0874,-7.0932,-7.1328,-7.0859,-7.1015,-7.1406,-7.1406,-7.1406,-7.1328,-7.0859,-6.9805,-6.8672,-6.7812,-6.7265,-6.6992,-6.7461,-6.7265,-6.6914,-6.6914,-6.6914,-6.6914,-6.6914,-6.6211,-6.5312,-6.4453,-6.3594,-6.2578,-6.1328,-5.9687,0.0,0.0,-5.8633,-5.8749,-5.9051,-6.0395,-6.1259,-6.1179,-6.0577,-6.0358,-6.0781,-6.0435,-6.0358,-6.0781,-6.0781,-6.0781,-6.0781,-6.0781,-6.0781,-6.0781,-6.0781,-6.105,-6.1524,-6.1908,-6.2563,-6.3435,-6.3358,-6.3551,-6.3935,-6.2627,-6.2101,-6.2024,-6.1166,-6.132,-6.2139,-6.2589,-6.3512,-6.4628,-6.4666,-6.5205,-6.582,-8.1093,-8.1093,-8.1093,-8.1093,-8.1093,-8.1093,-8.1093,-8.1093,-8.1093,-8.1093,-8.1093,-8.1093,-8.1093,-8.1093,-8.1093,-8.1093,-8.09,-8.0516,-7.9862,-8.0246,-8.0092,-7.9246,-7.8361,-7.7323,-7.6015,-7.5168,-7.5014,-7.5707,-7.4207,-7.3399,-7.3168,-7.2514,-7.1761,-7.0979,-7.0979,-7.1085,-7.1271,-7.1271,-7.1365,-7.1543,-7.1543,-7.1566,-7.1643,-7.1735,-7.1758,-7.1685,-7.1209,-7.1445,-7.1914,-7.1211,-7.1445,-7.1992,-7.1992,-7.1992,-7.1875,-7.1211,-7.039,-6.9453,-6.8242,-6.7578,-6.7305,-6.7773,-6.7383,-6.6914,-6.6914,-6.6914,-6.6914,-6.6914,-6.6367,-6.5625,-6.4765,-6.3906,-6.3008,-6.2148,0.0,0.0,0.0,-5.9883,-5.9765,-6.0586,-6.1205,-6.1595,-6.16,-6.1311,-6.1089,-6.1089,-6.0896,-6.0896,-6.1089,-6.0896,-6.0781,-6.0781,-6.1012,-6.1089,-6.1089,-6.1281,-6.1704,-6.2358,-6.2589,-6.3358,-6.4589,-6.4128,-6.4282,-6.482,-6.332,-6.2666,-6.2589,-6.1743,-6.1781,-6.2474,-6.3281,-6.4012,-6.4705,-6.559,-6.5897,-6.5897,-8.1093,-8.1093,-8.1093,-8.1093,-8.1093,-8.1093,-8.1093,-8.1093,-8.1093,-8.1093,-8.1093,-8.1093,-8.1093,-8.1093,-8.1093,-8.1093,-8.0362,-7.9862,-7.9823,-7.9092,-7.8323,-7.7515,-7.663,-7.613,-7.6015,-7.5168,-7.4745,-7.4822,-7.3937,-7.3091,-7.2283,-7.2206,-7.184,-7.119,-7.119,-7.1299,-7.1503,-7.1503,-7.156,-7.1679,-7.1679,-7.1802,-7.1951,-7.1952,-7.1992,-7.1953,-7.1914,-7.1953,-7.1992,-7.1914,-7.1953,-7.1992,-7.1992,-7.1992,-7.1992,-7.1914,-7.1289,-7.0078,-6.7656,-6.7539,-6.793,-6.7187,-6.6953,-6.6914,-6.6914,-6.6914,-6.6914,-6.6914,-6.6836,-6.6523,-6.5664,-6.4805,-6.3906,-6.3047,0.0,0.0,-6.039,-6.0351,-6.0625,-6.1484,-6.206,-6.2451,-6.2501,-6.2201,-6.1985,-6.1985,-6.1243,-6.1127,-6.1947,-6.1243,-6.0781,-6.0781,-6.1601,-6.1985,-6.1985,-6.2743,-6.3166,-6.3243,-6.4012,-6.4474,-6.4628,-6.5359,-6.5743,-6.5743,-6.482,-6.4436,-6.4359,-6.3474,-6.3166,-6.332,-6.4166,-6.4551,-6.4705,-6.559,-6.5897,-6.5897,-8.1093,-8.1093,-8.1093,-8.1093,-8.1093,-8.1093,-8.1093,-8.1093,-8.1093,-8.1093,-8.1093,-8.1093,-8.1093,-8.1093,-8.09,-8.0323,-7.9977,-7.9361,-7.8323,-7.7938,-7.763,-7.7323,-7.5938,-7.5207,-7.5207,-7.386,-7.3399,-7.3976,-7.2591,-7.2045,-7.236,-7.1831,-7.1521,-7.1403,-7.1403,-7.1478,-7.1629,-7.1629,-7.1728,-7.1904,-7.1904,-7.191,-7.1992,-7.1992,-7.1992,-7.1992,-7.1992,-7.1992,-7.1914,-7.1367,-7.1562,-7.1914,-7.1367,-7.1562,-7.1875,-7.1367,-7.1328,-7.0937,-6.8398,-6.7969,-6.8125,-6.7773,-6.7305,-6.6914,-6.6914,-6.6914,-6.6914,-6.6914,-6.6914,-6.664,-6.5742,-6.5312,-6.4805,-6.3945,0.0,-6.2187,-6.2734,-6.2344,-6.2344,-6.3203,-6.2928,-6.2669,-6.263,-6.2375,-6.2176,-6.2113,-6.2243,-6.2474,-6.282,-6.2551,-6.2358,-6.2358,-6.3205,-6.3128,-6.2101,-6.2897,-6.3589,-6.4128,-6.4436,-6.4897,-6.5436,-6.5743,-6.5897,-6.5859,-6.4974,-6.4589,-6.4551,-6.3666,-6.3628,-6.4128,-6.4474,-6.4936,-6.5436,-6.5782,-6.5897,-6.5897,-8.1093,-8.1093,-8.1093,-8.1093,-8.1093,-8.1093,-8.1093,-8.1093,-8.1093,-8.1093,-8.0862,-8.0708,-8.0708,-8.0439,-8.0054,-7.9438,-7.9169,-7.8515,-7.7361,-7.7053,-7.6899,-7.6899,-7.5745,-7.4976,-7.4707,-7.3355,-7.2829,-7.3176,-7.1772,-7.1468,-7.2191,-7.1571,-7.1389,-7.156,-7.156,-7.1638,-7.1805,-7.1805,-7.1862,-7.1992,-7.1992,-7.1992,-7.1992,-7.1992,-7.1992,-7.1992,-7.1992,-7.1992,-7.1914,-7.1328,-7.1523,-7.1914,-7.1289,-7.1523,-7.1875,-7.1289,-7.1523,-7.1484,-6.9219,-6.8594,-6.8476,-6.793,-6.7344,-6.6914,-6.6914,-6.6914,-6.6914,-6.6914,-6.6914,-6.6719,-6.6133,-6.5781,-6.539,-6.4805,-6.3984,-6.3633,-6.4219,-6.3789,-6.3711,-6.4609,-6.4042,-6.3549,-6.3478,-6.3319,-6.3106,-6.2954,-6.3241,-6.3388,-6.332,-6.3308,-6.3308,-6.3308,-6.4166,-6.4051,-6.2897,-6.3705,-6.4436,-6.5013,-6.5013,-6.532,-6.5897,-6.5897,-6.5897,-6.5859,-6.5282,-6.5013,-6.4974,-6.4359,-6.4474,-6.5013,-6.5013,-6.5359,-6.5897,-6.5897,-6.5897,-6.5897,-8.1093,-8.1093,-8.1093,-8.1093,-8.1093,-8.1093,-8.1093,-8.1093,-8.1093,-8.1093,-8.0323,-7.9785,-7.9785,-7.9015,-7.8477,-7.8477,-7.7746,-7.7284,-7.7299,-7.6476,-7.5976,-7.5991,-7.5976,-7.5553,-7.4707,-7.4034,-7.3302,-7.2489,-7.1847,-7.1485,-7.1485,-7.1485,-7.1572,-7.1693,-7.1693,-7.1809,-7.1992,-7.1992,-7.1992,-7.1992,-7.1992,-7.1992,-7.1992,-7.1992,-7.1992,-7.1992,-7.1992,-7.1992,-7.1992,-7.1992,-7.1992,-7.1992,-7.1992,-7.1992,-7.1992,-7.1992,-7.1992,-7.1601,-6.9883,-6.9453,-6.9062,-6.7344,-6.6914,-6.6914,-6.6914,-6.6914,-6.6914,-6.6914,-6.6914,-6.6914,-6.6914,-6.6172,-6.5625,-6.5625,-6.4883,-6.4336,-6.4336,-6.4336,-6.4648,-6.5508,-6.5446,-6.5328,-6.5373,-6.5241,-6.5037,-6.482,-6.4066,-6.3525,-6.3332,-6.332,-6.332,-6.332,-6.4166,-6.4628,-6.4628,-6.5474,-6.5897,-6.5897,-6.5897,-6.5897,-6.5897,-6.5897,-6.5897,-6.5897,-6.5897,-6.5897,-6.5897,-6.5897,-6.5897,-6.5897,-6.5897,-6.5897,-6.5897,-6.5897,-6.5897,-6.5897,-7.94,-7.9785,-7.9977,-7.9361,-7.9285,-7.9285,-7.9285,-7.9285,-7.9285,-7.9285,-7.9054,-7.89,-7.89,-7.8669,-7.8246,-7.7707,-7.7438,-7.6861,-7.5746,-7.5308,-7.4925,-7.4596,-7.447,-7.3921,-7.299,-7.2424,-7.1974,-7.1608,-7.1536,-7.1543,-7.1642,-7.1642,-7.1738,-7.1908,-7.1908,-7.1951,-7.1992,-7.1992,-7.1992,-7.1992,-7.1992,-7.1992,-7.1992,-7.1992,-7.1992,-7.1992,-7.1992,-7.1992,-7.1914,-7.1289,-7.1484,-7.1992,-7.1992,-7.1992,-7.1992,-7.1992,-7.1992,-7.1601,-6.9883,-6.9414,-6.9023,-6.7305,-6.6914,-6.6914,-6.6914,-6.6914,-6.6914,-6.6914,-6.6914,-6.6914,-6.6914,-6.668,-6.6523,-6.6523,-6.6289,-6.6133,-6.6133,-6.6133,-6.6211,-6.6484,-6.5935,-6.5494,-6.5418,-6.5308,-6.5197,-6.5005,-6.52,-6.5345,-6.5265,-6.5172,-6.5128,-6.5128,-6.5397,-6.5513,-6.5513,-6.5782,-6.5897,-6.5897,-6.5897,-6.5897,-6.5897,-6.5897,-6.5897,-6.5897,-6.5897,-6.5897,-6.5897,-6.5897,-6.5897,-6.5897,-6.5897,-6.5897,-6.5897,-6.5897,-6.5897,-6.5897,-7.8592,-7.89,-7.9131,-7.8592,-7.8477,-7.8477,-7.8477,-7.8477,-7.8477,-7.8477,-7.8207,-7.8015,-7.8015,-7.7707,-7.7323,-7.6823,-7.6528,-7.6016,-7.5188,-7.4696,-7.4129,-7.3518,-7.3449,-7.31,-7.2413,-7.2212,-7.1842,-7.1388,-7.1594,-7.1728,-7.1811,-7.1811,-7.1865,-7.1992,-7.1992,-7.1992,-7.1992,-7.1992,-7.1992,-7.1992,-7.1992,-7.1992,-7.1992,-7.1992,-7.1992,-7.1992,-7.1992,-7.1992,-7.1914,-7.1406,-7.1562,-7.1992,-7.1992,-7.1992,-7.1992,-7.1992,-7.1992,-7.164,-6.9922,-6.9414,-6.9062,-6.7734,-6.7422,-6.7422,-6.7422,-6.7422,-6.7305,-6.6953,-6.6914,-6.6914,-6.6914,-6.6914,-6.6914,-6.6914,-6.6914,-6.6914,-6.6914,-6.6914,-6.6914,-6.6914,-6.6445,-6.6092,-6.5998,-6.5954,-6.5889,-6.5713,-6.6016,-6.6212,-6.6212,-6.6049,-6.5974,-6.5974,-6.5933,-6.5897,-6.5897,-6.5897,-6.5897,-6.5897,-6.5897,-6.5897,-6.5897,-6.5897,-6.5897,-6.5859,-6.5551,-6.559,-6.5859,-6.5166,-6.5051,-6.5397,-6.5397,-6.5397,-6.5436,-6.5782,-6.5897,-6.5897,-7.8284,-7.8323,-7.8361,-7.8284,-7.8284,-7.8284,-7.8284,-7.8284,-7.8284,-7.8284,-7.763,-7.7169,-7.7169,-7.6476,-7.6029,-7.602,-7.5487,-7.5159,-7.522,-7.4435,-7.3586,-7.2686,-7.2803,-7.2812,-7.2653,-7.2821,-7.2516,-7.1689,-7.1907,-7.1992,-7.1992,-7.1992,-7.1992,-7.1992,-7.1992,-7.1992,-7.1992,-7.1992,-7.1992,-7.1992,-7.1992,-7.1992,-7.1992,-7.1992,-7.1992,-7.1992,-7.1992,-7.1992,-7.1992,-7.1914,-7.1875,-7.1875,-7.1875,-7.1953,-7.1992,-7.1992,-7.1992,-7.164,-7.0039,-6.9492,-6.9219,-6.8476,-6.832,-6.8281,-6.8203,-6.8203,-6.7969,-6.707,-6.6914,-6.6914,-6.6914,-6.6914,-6.6914,-6.6914,-6.6914,-6.6914,-6.6914,-6.6914,-6.6914,-6.6914,-6.6914,-6.6914,-6.6914,-6.6914,-6.6832,-6.6634,-6.6493,-6.6412,-6.6412,-6.6212,-6.6109,-6.6109,-6.5951,-6.5897,-6.5897,-6.5897,-6.5897,-6.5897,-6.5897,-6.5897,-6.5897,-6.5897,-6.5859,-6.5743,-6.4936,-6.5013,-6.5551,-6.3935,-6.382,-6.4589,-6.4589,-6.4666,-6.482,-6.559,-6.5897,-6.5897,-7.6669,-7.7092,-7.7323,-7.6669,-7.6553,-7.6553,-7.6553,-7.6553,-7.6553,-7.6553,-7.6399,-7.6284,-7.6284,-7.6092,-7.6066,-7.6219,-7.6264,-7.574,-7.4611,-7.4203,-7.3464,-7.2209,-7.2026,-7.2023,-7.2134,-7.2181,-7.2055,-7.1689,-7.1907,-7.1992,-7.1992,-7.1992,-7.1992,-7.1992,-7.1992,-7.1992,-7.1992,-7.1992,-7.1992,-7.1992,-7.1992,-7.1992,-7.1992,-7.1992,-7.1992,-7.1992,-7.1992,-7.1992,-7.1914,-7.1211,-7.0976,-7.0976,-7.0976,-7.1445,-7.1992,-7.1992,-7.1992,-7.1758,-7.0703,-6.9922,-6.9375,-6.918,-6.918,-6.9023,-6.8359,-6.8203,-6.7969,-6.707,-6.6914,-6.6914,-6.6914,-6.6914,-6.6914,-6.6914,-6.6914,-6.6914,-6.6914,-6.6914,-6.6914,-6.6914,-6.6914,-6.6914,-6.6914,-6.6914,-6.6875,-6.6833,-6.6675,-6.6545,-6.6545,-6.6252,-6.6109,-6.6109,-6.5951,-6.5897,-6.5897,-6.5897,-6.5897,-6.5897,-6.5897,-6.5897,-6.5897,-6.5897,-6.5513,-6.4859,-6.4666,-6.432,-6.382,-6.3474,-6.382,-6.4589,-6.4589,-6.5013,-6.5628,-6.582,-6.5897,-6.5897,-7.6092,-7.6361,-7.6553,-7.6092,-7.6015,-7.6015,-7.6015,-7.6015,-7.6015,-7.6015,-7.6093,-7.616,-7.616,-7.6219,-7.6196,-7.5961,-7.5677,-7.5001,-7.3883,-7.3345,-7.2734,-7.2031,-7.1907,-7.1906,-7.1992,-7.1992,-7.1951,-7.1856,-7.1951,-7.1992,-7.1992,-7.1992,-7.1992,-7.1992,-7.1992,-7.1992,-7.1992,-7.1992,-7.1992,-7.1992,-7.1992,-7.1992,-7.1992,-7.1992,-7.1758,-7.1445,-7.1836,-7.1992,-7.1914,-7.1484,-7.1328,-7.1328,-7.1328,-7.164,-7.1992,-7.1992,-7.1992,-7.1797,-7.0937,-7.0078,-6.9531,-6.9922,-6.9726,-6.9336,-6.8867,-6.8789,-6.8515,-6.7695,-6.7187,-6.6914,-6.6914,-6.6914,-6.6914,-6.6914,-6.6914,-6.6914,-6.6914,-6.6914,-6.6914,-6.6914,-6.6914,-6.6914,-6.6914,-6.6914,-6.6914,-6.6914,-6.679,-6.674,-6.674,-6.6498,-6.6295,-6.6244,-6.6079,-6.594,-6.5897,-6.5897,-6.5897,-6.5897,-6.5897,-6.5897,-6.5897,-6.5897,-6.5436,-6.4589,-6.4166,-6.3743,-6.3231,-6.2435,-6.2627,-6.3435,-6.382,-6.4282,-6.4705,-6.5128,-6.5282,-6.532,-7.6015,-7.6015,-7.6015,-7.6015,-7.6015,-7.6015,-7.6015,-7.6034,-7.6038,-7.6038,-7.6219,-7.6281,-7.6165,-7.6194,-7.598,-7.5425,-7.4744,-7.4035,-7.3359,-7.2617,-7.2148,-7.1992,-7.1992,-7.1992,-7.1992,-7.1992,-7.1992,-7.1992,-7.1992,-7.1992,-7.1992,-7.1992,-7.1992,-7.1992,-7.1992,-7.1992,-7.1992,-7.1992,-7.1992,-7.1992,-7.1992,-7.1914,-7.1797,-7.1953,-7.1367,-7.0625,-7.164,-7.1914,-7.1797,-7.1797,-7.1797,-7.1797,-7.1797,-7.1875,-7.1992,-7.1992,-7.1992,-7.1836,-7.1133,-7.0312,-6.9883,-7.0547,-7.0156,-6.9609,-6.9453,-6.9414,-6.914,-6.8164,-6.7383,-6.6914,-6.6914,-6.6914,-6.6914,-6.6914,-6.6914,-6.6914,-6.6914,-6.6914,-6.6914,-6.6914,-6.6914,-6.6914,-6.6914,-6.6914,-6.6914,-6.6914,-6.6914,-6.6914,-6.6914,-6.6683,-6.6512,-6.6393,-6.62,-6.6014,-6.591,-6.5897,-6.5897,-6.5897,-6.5897,-6.5897,-6.5897,-6.5897,-6.532,-6.4359,-6.3628,-6.3243,-6.3012,-6.1589,-6.1639,-6.2601,-6.3281,-6.3628,-6.382,-6.4397,-6.4705,-6.4897,-7.6015,-7.6015,-7.6015,-7.6015,-7.6015,-7.6015,-7.6015,-7.6135,-7.6277,-7.6277,-7.6438,-7.6265,-7.5518,-7.494,-7.4558,-7.4496,-7.4515,-7.4218,-7.3359,-7.3203,-7.2773,-7.2031,-7.1992,-7.1992,-7.1992,-7.1992,-7.1992,-7.1992,-7.1992,-7.1992,-7.1992,-7.1992,-7.1992,-7.1992,-7.1992,-7.1992,-7.1992,-7.1992,-7.1992,-7.1992,-7.1992,-7.1562,-7.0976,-7.1719,-7.0976,-6.9805,-7.1406,-7.1523,-7.0898,-7.0898,-7.0898,-7.0898,-7.0898,-7.1406,-7.1992,-7.1992,-7.1992,-7.1953,-7.1875,-7.1172,-7.0547,-7.0664,-7.0625,-7.0351,-6.9648,-6.9492,-6.9023,-6.7422,-6.6992,-6.6914,-6.6914,-6.6914,-6.6914,-6.6914,-6.6914,-6.6914,-6.6914,-6.6914,-6.6914,-6.6914,-6.6914,-6.6914,-6.6914,-6.6914,-6.6914,-6.6914,-6.6914,-6.6914,-6.6914,-6.6592,-6.6412,-6.6387,-6.6108,-6.5909,-6.5897,-6.5897,-6.5897,-6.5897,-6.5897,-6.5897,-6.5897,-6.5897,-6.5013,-6.3462,-6.3346,-6.2897,-6.2243,-6.2024,-6.2858,-6.4282,-6.4397,-6.4897,-6.5474,-6.482,-6.5089,-6.5513,-7.6015,-7.6015,-7.5861,-7.5361,-7.5284,-7.5163,-7.4771,-7.4811,-7.5069,-7.568,-7.5489,-7.5351,-7.5474,-7.487,-7.4282,-7.3775,-7.3826,-7.3515,-7.2617,-7.2578,-7.2383,-7.2031,-7.1992,-7.1992,-7.1992,-7.1992,-7.1992,-7.1992,-7.1992,-7.1992,-7.1992,-7.1992,-7.1992,-7.1992,-7.1992,-7.1992,-7.1992,-7.1992,-7.1992,-7.1953,-7.1484,-7.1055,-7.0703,-7.0625,-7.0117,-6.957,-7.082,-7.1328,-7.1445,-7.1445,-7.1445,-7.1445,-7.1445,-7.168,-7.1992,-7.1992,-7.1992,-7.1992,-7.1992,-7.1367,-7.082,-7.1289,-7.1055,-7.0625,-7.0234,-6.9805,-6.914,-6.789,-6.7617,-6.7617,-6.7617,-6.8008,-6.8164,-6.7695,-6.7617,-6.7461,-6.6953,-6.6914,-6.6914,-6.6914,-6.6914,-6.6914,-6.6914,-6.6914,-6.6914,-6.6914,-6.6914,-6.6914,-6.6914,-6.6777,-6.6584,-6.6393,-6.6259,-6.6088,-6.591,-6.5897,-6.5897,-6.5897,-6.5897,-6.5897,-6.5897,-6.5897,-6.5205,-6.4051,-6.4051,-6.3551,-6.2781,-6.2781,-6.3205,-6.3858,-6.3858,-6.382,-6.3832,-6.4397,-6.4243,-6.3743]},{"header":{"parameterUnit":"m.s-1","parameterCategory":1,"la1":30.6,"la2":28.766,"lo1":-90.7593,"lo2":-88.6598,"dy":0.0162,"dx":0.0183,"nx":116,"ny":114,"refTime":"2023-03-09T06:00:00:Z","depth":0,"parameterNumber":3,"parameterNumberName":"V-component_of_WINDS"},"data":[0.0,0.0,0.0,0.0,0.0,0.0,0.0,0.0,0.0,0.0,0.0,0.0,0.0,0.0,0.0,0.0,0.0,0.0,0.0,0.0,0.0,0.0,0.0,0.0,0.0,0.0,0.0,0.0,0.0,0.0,0.0,0.0,0.0,0.0,0.0,0.0,0.0,0.0,0.0,0.0,0.0,0.0,0.0,0.0,0.0,0.0,0.0,0.0,0.0,0.0,0.0,0.0,0.0,0.0,0.0,0.0,0.0,0.0,0.0,0.0,0.0,0.0,0.0,0.0,0.0,0.0,0.0,0.0,0.0,0.0,0.0,0.0,0.0,0.0,0.0,0.0,0.0,0.0,0.0,0.0,0.0,0.0,0.0,0.0,0.0,0.0,0.0,0.0,0.0,0.0,0.0,0.0,0.0,0.0,0.0,0.0,0.0,0.0,0.0,0.0,0.0,0.0,0.0,0.0,0.0,0.0,0.0,0.0,0.0,0.0,0.0,0.0,0.0,0.0,0.0,0.0,0.0,0.0,0.0,0.0,0.0,0.0,0.0,0.0,0.0,0.0,0.0,0.0,0.0,0.0,0.0,0.0,0.0,0.0,0.0,0.0,0.0,0.0,0.0,0.0,0.0,0.0,0.0,0.0,0.0,0.0,0.0,0.0,0.0,0.0,0.0,0.0,0.0,0.0,0.0,0.0,0.0,0.0,0.0,0.0,0.0,0.0,0.0,0.0,0.0,0.0,0.0,0.0,0.0,0.0,0.0,0.0,0.0,0.0,0.0,0.0,0.0,0.0,0.0,0.0,0.0,0.0,0.0,0.0,0.0,0.0,0.0,0.0,0.0,0.0,0.0,0.0,0.0,0.0,0.0,0.0,0.0,0.0,0.0,0.0,0.0,0.0,0.0,0.0,0.0,0.0,0.0,0.0,0.0,0.0,0.0,0.0,0.0,0.0,0.0,0.0,0.0,0.0,0.0,0.0,0.0,0.0,0.0,0.0,0.0,0.0,0.0,0.0,0.0,0.0,0.0,0.0,0.0,0.0,0.0,0.0,0.0,0.0,0.0,0.0,0.0,0.0,0.0,0.0,0.0,0.0,0.0,0.0,0.0,0.0,0.0,0.0,0.0,0.0,0.0,0.0,0.0,0.0,0.0,0.0,0.0,0.0,0.0,0.0,0.0,0.0,0.0,0.0,0.0,0.0,0.0,0.0,0.0,0.0,0.0,0.0,0.0,0.0,0.0,0.0,0.0,0.0,0.0,0.0,0.0,0.0,0.0,0.0,0.0,0.0,0.0,0.0,0.0,0.0,0.0,0.0,0.0,0.0,0.0,0.0,0.0,0.0,0.0,0.0,0.0,0.0,0.0,0.0,0.0,0.0,0.0,0.0,0.0,0.0,0.0,0.0,0.0,0.0,0.0,0.0,0.0,0.0,0.0,0.0,0.0,0.0,0.0,0.0,0.0,0.0,0.0,0.0,0.0,0.0,0.0,0.0,0.0,0.0,0.0,0.0,0.0,0.0,0.0,0.0,0.0,0.0,0.0,0.0,0.0,0.0,0.0,0.0,0.0,0.0,0.0,0.0,0.0,0.0,0.0,0.0,0.0,0.0,0.0,0.0,0.0,0.0,0.0,0.0,0.0,0.0,0.0,0.0,0.0,0.0,0.0,0.0,0.0,0.0,0.0,0.0,0.0,0.0,0.0,0.0,0.0,0.0,0.0,0.0,0.0,0.0,0.0,0.0,0.0,0.0,0.0,0.0,0.0,0.0,0.0,0.0,0.0,0.0,0.0,0.0,0.0,0.0,0.0,0.0,0.0,0.0,0.0,0.0,0.0,0.0,0.0,0.0,0.0,0.0,0.0,0.0,0.0,0.0,0.0,0.0,0.0,0.0,0.0,0.0,0.0,0.0,0.0,0.0,0.0,0.0,0.0,0.0,0.0,0.0,0.0,0.0,0.0,0.0,0.0,0.0,0.0,0.0,0.0,0.0,0.0,0.0,0.0,0.0,0.0,0.0,0.0,0.0,0.0,0.0,0.0,0.0,0.0,0.0,0.0,0.0,0.0,0.0,0.0,0.0,0.0,0.0,0.0,0.0,0.0,0.0,0.0,0.0,0.0,0.0,0.0,0.0,0.0,0.0,0.0,0.0,0.0,0.0,0.0,0.0,0.0,0.0,0.0,0.0,0.0,0.0,0.0,0.0,0.0,0.0,0.0,0.0,0.0,0.0,0.0,0.0,0.0,0.0,0.0,0.0,0.0,0.0,0.0,0.0,0.0,0.0,0.0,0.0,0.0,0.0,0.0,0.0,0.0,0.0,0.0,0.0,0.0,0.0,0.0,0.0,0.0,0.0,0.0,0.0,0.0,0.0,0.0,0.0,0.0,0.0,0.0,0.0,0.0,0.0,0.0,0.0,0.0,0.0,0.0,0.0,0.0,0.0,0.0,0.0,0.0,0.0,0.0,0.0,0.0,0.0,0.0,0.0,0.0,0.0,0.0,0.0,0.0,0.0,0.0,0.0,0.0,0.0,0.0,0.0,0.0,0.0,0.0,0.0,0.0,0.0,0.0,0.0,0.0,0.0,0.0,0.0,0.0,0.0,0.0,0.0,0.0,0.0,0.0,0.0,0.0,0.0,0.0,0.0,0.0,0.0,0.0,0.0,0.0,0.0,0.0,0.0,0.0,0.0,0.0,0.0,0.0,0.0,0.0,0.0,0.0,0.0,0.0,0.0,0.0,0.0,0.0,0.0,0.0,0.0,0.0,0.0,0.0,0.0,0.0,0.0,0.0,0.0,0.0,0.0,0.0,0.0,0.0,0.0,0.0,0.0,0.0,0.0,0.0,0.0,0.0,0.0,0.0,0.0,0.0,0.0,0.0,0.0,0.0,0.0,0.0,0.0,0.0,0.0,0.0,0.0,0.0,0.0,0.0,0.0,0.0,0.0,0.0,0.0,0.0,0.0,0.0,0.0,0.0,0.0,0.0,0.0,0.0,0.0,0.0,0.0,0.0,0.0,0.0,0.0,0.0,0.0,0.0,0.0,0.0,0.0,0.0,0.0,0.0,0.0,0.0,0.0,0.0,0.0,0.0,0.0,0.0,0.0,0.0,0.0,0.0,0.0,0.0,0.0,0.0,0.0,0.0,0.0,0.0,0.0,0.0,0.0,0.0,0.0,0.0,0.0,0.0,0.0,0.0,0.0,0.0,0.0,0.0,0.0,0.0,0.0,0.0,0.0,0.0,0.0,0.0,0.0,0.0,0.0,0.0,0.0,0.0,0.0,0.0,0.0,0.0,0.0,0.0,0.0,0.0,0.0,0.0,0.0,0.0,0.0,0.0,0.0,0.0,0.0,0.0,0.0,0.0,0.0,0.0,0.0,0.0,0.0,0.0,0.0,0.0,0.0,0.0,0.0,0.0,0.0,0.0,0.0,0.0,0.0,0.0,0.0,0.0,0.0,0.0,0.0,0.0,0.0,0.0,0.0,0.0,0.0,0.0,0.0,0.0,0.0,0.0,0.0,0.0,0.0,0.0,0.0,0.0,0.0,0.0,0.0,0.0,0.0,0.0,0.0,0.0,0.0,0.0,0.0,0.0,0.0,0.0,0.0,0.0,0.0,0.0,0.0,0.0,0.0,0.0,0.0,0.0,0.0,0.0,0.0,0.0,0.0,0.0,0.0,0.0,0.0,0.0,0.0,0.0,0.0,0.0,0.0,0.0,0.0,0.0,0.0,0.0,0.0,0.0,0.0,0.0,0.0,0.0,0.0,0.0,0.0,0.0,0.0,0.0,0.0,0.0,0.0,0.0,0.0,0.0,0.0,0.0,0.0,0.0,0.0,0.0,0.0,0.0,0.0,0.0,0.0,0.0,0.0,0.0,0.0,0.0,0.0,0.0,0.0,0.0,0.0,0.0,0.0,0.0,0.0,0.0,0.0,0.0,0.0,0.0,0.0,0.0,0.0,0.0,0.0,0.0,0.0,0.0,0.0,0.0,0.0,0.0,0.0,0.0,0.0,0.0,0.0,0.0,0.0,0.0,0.0,0.0,0.0,0.0,0.0,0.0,0.0,0.0,0.0,0.0,0.0,0.0,0.0,0.0,0.0,0.0,0.0,0.0,0.0,0.0,0.0,0.0,0.0,0.0,0.0,0.0,0.0,0.0,0.0,0.0,0.0,0.0,0.0,0.0,0.0,0.0,0.0,0.0,0.0,0.0,0.0,0.0,0.0,0.0,0.0,0.0,0.0,0.0,0.0,0.0,0.0,0.0,0.0,0.0,0.0,0.0,0.0,0.0,0.0,0.0,0.0,0.0,0.0,0.0,0.0,0.0,0.0,0.0,0.0,0.0,0.0,0.0,0.0,0.0,0.0,0.0,0.0,0.0,0.0,0.0,0.0,0.0,0.0,0.0,0.0,0.0,0.0,0.0,0.0,0.0,0.0,0.0,0.0,0.0,0.0,0.0,0.0,0.0,0.0,0.0,0.0,0.0,0.0,0.0,0.0,0.0,0.0,0.0,0.0,0.0,0.0,0.0,0.0,0.0,0.0,0.0,0.0,0.0,0.0,0.0,0.0,0.0,0.0,0.0,0.0,0.0,0.0,0.0,0.0,0.0,0.0,0.0,0.0,0.0,0.0,0.0,0.0,0.0,0.0,0.0,0.0,0.0,0.0,0.0,0.0,0.0,0.0,0.0,0.0,0.0,0.0,0.0,0.0,0.0,0.0,0.0,0.0,0.0,0.0,0.0,0.0,0.0,0.0,0.0,0.0,0.0,0.0,0.0,0.0,0.0,0.0,0.0,0.0,0.0,0.0,0.0,0.0,0.0,0.0,0.0,0.0,0.0,0.0,0.0,0.0,0.0,0.0,0.0,0.0,0.0,0.0,0.0,0.0,0.0,0.0,0.0,0.0,0.0,0.0,0.0,0.0,0.0,0.0,0.0,0.0,0.0,0.0,0.0,0.0,0.0,0.0,0.0,0.0,0.0,0.0,0.0,0.0,0.0,0.0,0.0,0.0,0.0,0.0,0.0,0.0,0.0,0.0,0.0,0.0,0.0,0.0,0.0,0.0,0.0,0.0,0.0,0.0,0.0,0.0,0.0,0.0,0.0,0.0,0.0,0.0,0.0,0.0,0.0,0.0,0.0,0.0,0.0,0.0,0.0,0.0,0.0,0.0,0.0,0.0,0.0,0.0,0.0,0.0,0.0,0.0,0.0,0.0,0.0,0.0,0.0,0.0,0.0,0.0,0.0,0.0,0.0,0.0,0.0,0.0,0.0,0.0,0.0,0.0,0.0,0.0,0.0,0.0,0.0,0.0,0.0,0.0,0.0,0.0,0.0,0.0,0.0,0.0,0.0,0.0,0.0,0.0,0.0,0.0,0.0,0.0,0.0,0.0,0.0,0.0,0.0,0.0,0.0,0.0,0.0,0.0,0.0,0.0,0.0,0.0,0.0,0.0,0.0,0.0,0.0,0.0,0.0,0.0,0.0,0.0,0.0,0.0,0.0,0.0,0.0,0.0,0.0,0.0,0.0,0.0,0.0,0.0,0.0,0.0,0.0,0.0,0.0,0.0,0.0,0.0,0.0,0.0,0.0,0.0,0.0,0.0,0.0,0.0,0.0,0.0,0.0,0.0,0.0,0.0,0.0,0.0,0.0,0.0,0.0,0.0,0.0,0.0,0.0,0.0,0.0,0.0,0.0,0.0,0.0,0.0,0.0,0.0,0.0,0.0,0.0,0.0,0.0,0.0,0.0,0.0,0.0,0.0,0.0,0.0,0.0,0.0,0.0,0.0,0.0,0.0,0.0,0.0,0.0,0.0,0.0,0.0,0.0,0.0,0.0,0.0,0.0,0.0,0.0,0.0,0.0,0.0,0.0,0.0,0.0,0.0,0.0,0.0,0.0,0.0,0.0,0.0,0.0,0.0,0.0,0.0,0.0,0.0,0.0,0.0,0.0,0.0,0.0,0.0,0.0,0.0,0.0,0.0,0.0,0.0,0.0,0.0,0.0,0.0,0.0,0.0,0.0,0.0,0.0,0.0,0.0,0.0,0.0,0.0,0.0,0.0,0.0,0.0,0.0,0.0,0.0,0.0,0.0,0.0,0.0,0.0,-0.9666,0.0,0.0,0.0,0.0,0.0,0.0,0.0,0.0,0.0,0.0,0.0,0.0,0.0,0.0,0.0,0.0,0.0,0.0,0.0,0.0,0.0,0.0,0.0,0.0,0.0,0.0,0.0,0.0,0.0,0.0,0.0,0.0,0.0,0.0,0.0,0.0,0.0,0.0,0.0,-0.934,-0.9523,-0.9815,-0.9815,-0.9774,-0.9713,0.0,0.0,0.0,0.0,0.0,0.0,0.0,0.0,0.0,0.0,0.0,0.0,0.0,0.0,0.0,0.0,0.0,0.0,0.0,0.0,0.0,0.0,0.0,0.0,0.0,0.0,0.0,0.0,0.0,0.0,0.0,0.0,0.0,0.0,0.0,0.0,0.0,0.0,0.0,0.0,0.0,0.0,0.0,0.0,0.0,0.0,0.0,0.0,0.0,0.0,0.0,0.0,0.0,0.0,0.0,0.0,0.0,0.0,0.0,0.0,0.0,0.0,0.0,0.0,0.0,0.0,0.0,0.0,0.0,0.0,0.0,-0.9992,0.0,0.0,0.0,0.0,0.0,0.0,0.0,0.0,0.0,0.0,0.0,0.0,0.0,0.0,0.0,0.0,0.0,0.0,0.0,0.0,0.0,0.0,0.0,0.0,0.0,0.0,0.0,0.0,0.0,0.0,0.0,0.0,0.0,0.0,0.0,-0.9062,-0.9083,-0.9364,-0.9591,-0.993,-1.0317,-1.0317,-1.0195,-0.9978,-0.9924,0.0,0.0,0.0,0.0,0.0,0.0,0.0,0.0,0.0,0.0,0.0,0.0,0.0,0.0,0.0,0.0,0.0,0.0,0.0,0.0,0.0,0.0,0.0,0.0,0.0,0.0,0.0,0.0,0.0,0.0,0.0,0.0,0.0,0.0,0.0,0.0,0.0,0.0,0.0,0.0,0.0,0.0,0.0,0.0,0.0,0.0,0.0,0.0,0.0,0.0,0.0,0.0,0.0,0.0,0.0,0.0,0.0,0.0,0.0,0.0,0.0,0.0,0.0,-1.1375,-1.1518,-1.1735,-1.1789,-1.1796,-1.1742,-1.1145,-1.0636,-1.0249,-1.0324,0.0,0.0,0.0,0.0,0.0,0.0,0.0,0.0,0.0,0.0,0.0,0.0,0.0,0.0,0.0,0.0,0.0,0.0,0.0,0.0,0.0,0.0,-0.9483,-0.9598,-0.9591,0.0,0.0,0.0,0.0,0.0,0.0,0.0,0.0,-0.9273,-0.9388,-0.9869,-1.0107,-1.0283,-1.0466,-1.0466,-1.0514,-1.0588,-1.0337,-1.0148,-0.9957,0.0,0.0,0.0,0.0,0.0,0.0,0.0,0.0,0.0,0.0,0.0,0.0,0.0,0.0,0.0,0.0,0.0,0.0,0.0,0.0,0.0,0.0,0.0,0.0,0.0,0.0,0.0,0.0,0.0,0.0,0.0,0.0,0.0,0.0,0.0,0.0,0.0,0.0,0.0,0.0,0.0,-1.0202,-1.0004,0.0,0.0,0.0,0.0,0.0,0.0,0.0,0.0,0.0,0.0,0.0,0.0,0.0,-1.1219,-1.1525,-1.1633,-1.1769,-1.1945,-1.2203,-1.2284,-1.221,-1.2467,-1.2515,-1.2386,-1.242,0.0,-1.0995,-1.0758,0.0,0.0,0.0,0.0,0.0,0.0,0.0,0.0,0.0,0.0,0.0,0.0,0.0,0.0,0.0,0.0,0.0,0.0,0.0,0.0,0.0,-0.9605,-0.9781,-0.9849,-0.9937,-0.9883,0.0,0.0,0.0,0.0,0.0,-0.9275,-0.9347,-0.9306,-0.9618,-1.0297,-1.0541,-1.0772,-1.1002,-1.1084,-1.1158,-1.1219,-1.109,-1.0758,-1.0283,-1.0058,0.0,0.0,0.0,0.0,0.0,0.0,0.0,0.0,0.0,0.0,0.0,0.0,0.0,0.0,0.0,0.0,0.0,0.0,0.0,0.0,0.0,0.0,0.0,0.0,0.0,0.0,0.0,0.0,0.0,0.0,0.0,0.0,0.0,0.0,0.0,0.0,0.0,0.0,0.0,-1.01,-1.0256,-1.0188,-1.0181,-1.012,0.0,0.0,0.0,0.0,0.0,0.0,0.0,0.0,0.0,-1.147,-1.1843,-1.2108,-1.2244,-1.2393,-1.2583,-1.2813,-1.2949,-1.3064,-1.3166,-1.3295,-1.3315,-1.3254,-1.3322,-1.2996,-1.2366,-1.164,-1.1118,-1.0738,0.0,0.0,0.0,0.0,-1.0324,-1.0351,0.0,0.0,0.0,0.0,0.0,0.0,0.0,0.0,0.0,0.0,0.0,0.0,-0.9483,-0.9863,-1.0107,-1.0107,-1.0249,-1.0202,-0.9897,0.0,0.0,0.0,0.0,-0.9228,-0.9268,-0.9476,-0.9937,-1.0609,-1.0914,-1.1233,-1.1565,-1.1681,-1.1775,-1.1843,-1.1769,-1.1314,-1.0595,-1.0307,-1.0152,-1.0031,0.0,0.0,0.0,0.0,0.0,0.0,0.0,0.0,0.0,0.0,0.0,0.0,0.0,0.0,0.0,0.0,0.0,0.0,0.0,0.0,0.0,0.0,0.0,0.0,0.0,0.0,0.0,0.0,0.0,0.0,0.0,0.0,0.0,0.0,0.0,0.0,0.0,-1.0283,-1.0412,-1.0297,-1.0385,-1.0378,0.0,0.0,0.0,0.0,0.0,0.0,-1.1219,-1.166,-1.204,-1.2338,-1.2779,-1.3051,-1.3132,-1.3322,-1.3526,-1.3743,-1.3743,-1.3858,-1.4068,-1.4068,-1.4068,-1.4068,-1.4027,-1.3865,-1.3553,-1.2535,-1.1857,-1.1409,-1.0995,-1.0812,-1.0792,-1.0907,-1.0948,-1.0982,0.0,0.0,0.0,0.0,0.0,0.0,0.0,0.0,0.0,0.0,0.0,-0.949,-0.9768,-1.008,-1.027,-1.027,-1.0399,-1.0358,-0.9997,-0.9903,-0.9754,-0.9605,-0.9313,-0.9275,-0.9367,-0.9937,-1.046,-1.086,-1.1226,-1.1592,-1.2026,-1.2033,-1.2189,-1.2447,-1.2162,-1.1626,-1.0853,-1.084,-1.0656,-1.0256,-1.01,0.0,0.0,0.0,0.0,0.0,0.0,0.0,0.0,0.0,0.0,0.0,0.0,0.0,0.0,0.0,0.0,0.0,0.0,0.0,0.0,0.0,0.0,0.0,0.0,0.0,0.0,0.0,0.0,0.0,0.0,0.0,0.0,0.0,0.0,0.0,0.0,0.0,0.0,-1.0331,-1.0656,0.0,0.0,0.0,0.0,-1.1152,-1.1511,-1.1837,-1.1999,-1.2433,-1.2807,-1.3105,-1.3553,-1.3926,-1.4217,-1.4502,-1.4658,-1.4672,-1.4672,-1.4679,-1.4692,-1.4692,-1.4692,-1.4685,-1.4543,-1.4394,-1.4183,-1.3281,-1.2637,-1.2203,-1.1884,-1.1681,-1.1565,-1.1572,-1.1572,-1.1579,0.0,0.0,0.0,0.0,0.0,0.0,0.0,0.0,0.0,-0.9015,-0.9313,-0.9605,-0.9802,-1.0351,-1.0744,-1.0839,-1.0982,-1.0941,-1.0584,-1.0152,-0.9802,-0.9618,-0.9225,-0.9218,-0.9652,-1.0256,-1.0785,-1.1233,-1.1626,-1.1999,-1.2345,-1.2447,-1.2603,-1.2793,-1.2684,-1.2332,-1.1782,-1.1294,-1.0941,-1.069,-1.0439,-1.0222,0.0,0.0,0.0,0.0,0.0,0.0,0.0,0.0,0.0,0.0,0.0,0.0,0.0,0.0,0.0,0.0,0.0,0.0,0.0,0.0,0.0,0.0,0.0,0.0,0.0,0.0,0.0,0.0,0.0,0.0,0.0,0.0,0.0,0.0,0.0,0.0,0.0,-1.1151,-1.1619,0.0,-1.1531,-1.164,-1.1735,-1.1814,-1.225,-1.2712,-1.3051,-1.3498,-1.3919,-1.4319,-1.4577,-1.476,-1.4869,-1.497,-1.5025,-1.5025,-1.5025,-1.5025,-1.5025,-1.493,-1.4889,-1.4882,-1.4726,-1.4631,-1.455,-1.4129,-1.358,-1.2963,-1.2569,-1.2379,-1.2345,-1.2447,-1.2481,-1.2508,0.0,0.0,0.0,0.0,0.0,0.0,0.0,0.0,0.0,-0.9087,-0.9469,-0.9815,-1.0098,-1.0738,-1.1138,-1.1233,-1.1335,-1.1199,-1.0751,-1.0186,-0.9815,-0.9469,-0.9218,-0.9415,-1.0107,-1.0568,-1.109,-1.1694,-1.204,-1.2386,-1.2732,-1.2834,-1.2963,-1.3105,-1.3057,-1.2868,-1.2549,-1.1945,-1.1463,-1.107,-1.0765,-1.05,-1.0193,0.0,0.0,0.0,0.0,0.0,0.0,0.0,0.0,0.0,0.0,0.0,0.0,0.0,0.0,0.0,0.0,0.0,0.0,0.0,0.0,0.0,0.0,0.0,0.0,0.0,0.0,0.0,0.0,0.0,0.0,0.0,0.0,0.0,0.0,0.0,-1.1653,-1.1755,-1.2338,-1.263,-1.2463,-1.2549,-1.2684,-1.2739,-1.32,-1.3661,-1.4061,-1.4407,-1.476,-1.5106,-1.5262,-1.5357,-1.5411,-1.5411,-1.5411,-1.5411,-1.5357,-1.5337,-1.5337,-1.5242,-1.5167,-1.5113,-1.4957,-1.4835,-1.4726,-1.4577,-1.419,-1.3668,-1.3322,-1.3152,-1.3119,-1.322,-1.3261,-1.3281,0.0,0.0,0.0,0.0,0.0,0.0,0.0,0.0,0.0,-0.9537,-0.9727,-1.0107,-1.0799,-1.1219,-1.1402,-1.1409,-1.1402,-1.1084,-1.0351,-0.9998,-0.9625,-0.9234,-0.9327,-0.9829,-1.0711,-1.0826,-1.1416,-1.2298,-1.2447,-1.2745,-1.318,-1.3186,-1.3268,-1.341,-1.3254,-1.3186,-1.3159,-1.2868,-1.2237,-1.1409,-1.1097,-1.0813,-1.0683,0.0,0.0,0.0,0.0,0.0,0.0,0.0,0.0,0.0,0.0,0.0,0.0,0.0,0.0,0.0,0.0,0.0,0.0,0.0,0.0,0.0,0.0,0.0,0.0,0.0,0.0,0.0,0.0,0.0,0.0,0.0,0.0,0.0,-1.0758,-1.1525,-1.2094,-1.2115,-1.2773,-1.3166,-1.303,-1.3281,-1.3634,-1.4075,-1.438,-1.4679,-1.4984,-1.5133,-1.5282,-1.5425,-1.5581,-1.5723,-1.5866,-1.5872,-1.5872,-1.5872,-1.573,-1.5662,-1.5662,-1.5649,-1.5567,-1.5418,-1.5255,-1.5025,-1.4746,-1.4584,-1.4434,-1.4299,-1.4143,-1.3987,-1.3858,-1.3858,-1.3858,-1.3838,0.0,0.0,0.0,0.0,0.0,0.0,0.0,0.0,-0.9022,-0.9252,-0.9598,-1.0107,-1.0799,-1.1314,-1.164,-1.1857,-1.1681,-1.1335,-1.0799,-1.0175,-0.9673,-0.9334,-0.9876,-1.0405,-1.0806,-1.1457,-1.1979,-1.244,-1.2807,-1.3112,-1.3342,-1.3451,-1.358,-1.3715,-1.3566,-1.3444,-1.3322,-1.3132,-1.2786,-1.2318,-1.1796,-1.1369,-1.1002,0.0,0.0,0.0,0.0,0.0,0.0,0.0,0.0,0.0,0.0,0.0,0.0,0.0,0.0,0.0,0.0,0.0,0.0,0.0,0.0,0.0,0.0,0.0,0.0,0.0,0.0,0.0,0.0,0.0,0.0,0.0,0.0,-1.1525,-1.1525,-1.221,-1.2874,-1.3302,-1.3919,-1.4292,-1.4251,-1.4516,-1.4746,-1.4869,-1.516,-1.5411,-1.5601,-1.575,-1.5852,-1.59,-1.6049,-1.6144,-1.6185,-1.6286,-1.6341,-1.6334,-1.6191,-1.6123,-1.6117,-1.59,-1.5771,-1.5716,-1.5459,-1.5303,-1.5194,-1.4828,-1.4652,-1.459,-1.434,-1.4211,-1.4177,-1.4177,-1.4177,-1.415,0.0,0.0,0.0,0.0,0.0,0.0,0.0,0.0,-0.9015,-0.9275,-0.9585,-1.0107,-1.0799,-1.1233,-1.1525,-1.1762,-1.145,-1.105,-1.0536,-0.9985,-0.9673,-0.9754,-1.029,-1.0846,-1.1402,-1.1959,-1.2454,-1.2881,-1.3207,-1.3437,-1.3587,-1.3675,-1.3763,-1.3838,-1.3756,-1.3634,-1.3492,-1.3403,-1.3227,-1.2969,-1.2494,-1.1999,-1.1504,-1.1206,-1.0955,-1.0738,-1.0677,-1.0683,-1.0677,-1.0419,0.0,0.0,0.0,0.0,0.0,0.0,0.0,0.0,0.0,0.0,0.0,0.0,0.0,0.0,0.0,0.0,0.0,0.0,0.0,0.0,0.0,0.0,0.0,0.0,-1.1667,-1.2244,-1.2623,-1.3051,-1.3526,-1.4055,-1.4652,-1.5045,-1.5113,-1.5384,-1.5588,-1.5649,-1.5818,-1.5981,-1.6123,-1.6218,-1.6266,-1.6266,-1.6293,-1.6341,-1.6395,-1.6422,-1.6463,-1.6517,-1.6435,-1.6368,-1.6307,-1.6123,-1.5974,-1.5845,-1.5669,-1.5486,-1.5296,-1.5031,-1.4814,0.0,0.0,0.0,0.0,0.0,-1.4299,-1.4278,0.0,0.0,0.0,0.0,0.0,0.0,0.0,0.0,-0.9042,-0.934,-0.9639,-1.0107,-1.0799,-1.1063,-1.1206,-1.1375,-1.0962,-1.05,-0.999,-0.9686,-0.9734,-1.0304,-1.0663,-1.124,-1.2094,-1.242,-1.2854,-1.3424,-1.3593,-1.3743,-1.3865,-1.3885,-1.3892,-1.3892,-1.3871,-1.3797,-1.3682,-1.3661,-1.3573,-1.3424,-1.3166,-1.2691,-1.2108,-1.1809,-1.1599,-1.145,-1.1314,-1.1118,-1.0907,-1.0846,0.0,0.0,0.0,0.0,0.0,0.0,0.0,0.0,0.0,0.0,0.0,0.0,0.0,0.0,0.0,0.0,0.0,0.0,0.0,0.0,0.0,0.0,0.0,0.0,-1.223,-1.2949,-1.3797,-1.396,-1.4143,-1.4536,-1.5106,-1.552,-1.5676,-1.5961,-1.6191,-1.6347,-1.6361,-1.6415,-1.6537,0.0,0.0,0.0,0.0,-1.6381,-1.6517,-1.6395,-1.6415,-1.6571,-1.6537,-1.6456,-1.6334,-1.632,-1.6151,-1.5879,-1.5957,-1.5622,-1.5228,-1.5181,-1.4896,-1.4475,-1.4346,-1.4299,-1.4299,-1.4299,-1.4299,-1.4278,0.0,0.0,0.0,0.0,0.0,0.0,0.0,0.0,-0.9042,-0.934,-0.9639,-1.0107,-1.0799,-1.0907,-1.1097,-1.1369,-1.0867,-1.0344,-0.9897,-1.0019,-1.0263,-1.0622,-1.1267,-1.1864,-1.2406,-1.2827,-1.322,-1.3587,-1.3851,-1.4,-1.4027,-1.4156,-1.4211,-1.4204,-1.4082,-1.4014,-1.398,-1.3851,-1.3783,-1.3749,-1.3695,-1.3241,-1.2569,-1.2271,-1.2067,-1.1925,-1.1971,-1.2006,-1.2081,-1.1606,-1.1565,-1.1606,-1.0975,0.0,0.0,0.0,0.0,0.0,0.0,0.0,0.0,0.0,0.0,0.0,0.0,0.0,0.0,0.0,0.0,0.0,0.0,0.0,0.0,-1.2081,-1.2963,-1.377,-1.4306,-1.4692,-1.4957,-1.5045,-1.5472,-1.5825,-1.5981,-1.6259,-1.6503,-1.6653,-1.6666,-1.6673,-1.6707,-1.6585,-1.6469,-1.6354,-1.6327,-1.6381,-1.6517,-1.6497,-1.6619,-1.689,0.0,0.0,-1.6476,-1.6361,-1.6212,-1.6029,-1.5906,-1.5737,-1.552,-1.516,-1.4746,-1.434,-1.4312,-1.4299,-1.4299,-1.4299,-1.4299,-1.4278,0.0,0.0,0.0,0.0,0.0,0.0,0.0,0.0,-0.8939,-0.9144,-0.9415,-0.9774,-1.0229,-1.028,-1.0446,-1.0588,-1.0331,-1.0059,-0.9836,-1.0249,-1.0704,-1.1151,-1.1742,-1.2271,-1.2725,-1.3173,-1.3512,-1.3736,-1.4034,-1.4183,-1.419,-1.4265,-1.4299,-1.4299,-1.4217,-1.4143,-1.4068,-1.3987,-1.3912,-1.3838,-1.3838,-1.362,-1.3261,-1.3044,-1.2868,-1.2725,-1.2644,-1.2617,-1.2562,-1.2182,-1.2115,-1.2088,-1.1558,-1.124,-1.0982,0.0,0.0,0.0,0.0,0.0,0.0,0.0,0.0,0.0,0.0,0.0,0.0,0.0,0.0,-1.09,0.0,0.0,-1.2345,-1.2874,-1.3587,-1.4224,-1.4679,-1.5126,-1.5411,-1.5411,-1.5805,-1.6137,-1.6286,-1.6578,-1.6781,-1.6863,-1.6863,-1.6863,-1.6863,-1.672,-1.6605,-1.653,-1.6456,-1.6415,-1.6415,-1.6564,-1.6673,-1.6754,-1.6754,-1.6673,-1.6517,-1.6449,-1.6293,-1.6076,-1.592,-1.5771,-1.5601,-1.5153,-1.4794,-1.4516,-1.4434,-1.436,-1.4299,-1.4299,-1.4299,-1.4292,0.0,0.0,0.0,0.0,0.0,0.0,0.0,0.0,0.0,-0.8885,-0.9198,-0.9442,-0.9591,-0.9713,-0.9754,-0.9693,-0.9795,-0.9863,-0.9863,-1.0453,-1.1077,-1.1681,-1.2162,-1.2617,-1.3037,-1.3485,-1.377,-1.3885,-1.4163,-1.4299,-1.4299,-1.4299,-1.4299,-1.4299,-1.4299,-1.4231,-1.4116,-1.4116,-1.4048,-1.3933,-1.3933,-1.3933,-1.3912,-1.377,-1.362,-1.3464,-1.3281,-1.301,-1.2705,-1.2556,-1.2406,-1.2244,-1.1965,-1.1775,-1.1545,-1.0975,-1.0636,0.0,0.0,0.0,0.0,0.0,0.0,0.0,0.0,0.0,-1.0751,-1.0988,-1.1362,-1.1653,-1.1952,-1.2501,-1.3071,-1.3587,-1.4122,-1.4611,-1.4997,-1.5445,-1.5723,-1.5723,-1.6096,-1.6408,-1.6551,-1.6815,-1.6978,-1.6978,-1.6978,-1.6971,-1.6937,-1.6788,-1.6693,-1.6666,-1.6544,-1.6435,-1.6354,-1.6585,-1.6659,-1.6571,-1.6788,-1.6748,-1.6483,-1.6483,-1.6334,-1.6069,-1.5893,-1.571,-1.552,-1.5099,-1.4835,-1.4679,-1.4529,-1.4401,-1.4299,-1.4299,-1.4299,-1.4299,0.0,0.0,0.0,0.0,0.0,0.0,0.0,0.0,0.0,-0.8885,-0.9198,-0.9442,0.0,0.0,-0.9523,-0.9309,-0.9713,-0.9963,-0.9963,-1.0704,-1.1382,-1.1986,-1.2576,-1.303,-1.3342,-1.379,-1.4027,-1.4048,-1.4217,-1.4299,-1.4299,-1.4299,-1.4299,-1.4299,-1.4299,-1.4292,-1.4272,-1.4272,-1.4265,-1.4251,-1.4251,-1.4251,-1.4231,-1.4082,-1.3926,-1.3756,-1.3478,-1.3098,-1.2705,-1.2556,-1.2406,-1.2257,-1.2088,-1.1932,-1.1714,-1.1253,0.0,-1.0263,-1.0011,-0.999,-1.0044,-1.0222,-1.0365,-1.0541,0.0,0.0,-1.1375,-1.1667,-1.1979,-1.2277,-1.2576,-1.3119,-1.3593,-1.3783,-1.4529,-1.5147,-1.5337,-1.575,-1.6029,-1.6029,-1.6307,-1.6558,-1.6707,-1.6876,-1.6978,-1.6978,-1.6978,-1.6917,-1.6781,-1.6632,-1.649,-1.6361,-1.6341,-1.6388,-1.6497,-1.653,-1.6605,-1.672,-1.6619,-1.649,-1.6334,-1.6334,-1.6239,-1.6062,-1.5784,-1.5499,-1.5208,-1.4896,-1.4672,-1.4523,-1.438,-1.4312,-1.4299,-1.4299,-1.4299,-1.4299,0.0,0.0,0.0,0.0,0.0,0.0,0.0,0.0,0.0,0.0,0.0,-0.915,0.0,-0.9218,-0.9171,-0.9042,-0.9571,-0.9992,-1.0175,-1.1043,-1.1782,-1.2298,-1.2895,-1.3315,-1.3532,-1.3885,-1.4075,-1.4075,-1.4224,-1.4299,-1.4299,-1.4299,-1.4299,-1.4299,-1.4299,-1.4299,-1.4299,-1.4299,-1.4299,-1.4299,-1.4299,-1.4299,-1.4265,-1.3939,-1.3715,-1.3532,-1.3146,-1.2779,0.0,0.0,-1.2128,-1.2149,-1.2155,-1.1898,-1.1619,-1.1172,-1.0738,0.0,-1.0324,-1.0304,-1.0365,0.0,-1.0914,-1.1226,-1.1531,-1.1823,-1.2149,-1.2528,-1.2786,-1.3024,-1.3322,-1.3729,-1.4122,0.0,-1.4957,-1.5371,-1.552,-1.5852,-1.6015,-1.5845,-1.6083,-1.6327,-1.6476,-1.6788,-1.6944,-1.6849,-1.6842,-1.6856,-1.6883,-1.6578,-1.6408,-1.6429,-1.6435,-1.6381,-1.6266,-1.6612,-1.6686,-1.6497,-1.6605,-1.653,-1.6307,-1.6307,-1.613,-1.5811,-1.5601,-1.5337,-1.5052,-1.4923,-1.4733,-1.4509,-1.4448,-1.4373,-1.4299,-1.4299,-1.4299,-1.4299,0.0,0.0,0.0,0.0,0.0,0.0,0.0,0.0,0.0,0.0,0.0,0.0,0.0,-0.8885,-0.8885,-0.8885,-0.9401,-0.9849,-1.0195,-1.1036,-1.1782,-1.2352,-1.2956,-1.339,-1.3627,-1.396,-1.4136,-1.4136,-1.4245,-1.4299,-1.4299,-1.4299,-1.4299,-1.4299,-1.4299,-1.4299,-1.4299,-1.4299,-1.4299,-1.4299,-1.4299,-1.4224,-1.4068,-1.3661,-1.3281,-1.2929,-1.2651,-1.2305,0.0,0.0,-1.1633,-1.1701,-1.1742,-1.1633,-1.1416,-1.0934,-1.0643,-1.0378,-1.0419,0.0,0.0,-1.1029,-1.1531,-1.1952,-1.2291,-1.2562,-1.2868,-1.3275,-1.3478,-1.3661,-1.3919,-1.4217,-1.4543,-1.4909,-1.5255,-1.5527,-1.5676,-1.5886,-1.5927,-1.5669,-1.5825,-1.5988,-1.6056,-1.651,-1.6781,-1.6754,-1.6714,-1.6754,-1.691,-1.6564,-1.6395,-1.6463,-1.6503,-1.6402,-1.6144,-1.6659,-1.6714,-1.6313,-1.6564,-1.653,-1.6246,-1.6205,-1.5961,-1.5567,-1.5411,-1.5208,-1.4964,-1.4882,-1.4713,-1.4509,-1.4468,-1.4387,-1.4299,-1.4299,-1.4299,-1.4299,0.0,0.0,0.0,0.0,0.0,0.0,0.0,0.0,0.0,0.0,0.0,0.0,0.0,0.0,-0.8885,-0.8885,-0.9218,-0.9585,-0.9963,-1.0429,-1.1151,-1.204,-1.2651,-1.318,-1.362,-1.4068,-1.4292,-1.4292,-1.4299,-1.4299,-1.4299,-1.4299,-1.4299,-1.4299,-1.4299,-1.4299,-1.4299,-1.4299,-1.4299,-1.4299,-1.4299,-1.4041,-1.3614,-1.3302,-1.2644,-1.1898,-1.2033,0.0,0.0,0.0,-1.0813,-1.0785,-1.0867,-1.107,0.0,-1.0819,-1.0412,0.0,0.0,0.0,-1.1008,-1.1588,-1.2142,-1.2589,-1.3037,-1.3261,-1.3458,-1.3756,-1.3946,-1.4102,-1.4258,-1.4529,-1.478,-1.4943,-1.5343,-1.5683,-1.5825,-1.5852,-1.5805,-1.5655,-1.5649,-1.5594,0.0,-1.5981,-1.6449,-1.6727,-1.6612,-1.6598,-1.6748,-1.6605,-1.6456,-1.632,-1.6449,-1.6449,-1.6307,-1.6605,-1.6605,-1.6313,-1.6456,-1.6374,-1.6083,-1.5934,-1.5703,-1.5411,-1.5255,-1.5106,-1.495,-1.4652,-1.4523,-1.4496,-1.436,-1.4306,-1.4299,-1.4299,-1.4299,-1.4299,0.0,0.0,0.0,0.0,0.0,0.0,0.0,0.0,0.0,0.0,0.0,0.0,0.0,0.0,0.0,0.0,-0.9117,-0.9381,-0.9734,-1.027,-1.0792,-1.1301,-1.2088,-1.2678,-1.3024,-1.3471,-1.3797,-1.3994,-1.3994,-1.3994,-1.4,-1.4102,-1.415,-1.415,-1.4251,-1.4299,-1.4299,-1.4299,-1.4183,-1.398,-1.3783,-1.3498,-1.3112,-1.2406,-1.183,-1.1341,0.0,0.0,0.0,0.0,0.0,0.0,-1.0453,0.0,0.0,-1.0181,0.0,0.0,0.0,0.0,-1.1602,-1.2277,-1.2766,-1.3186,-1.3539,-1.3736,-1.3905,-1.4102,-1.3871,-1.3641,-1.3695,-1.3865,-1.4082,-1.4333,-1.4997,-1.5574,-1.5818,-1.594,-1.5839,-1.5391,-1.5425,0.0,0.0,0.0,0.0,-1.6293,-1.6354,-1.649,-1.6734,-1.6517,-1.6402,-1.6449,-1.6402,-1.6307,-1.6157,-1.6449,-1.6449,-1.6157,-1.6205,-1.6123,-1.5927,-1.5778,-1.5547,-1.5248,-1.5106,-1.4896,-1.4658,-1.4557,-1.4455,-1.4367,-1.4319,-1.4299,-1.4299,-1.4299,-1.4299,-1.4299,0.0,0.0,0.0,0.0,0.0,0.0,0.0,0.0,0.0,0.0,0.0,0.0,0.0,0.0,0.0,0.0,0.0,-0.9205,-0.951,-0.9883,-1.0276,-1.069,-1.1362,-1.1864,-1.2162,-1.2562,-1.2854,-1.3044,-1.3152,-1.3207,-1.3207,-1.3417,-1.3539,-1.3593,-1.3695,-1.377,-1.3817,-1.3763,-1.3627,-1.3417,-1.3119,-1.2793,-1.2406,-1.1714,-1.1206,0.0,0.0,0.0,0.0,0.0,0.0,0.0,0.0,0.0,0.0,0.0,0.0,0.0,0.0,-1.1628,-1.2298,-1.2901,-1.3349,-1.3702,-1.3946,-1.4082,-1.415,-1.4136,-1.3702,-1.3288,-1.318,-1.32,-1.3322,-1.3627,-1.4245,-1.4889,-1.5459,-1.5438,-1.5337,-1.5269,-1.516,-1.5018,0.0,0.0,0.0,-1.5974,-1.6144,-1.6361,-1.6653,-1.649,-1.6429,-1.6517,-1.6381,-1.6259,-1.6164,-1.6347,-1.6347,-1.6164,-1.6049,-1.592,-1.5771,-1.5567,-1.5371,-1.5167,-1.4916,-1.4726,-1.4584,-1.4482,-1.438,-1.4299,-1.4299,-1.4299,-1.4299,-1.4299,-1.4299,-1.4299,0.0,0.0,0.0,0.0,0.0,0.0,0.0,0.0,0.0,0.0,0.0,0.0,0.0,0.0,0.0,0.0,0.0,0.0,-0.934,-0.9361,-0.9618,-1.0195,-1.0514,-1.0812,-1.1179,-1.1416,-1.1579,-1.1599,-1.1877,-1.2013,-1.2094,-1.2311,-1.2522,-1.2664,-1.2671,-1.2752,-1.2881,-1.2745,-1.2671,-1.2623,-1.2338,-1.1959,-1.1525,-1.1212,-1.0744,-1.0215,0.0,0.0,0.0,0.0,0.0,0.0,0.0,0.0,0.0,0.0,0.0,-1.0928,-1.1674,-1.2318,-1.2915,-1.3505,-1.3871,-1.4122,-1.4265,-1.4285,-1.419,-1.3871,-1.3431,-1.301,0.0,0.0,-1.2583,-1.2888,-1.3234,-1.3824,-1.4848,-1.4516,-1.4475,0.0,0.0,0.0,0.0,0.0,0.0,-1.5909,0.0,-1.6198,-1.6497,-1.6517,-1.6517,-1.651,-1.6381,-1.6307,-1.63,-1.63,-1.63,-1.6293,-1.5995,-1.5778,-1.5628,-1.533,-1.5181,-1.5133,-1.4706,-1.4597,-1.4699,-1.4414,-1.4299,-1.4299,-1.4299,-1.4299,-1.4299,-1.4299,-1.4299,-1.4299,0.0,0.0,0.0,0.0,0.0,0.0,0.0,0.0,0.0,0.0,0.0,0.0,0.0,0.0,0.0,0.0,0.0,0.0,-0.9042,-0.9049,-0.9164,-0.9487,-0.9829,-1.0195,-1.05,-1.0799,-1.1056,-1.128,-1.1425,-1.1459,-1.1396,-1.1586,-1.1694,-1.1735,-1.185,-1.1925,-1.1965,-1.2033,-1.1864,-1.1545,-1.1362,-1.1084,-1.0738,-1.0317,-1.0073,0.0,0.0,0.0,0.0,0.0,0.0,0.0,0.0,0.0,-1.0243,0.0,0.0,-1.1552,-1.2298,-1.2942,-1.3492,-1.3865,-1.4102,-1.4251,-1.4292,-1.4122,-1.3844,-1.3431,-1.2718,-1.2047,0.0,0.0,0.0,-1.2569,-1.362,0.0,-1.5215,-1.5357,0.0,-1.5567,0.0,-1.5289,-1.5147,-1.5228,0.0,0.0,-1.5893,-1.6042,-1.6347,-1.6463,-1.6476,-1.6368,-1.6327,-1.6252,-1.6144,-1.6137,-1.6137,-1.6137,-1.5947,-1.5778,-1.5635,-1.5438,-1.5167,-1.4848,-1.4733,-1.4577,-1.4407,-1.4333,-1.4299,-1.4299,-1.4299,-1.4299,-1.4299,-1.4299,-1.4299,-1.4299,0.0,0.0,0.0,0.0,0.0,0.0,0.0,0.0,0.0,0.0,0.0,0.0,0.0,0.0,0.0,0.0,0.0,0.0,0.0,-0.8885,-0.8974,-0.9055,-0.93,-0.9517,-0.9686,-0.9856,-1.0053,-1.0347,-1.0415,-1.0412,-1.0487,-1.0636,-1.0738,-1.0806,-1.0894,-1.0968,-1.1036,-1.1118,-1.1002,0.0,0.0,-1.0388,-1.0263,-0.9944,-0.9822,0.0,0.0,0.0,0.0,0.0,0.0,-1.0371,-1.0527,-1.0663,-1.0867,-1.1389,0.0,-1.2257,-1.2942,-1.3464,-1.3878,-1.4116,-1.4238,-1.4231,-1.3966,-1.3722,-1.3363,-1.2718,-1.1979,0.0,0.0,0.0,0.0,0.0,0.0,0.0,-1.4821,-1.5065,-1.5289,0.0,-1.5642,0.0,-1.5398,-1.552,-1.5703,0.0,-1.6015,-1.6157,-1.6388,-1.6476,-1.6483,-1.6402,-1.6279,-1.6171,-1.6083,-1.6083,-1.6083,-1.6083,-1.5866,-1.5716,-1.5628,-1.535,-1.5079,-1.4835,0.0,-1.455,-1.4387,-1.4326,-1.4299,-1.4299,-1.4299,-1.4299,-1.4299,-1.4299,-1.4299,-1.4299,0.0,0.0,0.0,0.0,0.0,0.0,0.0,0.0,0.0,0.0,0.0,0.0,0.0,0.0,0.0,0.0,0.0,0.0,0.0,0.0,0.0,-0.8885,-0.8885,-0.8885,-0.8885,-0.8885,-0.9001,-0.918,-0.9259,-0.9388,-0.9523,-0.9646,-0.9714,-0.9842,-0.9903,-1.0047,-1.0134,-1.0154,-1.0161,-1.0154,-1.0039,-0.993,-0.9916,0.0,0.0,0.0,0.0,0.0,0.0,0.0,-1.0609,-1.0785,-1.0927,-1.1253,-1.1599,-1.2223,-1.2603,-1.2949,-1.3553,-1.3919,-1.4163,-1.4292,-1.4299,-1.4109,-1.3505,-1.3207,-1.28,-1.1898,0.0,-1.0766,-1.0663,-1.0739,-1.1049,-1.1626,0.0,-1.3186,-1.4238,-1.4421,-1.4753,-1.5567,-1.5683,-1.5696,-1.5696,-1.5811,-1.5954,-1.613,-1.6246,-1.6374,-1.6517,-1.6524,-1.651,-1.649,-1.6225,-1.6083,-1.6083,-1.6062,-1.6062,-1.6076,-1.5757,-1.5608,-1.5594,-1.5187,-1.4964,-1.4896,-1.4652,0.0,-1.4475,-1.4353,-1.4299,-1.4299,-1.4299,-1.4299,-1.4299,-1.4299,-1.4299,-1.4299,0.0,0.0,0.0,0.0,0.0,0.0,0.0,0.0,0.0,0.0,-0.8865,-0.8885,0.0,0.0,0.0,0.0,0.0,0.0,0.0,0.0,0.0,0.0,-0.8885,-0.8885,-0.8885,0.0,0.0,0.0,0.0,0.0,-0.8999,-0.9026,-0.9047,-0.9074,-0.913,-0.9211,-0.9412,-0.9483,-0.9537,-0.9544,-0.9646,-0.9686,-0.9686,0.0,0.0,0.0,0.0,0.0,0.0,0.0,-1.0677,-1.0927,-1.1518,-1.1803,-1.2088,-1.2807,-1.3146,-1.3417,-1.4021,-1.4306,-1.4441,-1.4468,-1.4292,-1.3953,-1.3349,-1.2813,0.0,0.0,-1.0819,-1.0487,-1.0152,-1.053,-1.115,-1.204,0.0,0.0,0.0,0.0,-1.5364,0.0,0.0,0.0,0.0,0.0,0.0,0.0,0.0,-1.6374,-1.6517,-1.6524,-1.6469,-1.6347,-1.6178,-1.6083,-1.6083,-1.5954,-1.5954,-1.6076,-1.5655,-1.5452,-1.5445,-1.5242,-1.4943,-1.4597,-1.4665,0.0,-1.4333,-1.4312,-1.4299,-1.4299,-1.4299,-1.4299,-1.4299,-1.4299,-1.4299,-1.4299,0.0,0.0,0.0,0.0,0.0,0.0,0.0,-0.8621,-0.8832,-0.913,-0.9171,-0.9137,-0.9055,-0.8981,0.0,0.0,0.0,0.0,0.0,0.0,0.0,0.0,0.0,0.0,0.0,0.0,0.0,0.0,0.0,0.0,0.0,0.0,0.0,0.0,0.0,0.0,0.0,0.0,0.0,0.0,0.0,0.0,0.0,0.0,0.0,0.0,0.0,0.0,0.0,0.0,-1.0636,-1.0995,-1.1742,-1.2216,-1.2644,-1.3234,-1.3573,-1.3844,-1.4292,-1.4516,-1.4611,-1.4529,-1.4231,-1.3736,-1.2901,0.0,0.0,0.0,-1.0297,-1.0127,-0.9997,0.0,0.0,0.0,0.0,0.0,0.0,0.0,0.0,0.0,0.0,0.0,0.0,0.0,0.0,0.0,0.0,-1.6442,-1.6741,-1.6605,-1.6456,-1.6313,-1.6157,-1.6083,-1.6083,-1.5934,-1.5893,-1.5961,-1.5588,-1.5371,-1.5289,-1.514,-1.4869,-1.4516,-1.459,0.0,-1.4299,-1.4299,-1.4299,-1.4299,-1.4299,-1.4299,-1.4299,-1.4299,-1.4299,-1.4299,0.0,0.0,0.0,0.0,0.0,0.0,0.0,-0.8866,-0.9103,-0.9435,-0.9449,-0.9395,-0.9364,-0.9137,-0.8952,0.0,0.0,0.0,0.0,0.0,0.0,0.0,0.0,0.0,0.0,0.0,0.0,0.0,0.0,0.0,0.0,0.0,0.0,0.0,0.0,0.0,0.0,0.0,0.0,0.0,0.0,0.0,0.0,0.0,0.0,0.0,0.0,0.0,0.0,0.0,-1.0534,-1.0894,-1.1619,-1.2305,-1.2949,-1.3403,-1.379,-1.4143,-1.4468,-1.4672,-1.4753,-1.4597,-1.4177,-1.3519,-1.2481,-1.1748,0.0,0.0,-0.9842,-0.9869,-0.9957,-1.0274,-1.0758,0.0,-1.1884,0.0,0.0,0.0,0.0,0.0,0.0,0.0,0.0,0.0,0.0,0.0,0.0,0.0,-1.6822,-1.6605,-1.6408,-1.6266,-1.6144,-1.6069,-1.6035,-1.5879,-1.5805,-1.5805,-1.5472,-1.5255,-1.5133,-1.4984,-1.4753,-1.4468,-1.4502,0.0,0.0,-1.4299,-1.4299,-1.4299,-1.4299,-1.4299,-1.4299,-1.4299,-1.4299,-1.4299,0.0,0.0,0.0,0.0,0.0,0.0,0.0,-0.8954,-0.9293,-0.9727,-0.9666,-0.9632,-0.9747,-0.951,-0.9232,0.0,0.0,0.0,0.0,0.0,0.0,0.0,0.0,0.0,0.0,0.0,0.0,0.0,0.0,0.0,0.0,0.0,0.0,0.0,0.0,0.0,0.0,0.0,0.0,0.0,0.0,0.0,0.0,0.0,0.0,0.0,0.0,0.0,0.0,0.0,0.0,-1.0595,-1.0941,-1.1735,-1.263,-1.3085,0.0,0.0,-1.4604,-1.4835,-1.4909,-1.476,-1.4177,-1.3376,-1.2325,0.0,0.0,-0.9998,-0.9829,-0.9869,-0.9957,-1.0017,-1.0392,-1.1253,0.0,-1.1993,0.0,0.0,0.0,0.0,0.0,0.0,0.0,0.0,0.0,0.0,0.0,0.0,-1.6374,-1.6347,-1.6259,-1.611,-1.609,-1.6015,-1.5879,-1.573,-1.5655,-1.5655,-1.5221,-1.5004,-1.4984,-1.4828,-1.4597,-1.4326,-1.4455,0.0,0.0,-1.4299,-1.4299,-1.4299,-1.4299,-1.4299,-1.4299,-1.4299,-1.4299,-1.4299,0.0,0.0,0.0,0.0,0.0,0.0,-0.8818,-0.9103,-0.9415,-0.9774,-0.9774,-0.9727,-0.97,-0.9591,-0.9395,0.0,0.0,0.0,0.0,0.0,0.0,0.0,0.0,0.0,0.0,0.0,0.0,0.0,0.0,0.0,0.0,0.0,0.0,0.0,0.0,0.0,0.0,0.0,0.0,0.0,0.0,0.0,0.0,0.0,0.0,0.0,0.0,0.0,0.0,0.0,0.0,0.0,-1.0263,-1.0806,0.0,0.0,-1.3132,-1.3688,-1.4407,-1.478,-1.4936,-1.478,-1.4041,-1.3125,-1.2257,0.0,-1.0514,-0.9937,-0.9897,-0.9889,-0.9856,-1.0066,-1.0304,-1.0663,0.0,0.0,0.0,0.0,0.0,0.0,0.0,0.0,0.0,0.0,0.0,0.0,0.0,0.0,-1.6178,-1.6259,-1.6279,-1.6218,-1.6042,-1.5913,-1.5852,-1.5622,-1.5499,-1.5499,-1.514,-1.4923,-1.4828,-1.4672,-1.4489,-1.4306,-1.436,0.0,0.0,-1.4299,-1.4299,-1.4299,-1.4299,-1.4299,-1.4299,-1.4299,-1.4299,-1.4299,0.0,0.0,0.0,0.0,0.0,-0.8648,-0.879,-0.9164,-0.949,-0.9781,-0.9822,-0.9802,-0.9747,-0.9585,-0.9408,-0.9296,0.0,0.0,0.0,0.0,0.0,0.0,0.0,0.0,0.0,0.0,0.0,0.0,0.0,0.0,0.0,0.0,0.0,0.0,0.0,0.0,0.0,0.0,0.0,0.0,0.0,0.0,0.0,0.0,0.0,0.0,0.0,0.0,0.0,0.0,0.0,0.0,0.0,0.0,-1.0663,0.0,-1.2549,-1.3268,-1.3987,-1.4536,-1.4869,-1.4713,-1.3885,-1.2929,0.0,0.0,-1.0378,-0.9971,-0.9876,-0.9916,-0.9958,-1.0093,-1.0243,-1.0331,0.0,-1.088,-1.1525,0.0,0.0,0.0,0.0,0.0,0.0,0.0,0.0,0.0,0.0,0.0,-1.6083,-1.6144,-1.6178,-1.6178,-1.5967,-1.5791,-1.5655,-1.5445,-1.5303,-1.5208,-1.4957,-1.478,-1.4665,-1.4516,-1.4394,-1.4299,-1.4299,0.0,0.0,-1.4299,-1.4299,-1.4299,-1.4299,-1.4299,-1.4299,-1.4299,-1.4299,-1.4299,0.0,0.0,0.0,0.0,0.0,0.0,-0.8669,-0.9096,-0.949,-0.9781,-0.9822,-0.9876,-0.9963,-0.951,-0.9275,-0.9367,0.0,0.0,0.0,0.0,0.0,0.0,0.0,0.0,0.0,0.0,-0.9605,-0.9605,-0.9747,0.0,0.0,0.0,0.0,0.0,0.0,0.0,0.0,0.0,0.0,0.0,0.0,0.0,0.0,0.0,0.0,0.0,0.0,0.0,0.0,0.0,0.0,0.0,0.0,0.0,-0.9978,-1.0671,-1.1911,-1.303,-1.3329,-1.4061,-1.4706,-1.455,-1.3736,-1.2807,0.0,0.0,-1.0405,-1.0044,-0.9869,-0.9917,-1.0222,-1.0154,-1.0085,-1.0439,-1.0493,0.0,0.0,0.0,0.0,0.0,0.0,0.0,0.0,0.0,0.0,0.0,0.0,0.0,-1.6083,-1.594,-1.5859,-1.5859,-1.5852,-1.5642,-1.5194,-1.5187,-1.5038,-1.4746,-1.459,-1.4516,-1.4509,-1.4367,-1.4299,0.0,0.0,0.0,0.0,-1.4299,-1.4299,-1.4299,-1.4299,-1.4299,-1.4299,-1.4299,-1.4299,-1.4299,0.0,0.0,0.0,0.0,0.0,0.0,0.0,-0.892,-0.9184,-0.9483,-0.9612,-0.9652,-0.9598,-0.9422,-0.9344,-0.9289,0.0,0.0,0.0,0.0,0.0,0.0,0.0,0.0,0.0,0.0,-0.9612,-0.9612,-0.9754,-0.9822,-0.9822,-0.9822,0.0,0.0,0.0,0.0,0.0,0.0,0.0,0.0,0.0,0.0,0.0,0.0,0.0,0.0,0.0,0.0,0.0,0.0,0.0,0.0,0.0,0.0,0.0,-1.0107,0.0,0.0,-1.2447,-1.2922,-1.3227,-1.3281,-1.2739,-1.206,-1.1558,0.0,-1.029,-1.0031,-1.0093,-1.0134,-1.0127,-1.0331,-1.0473,-1.0365,-1.0514,0.0,0.0,0.0,0.0,0.0,0.0,0.0,0.0,0.0,0.0,0.0,0.0,0.0,-1.5927,-1.5784,-1.575,-1.595,-1.5554,-1.533,-1.5181,-1.4977,-1.4835,-1.474,-1.4584,-1.4509,-1.4509,-1.4367,-1.4299,0.0,0.0,0.0,0.0,-1.4299,-1.4299,-1.4299,-1.4299,-1.4299,-1.4299,-1.4299,-1.4299,-1.4299,0.0,0.0,0.0,0.0,0.0,0.0,0.0,-0.8716,-0.894,-0.9184,-0.9395,-0.949,-0.9395,-0.9334,-0.9316,-0.9221,0.0,0.0,0.0,0.0,0.0,0.0,0.0,0.0,0.0,-0.9639,-0.9686,-0.9686,-0.9774,-0.9822,-0.9822,-0.9822,-0.9822,0.0,0.0,0.0,0.0,0.0,0.0,0.0,0.0,0.0,-0.9822,0.0,0.0,0.0,0.0,0.0,0.0,0.0,0.0,0.0,0.0,0.0,0.0,0.0,0.0,0.0,0.0,-1.2054,-1.2359,-1.2454,-1.2026,0.0,0.0,0.0,-1.0168,-1.0004,-1.008,-1.0114,-1.0134,-1.0317,-1.0426,-1.0304,-1.048,0.0,0.0,0.0,0.0,0.0,0.0,0.0,0.0,0.0,0.0,0.0,0.0,0.0,-1.5689,-1.5601,-1.554,-1.552,-1.5303,-1.5099,-1.493,-1.4746,-1.4624,-1.457,-1.4475,-1.4434,-1.4428,-1.434,-1.4299,0.0,0.0,0.0,0.0,-1.4299,-1.4299,-1.4299,-1.4299,-1.4299,-1.4299,-1.4299,-1.4299,-1.4299,0.0,0.0,0.0,0.0,0.0,0.0,0.0,0.0,-0.875,-0.8865,-0.9191,-0.9361,-0.9354,-0.9289,-0.9207,-0.9193,0.0,0.0,0.0,0.0,0.0,0.0,0.0,0.0,0.0,-0.9822,-0.9822,-0.9822,-0.9822,-0.9822,-0.9822,-0.9822,-0.9822,-0.9822,-0.9822,-0.9822,-0.9829,-0.9909,-0.9889,-0.9836,-0.9916,-0.9883,0.0,0.0,0.0,0.0,0.0,0.0,0.0,0.0,0.0,0.0,0.0,0.0,0.0,0.0,0.0,0.0,0.0,0.0,0.0,0.0,0.0,0.0,0.0,-1.0388,0.0,-0.9984,-0.9876,-0.993,-1.0229,-1.0161,-1.0051,-1.0256,0.0,0.0,0.0,0.0,0.0,0.0,0.0,0.0,0.0,0.0,0.0,0.0,0.0,0.0,-1.5404,-1.5371,-1.5235,-1.495,-1.5065,-1.4936,-1.4516,-1.4502,-1.4428,-1.4299,-1.4299,-1.4299,-1.4299,-1.4299,-1.4299,0.0,0.0,0.0,0.0,-1.4299,-1.4299,-1.4299,-1.4299,-1.4299,-1.4299,-1.4299,-1.4299,-1.4299,0.0,0.0,0.0,0.0,0.0,0.0,0.0,0.0,0.0,0.0,-0.9096,-0.9164,-0.9055,-0.911,-0.9166,0.0,0.0,0.0,0.0,0.0,0.0,0.0,0.0,0.0,0.0,-0.9822,-0.9822,-0.9822,-0.9822,-0.9822,-0.9822,-0.9822,-0.9822,-0.9822,-0.9822,-0.9822,-0.9822,-0.9863,-0.9856,-0.9822,-0.9863,-0.9849,0.0,0.0,0.0,0.0,-0.9822,-0.9822,0.0,0.0,0.0,0.0,0.0,0.0,0.0,0.0,-0.9822,0.0,0.0,0.0,-1.0548,-1.067,-1.0595,-1.0446,0.0,-1.0092,-0.9984,-0.9984,-0.9957,-0.999,0.0,-1.0249,-1.0236,0.0,0.0,0.0,0.0,0.0,0.0,0.0,0.0,0.0,0.0,0.0,0.0,0.0,0.0,-1.5276,-1.5242,-1.5018,-1.4814,-1.4624,-1.4652,-1.4618,-1.4516,-1.4407,-1.4333,-1.4299,-1.4299,-1.4299,-1.4299,-1.4299,-1.4299,0.0,0.0,0.0,-1.4299,-1.4299,-1.4299,-1.4299,-1.4299,-1.4299,-1.4299,-1.4299,-1.4299,-1.4285,0.0,0.0,0.0,0.0,0.0,0.0,0.0,0.0,0.0,0.0,0.0,0.0,0.0,0.0,0.0,0.0,0.0,0.0,0.0,0.0,0.0,0.0,0.0,0.0,-0.9822,-0.9822,-0.9822,-0.9822,-0.9822,-0.9822,-0.9822,-0.9822,-0.9822,-0.9822,-0.9822,-0.9822,-0.9829,-0.9897,-0.9883,-0.9829,-0.9835,0.0,0.0,0.0,0.0,0.0,-0.9822,-0.9822,0.0,-0.9856,-0.989,-0.9849,0.0,0.0,0.0,0.0,-0.9978,-0.9937,-1.0012,-0.9992,-0.9903,-1.0046,-1.0073,-1.0046,-0.9964,-0.9883,-0.9883,-0.9883,-0.9883,0.0,0.0,0.0,0.0,0.0,0.0,0.0,0.0,0.0,0.0,0.0,0.0,0.0,0.0,0.0,0.0,0.0,0.0,-1.495,-1.4875,-1.4787,-1.4638,-1.4421,-1.4475,-1.4482,-1.4414,-1.434,-1.4299,-1.4299,-1.4299,-1.4299,-1.4299,-1.4299,-1.4299,0.0,0.0,0.0,-1.4299,-1.4299,-1.4299,-1.4299,-1.4299,-1.4299,-1.4299,-1.4299,-1.4258,-1.4183,0.0,0.0,0.0,0.0,0.0,0.0,0.0,0.0,0.0,0.0,0.0,0.0,0.0,0.0,0.0,0.0,0.0,0.0,0.0,0.0,0.0,0.0,0.0,-0.9822,-0.9822,-0.9822,-0.9822,-0.9822,-0.9842,-0.9856,-0.9856,-0.9876,-0.9876,-0.9856,-0.9829,-0.9822,-0.9829,-0.9896,-0.9876,-0.9829,-0.9903,0.0,0.0,0.0,0.0,0.0,0.0,0.0,0.0,-0.9849,-0.9842,-0.9849,-0.9963,0.0,0.0,0.0,0.0,0.0,-1.0202,-1.0073,-0.989,-0.989,-0.9876,-0.9856,-0.9856,-0.9836,-0.9822,-0.9822,-0.9822,0.0,0.0,-0.9856,0.0,0.0,0.0,0.0,0.0,0.0,0.0,0.0,0.0,0.0,0.0,0.0,0.0,0.0,0.0,-1.4652,-1.4516,-1.4611,-1.4557,-1.4306,-1.4414,-1.4421,-1.4299,-1.4299,-1.4299,-1.4299,-1.4299,-1.4299,-1.4299,-1.4299,-1.4299,-1.4299,0.0,0.0,-1.4299,-1.4278,-1.4278,-1.4299,-1.4299,-1.4299,-1.4299,-1.4272,-1.4183,-1.4061,0.0,0.0,0.0,0.0,0.0,0.0,0.0,0.0,0.0,0.0,0.0,0.0,0.0,0.0,0.0,0.0,0.0,0.0,0.0,0.0,0.0,0.0,-0.9822,-0.9822,-0.9822,-0.9822,-0.9822,-0.9822,-0.9889,-0.995,-0.9957,-1.0148,-1.0141,-0.995,-0.9876,-0.9822,-0.9822,-0.9842,-0.9842,-0.9822,-0.9849,0.0,0.0,0.0,0.0,0.0,0.0,0.0,0.0,-0.9909,-0.9869,-0.9869,-1.0154,0.0,0.0,0.0,0.0,0.0,-0.9984,-1.0148,-1.0209,-1.0209,-1.0114,-0.995,-0.995,-0.9856,-0.9822,0.0,0.0,0.0,0.0,-0.995,-1.0004,0.0,0.0,0.0,0.0,0.0,0.0,0.0,0.0,0.0,0.0,0.0,0.0,0.0,0.0,-1.4536,-1.4516,-1.4421,-1.4346,-1.4299,-1.4319,-1.4319,-1.4299,-1.4299,-1.4299,-1.4299,-1.4299,-1.4299,-1.4299,-1.4299,-1.4299,-1.4292,0.0,-1.4183,-1.4292,-1.4156,-1.4183,-1.4299,-1.4299,-1.4299,-1.4285,-1.4156,-1.4089,-1.4034,0.0,0.0,0.0,0.0,0.0,0.0,0.0,0.0,0.0,0.0,0.0,0.0,0.0,0.0,0.0,0.0,0.0,0.0,0.0,0.0,0.0,-0.9822,-0.9822,-0.9822,-0.9822,-0.9822,-0.9863,-0.9883,-0.995,-1.0031,-1.0175,-1.0161,-1.0073,-0.9862,-0.9849,-0.9822,-0.9829,-0.9849,-0.9883,-0.9889,0.0,0.0,0.0,0.0,0.0,0.0,0.0,0.0,0.0,0.0,-0.9876,-0.9863,-1.0086,0.0,0.0,0.0,0.0,0.0,-1.0154,-1.0222,-1.0317,-1.048,-1.0466,-1.0412,-1.0412,-1.029,-1.0161,-1.0086,0.0,0.0,0.0,0.0,-1.0622,-1.126,0.0,0.0,0.0,0.0,0.0,0.0,0.0,0.0,0.0,0.0,0.0,0.0,0.0,0.0,-1.4394,-1.4333,-1.4299,-1.4299,-1.4299,-1.4299,-1.4299,-1.4299,-1.4299,-1.4299,-1.4299,-1.4299,-1.4299,-1.4299,-1.4251,-1.4177,0.0,-1.4109,-1.4163,-1.4014,-1.4034,-1.417,-1.4082,-1.4055,-1.4034,-1.3885,-1.3831,-1.3804,0.0,0.0,0.0,0.0,0.0,0.0,0.0,0.0,0.0,0.0,0.0,0.0,0.0,0.0,0.0,0.0,0.0,0.0,0.0,0.0,-0.9822,-0.9822,-0.9822,-0.9822,-0.9822,-0.9856,-0.9951,-1.0038,-1.0112,-1.027,-1.0378,-1.0188,-0.9957,-0.9876,-0.9836,-0.9842,-0.9883,-0.9936,-1.0011,-1.0051,0.0,0.0,0.0,0.0,0.0,0.0,0.0,0.0,0.0,0.0,0.0,0.0,0.0,0.0,0.0,-1.0236,-1.0256,-1.0229,-1.0229,-1.0249,-1.0344,-1.0602,-1.0643,-1.0656,-1.0792,-1.0683,-1.0534,-1.0493,-1.0365,0.0,0.0,-1.0493,0.0,0.0,0.0,0.0,0.0,0.0,0.0,0.0,0.0,0.0,0.0,0.0,0.0,0.0,0.0,0.0,-1.4299,-1.4299,-1.4299,-1.4299,-1.4299,-1.4285,-1.4245,-1.4245,-1.4265,-1.4299,-1.4299,-1.4278,-1.4245,-1.4245,-1.4163,-1.4014,-1.398,-1.3987,-1.4007,-1.3851,-1.3878,-1.4007,-1.3885,-1.3817,-1.3777,-1.3668,-1.3607,-1.3559,0.0,0.0,0.0,0.0,0.0,0.0,0.0,0.0,0.0,0.0,0.0,0.0,0.0,0.0,0.0,0.0,0.0,0.0,0.0,0.0,-0.9822,-0.9822,-0.9822,-0.9822,-0.9822,-0.9896,-1.0107,-1.0263,-1.0534,-1.0677,-1.0683,-1.0399,-1.0181,-0.9963,-0.9883,-0.9835,-0.997,-0.9984,-1.0134,-1.0263,-1.0276,0.0,0.0,0.0,0.0,0.0,0.0,0.0,0.0,0.0,0.0,0.0,0.0,0.0,-1.0017,-1.0236,-1.0181,-1.0004,-1.0004,-1.0168,-1.0317,-1.0473,-1.0412,-1.0453,-1.1077,-1.0907,-1.0778,-1.1043,-1.0982,0.0,0.0,-1.0717,0.0,0.0,0.0,0.0,0.0,0.0,0.0,0.0,0.0,0.0,0.0,0.0,0.0,0.0,0.0,0.0,-1.4299,-1.4299,-1.4299,-1.4299,-1.4299,-1.4231,-1.4089,-1.4089,-1.4156,-1.4299,-1.4299,-1.4224,-1.4089,-1.4089,-1.4007,-1.3851,-1.3715,-1.3736,-1.3844,-1.3702,-1.3729,-1.3858,-1.3844,-1.3756,-1.3641,-1.3634,-1.3539,-1.3417,0.0,0.0,0.0,0.0,0.0,0.0,0.0,0.0,0.0,0.0,0.0,0.0,0.0,0.0,0.0,0.0,0.0,0.0,0.0,0.0,-0.9822,-0.9822,-0.9822,-0.9822,-0.9822,-1.0066,-1.031,-1.0555,-1.0758,-1.0765,-1.0575,-1.0371,-1.0195,-0.9984,-0.993,-1.0046,-1.0202,-1.029,-1.0358,-1.0419,-1.0514,-1.0493,0.0,0.0,0.0,0.0,0.0,0.0,0.0,0.0,-0.9869,-0.9842,-0.9958,-1.0019,-0.9977,-1.0005,-1.0019,-0.9963,-0.9869,-1.0019,-1.0175,-1.0324,-1.0324,-1.0487,-1.1267,-1.1362,-1.1314,-1.1423,-1.1552,-1.1579,0.0,0.0,0.0,0.0,0.0,0.0,0.0,0.0,0.0,0.0,0.0,0.0,0.0,0.0,0.0,0.0,0.0,0.0,0.0,-1.4156,-1.4116,-1.4014,-1.4014,-1.3987,-1.3926,-1.3926,-1.396,-1.4014,-1.4014,-1.3987,-1.3926,-1.3926,-1.3851,-1.3709,-1.3654,-1.3661,-1.3695,-1.3546,-1.3573,-1.3702,-1.3607,-1.3532,-1.3485,-1.3485,-1.3451,-1.3403,0.0,0.0,0.0,0.0,0.0,0.0,0.0,0.0,0.0,0.0,0.0,0.0,0.0,0.0,0.0,0.0,0.0,0.0,-0.9822,-0.9822,-0.9822,-0.9822,-0.9822,-0.9842,-0.989,-1.0188,-1.0473,-1.0717,-1.0921,-1.0839,-1.0487,-1.0392,-1.0243,-0.999,-1.01,-1.0209,-1.0351,-1.0453,-1.0521,-1.0575,-1.0677,-1.0656,0.0,0.0,0.0,0.0,0.0,0.0,0.0,0.0,-0.993,-0.989,-0.989,-0.9903,-0.9963,-0.9862,-0.9903,-0.9957,-0.9863,-0.9835,-0.995,-1.0168,-1.0243,-1.0527,-1.147,-1.1687,-1.1755,-1.1993,-1.2013,-1.1986,-1.1979,0.0,0.0,0.0,0.0,0.0,0.0,0.0,0.0,0.0,0.0,0.0,0.0,0.0,0.0,0.0,0.0,0.0,0.0,-1.4,-1.3953,-1.3759,-1.3838,-1.3817,-1.3777,-1.3777,-1.3722,-1.3627,-1.3627,-1.3682,-1.3777,-1.3777,-1.3695,-1.3559,-1.3559,-1.3559,-1.3546,-1.3444,-1.3464,-1.3546,-1.3444,-1.3403,-1.3403,-1.3403,-1.3403,-1.3403,0.0,0.0,0.0,0.0,0.0,0.0,0.0,0.0,0.0,0.0,0.0,0.0,0.0,0.0,0.0,0.0,0.0,0.0,-0.9822,-0.9822,-0.9822,-0.9822,-0.9822,-0.989,-0.9984,-1.0337,-1.0568,-1.0724,-1.1016,-1.0928,-1.0493,-1.0493,-1.0337,-0.9997,-1.0215,-1.0365,-1.0493,-1.0493,-1.0582,-1.0717,-1.0717,-1.0717,-1.0717,0.0,0.0,0.0,0.0,0.0,0.0,0.0,-1.0175,0.0,0.0,0.0,-0.9984,-0.9984,-0.9984,-0.995,-0.9863,-0.9822,-0.9863,-0.995,-1.0168,-1.0561,-1.1592,-1.183,-1.2047,-1.2807,-1.2366,-1.1932,-1.2244,-1.2047,0.0,0.0,0.0,0.0,0.0,0.0,0.0,0.0,0.0,0.0,0.0,0.0,0.0,0.0,0.0,0.0,0.0,-1.3838,-1.3838,-1.3831,-1.3831,-1.3763,-1.3627,-1.362,-1.3471,-1.3173,-1.3173,-1.3329,-1.3627,-1.3627,-1.3546,-1.3403,-1.3403,-1.3403,-1.3403,-1.3403,-1.3403,-1.3403,-1.3403,-1.3403,-1.3403,-1.3403,-1.3403,-1.3403,0.0,0.0,0.0,0.0,0.0,0.0,0.0,0.0,0.0,0.0,0.0,0.0,0.0,0.0,0.0,0.0,0.0,0.0,-0.9822,-0.9822,-0.9822,-0.9822,-0.9822,-0.9842,-0.989,-1.0188,-1.0521,-1.0813,-1.086,-1.0731,-1.0493,-1.0493,-1.05,-1.0527,-1.0683,-1.0705,-1.0812,-1.0812,-1.0778,-1.0717,-1.0717,-1.0717,-1.0717,0.0,0.0,0.0,0.0,0.0,0.0,0.0,0.0,0.0,0.0,0.0,-0.989,-0.989,-0.989,-0.9876,-0.9836,-0.9978,-1.0154,-1.0202,-1.0487,-1.0941,-1.1667,-1.1755,-1.1952,-1.2915,-1.2766,-1.2522,-1.2725,0.0,0.0,0.0,0.0,0.0,0.0,0.0,0.0,0.0,0.0,0.0,0.0,0.0,0.0,0.0,0.0,0.0,0.0,-1.3532,-1.3437,-1.3227,-1.322,-1.32,-1.3159,-1.3159,-1.3112,-1.3024,-1.3024,-1.3125,-1.3308,-1.3308,-1.3342,-1.3403,-1.3403,-1.3403,-1.3403,-1.3403,-1.3403,-1.3403,-1.3403,-1.3403,-1.3403,-1.3403,-1.3403,-1.3403,0.0,0.0,0.0,0.0,0.0,0.0,0.0,0.0,0.0,0.0,-0.8885,-0.8905,0.0,0.0,0.0,0.0,0.0,0.0,0.0,0.0,-0.9822,-0.9822,-0.9822,-0.9849,-0.9849,-1.0093,-1.0324,-1.0523,-1.0616,-1.0555,-1.0412,-1.0527,-1.0629,-1.0731,-1.0941,-1.1002,-1.088,-1.088,-1.0793,-1.0724,-1.0785,-1.0772,-1.0724,0.0,0.0,0.0,0.0,0.0,0.0,0.0,0.0,0.0,-1.0024,-0.9923,-0.9835,-0.9836,-0.9822,-0.9849,-0.9971,-1.0093,-1.0263,-1.0555,-1.0833,-1.1192,-1.1789,0.0,0.0,0.0,-1.3152,-1.2956,-1.3105,0.0,0.0,0.0,0.0,0.0,0.0,0.0,0.0,0.0,0.0,0.0,0.0,0.0,0.0,0.0,0.0,0.0,0.0,-1.3227,-1.3146,-1.305,-1.2963,-1.2963,-1.2963,-1.2963,-1.2929,-1.2868,-1.2868,-1.2915,-1.2996,-1.3064,-1.3139,-1.3227,-1.3227,-1.3227,-1.3227,-1.3227,-1.3227,-1.3234,-1.3288,-1.3308,-1.3315,-1.3376,-1.3403,-1.3403,0.0,0.0,0.0,0.0,0.0,0.0,0.0,0.0,0.0,0.0,-0.8925,-0.9028,0.0,0.0,0.0,0.0,0.0,0.0,0.0,0.0,-0.9822,-0.9822,-0.9822,-0.9883,-0.9963,-0.9977,-0.9984,-0.9984,-1.0331,-1.0405,-1.029,-1.0595,-1.0751,-1.0772,-1.107,-1.1118,-1.09,-1.09,-1.0873,-1.0731,-1.0806,-1.0779,-1.0738,-1.0806,0.0,0.0,0.0,0.0,0.0,0.0,0.0,0.0,-1.0161,-0.9997,-0.9957,-0.9869,-0.9829,-0.9903,-1.0202,-1.0195,-1.022,-1.1002,-1.1302,0.0,-1.2087,-1.2901,-1.3641,-1.3743,0.0,-1.3254,0.0,0.0,0.0,0.0,0.0,0.0,0.0,0.0,0.0,0.0,0.0,0.0,0.0,0.0,0.0,0.0,0.0,0.0,0.0,-1.2908,-1.2981,-1.2981,-1.2888,-1.2888,-1.2981,-1.2981,-1.2827,-1.2691,-1.2691,-1.2691,-1.2698,-1.2861,-1.2949,-1.2963,-1.2963,-1.2963,-1.2963,-1.2963,-1.2963,-1.2976,-1.3105,-1.3152,-1.3173,-1.3308,-1.337,-1.3376,0.0,0.0,0.0,0.0,0.0,0.0,0.0,0.0,0.0,0.0,0.0,0.0,0.0,0.0,0.0,0.0,0.0,0.0,0.0,0.0,-0.9822,-0.9822,-0.9822,-0.9836,-0.9869,-0.9923,-0.9984,-0.9984,-1.0236,-1.031,-1.029,-1.0704,-1.0962,-1.1084,-1.1389,-1.1369,-1.1118,-1.1118,-1.0962,-1.0724,-1.0758,-1.0751,-1.0724,-1.0758,-1.0731,0.0,0.0,0.0,0.0,0.0,0.0,0.0,-1.0283,-1.0148,-0.9957,-0.9869,-0.9903,-1.0039,-1.0229,-1.0426,0.0,-1.1212,-1.1782,-1.2311,-1.2684,-1.3119,-1.3397,-1.3193,-1.3356,0.0,0.0,0.0,0.0,0.0,0.0,0.0,0.0,0.0,0.0,0.0,0.0,0.0,0.0,0.0,0.0,0.0,0.0,0.0,-1.261,-1.2494,-1.2433,-1.2433,-1.2318,-1.2311,-1.2433,-1.2433,-1.242,0.0,-1.2386,-1.2386,-1.2393,-1.2657,-1.2847,-1.2963,-1.2963,-1.2963,-1.2963,-1.2963,-1.2963,-1.2963,-1.2996,-1.301,-1.301,-1.3044,-1.3125,-1.3207,0.0,0.0,0.0,0.0,0.0,0.0,0.0,0.0,0.0,0.0,0.0,0.0,0.0,0.0,0.0,0.0,0.0,0.0,0.0,0.0,0.0,-0.9822,-0.989,-0.9869,-0.9869,-1.008,-1.0161,-1.0161,-1.031,-1.0378,-1.0392,-1.0772,-1.1023,-1.1179,-1.1484,-1.145,-1.1234,-1.1234,-1.0989,-1.0724,-1.0799,-1.0785,-1.0731,-1.0799,-1.0785,-1.0717,-1.0717,0.0,0.0,0.0,0.0,0.0,0.0,0.0,-1.0127,-0.9978,-0.9876,-1.0005,-1.0304,0.0,0.0,-1.1436,0.0,-1.2651,-1.2813,-1.303,-1.3146,-1.299,0.0,0.0,0.0,0.0,0.0,0.0,0.0,0.0,0.0,0.0,0.0,0.0,0.0,0.0,0.0,0.0,0.0,0.0,0.0,-1.2372,-1.2298,-1.2223,-1.2182,-1.2182,-1.2101,-1.2101,-1.2182,-1.2182,-1.2182,-1.2182,-1.2182,-1.2182,-1.2189,-1.2338,-1.2494,-1.2637,-1.2637,-1.2678,-1.2739,-1.2739,-1.2739,-1.2752,-1.282,-1.2854,-1.2861,-1.2935,-1.301,-1.3064,0.0,0.0,0.0,0.0,0.0,0.0,0.0,0.0,0.0,0.0,0.0,0.0,0.0,0.0,0.0,0.0,0.0,0.0,0.0,0.0,0.0,0.0,-0.9903,-0.9984,-0.9984,-1.0222,-1.0317,-1.0317,-1.046,-1.0548,-1.0575,-1.0853,-1.1063,-1.1282,-1.1497,-1.1463,-1.1199,-1.1241,-1.1009,-1.0765,-1.0799,-1.0833,-1.0731,-1.0793,-1.0833,-1.0717,-1.0717,-1.0717,-1.0717,-1.0717,0.0,0.0,0.0,0.0,-1.0249,-1.0031,-0.9896,0.0,0.0,-1.0548,-1.0833,-1.1599,-1.223,0.0,-1.2684,-1.2813,-1.2929,-1.2956,0.0,0.0,0.0,0.0,0.0,0.0,0.0,0.0,0.0,0.0,0.0,0.0,0.0,0.0,0.0,0.0,0.0,0.0,0.0,-1.202,-1.202,-1.1972,-1.1972,-1.202,-1.1972,-1.1959,-1.1986,-1.1986,-1.1986,-1.1986,-1.2013,-1.2006,-1.1986,-1.1986,-1.2081,-1.225,-1.225,-1.2318,-1.2427,-1.2454,-1.2467,-1.2481,-1.263,-1.2691,-1.2705,-1.2834,-1.2901,-1.2915,0.0,0.0,0.0,0.0,0.0,0.0,0.0,0.0,0.0,0.0,-0.9761,-0.9768,0.0,0.0,0.0,0.0,0.0,0.0,0.0,0.0,0.0,-0.9822,-0.9903,-0.9984,-0.9984,-1.0324,-1.0466,-1.0466,-1.0616,-1.0758,-1.0826,-1.1056,-1.1212,-1.1369,-1.1545,-1.1525,-1.1355,-1.1219,-1.107,-1.084,-1.0799,-1.0738,-1.0724,-1.0744,-1.0738,-1.0717,-1.0717,-1.0717,-1.0717,-1.0717,-1.0717,0.0,0.0,0.0,0.0,-1.0031,-0.997,0.0,0.0,0.0,-1.1328,0.0,-1.1999,-1.2379,0.0,0.0,-1.28,0.0,0.0,0.0,0.0,0.0,0.0,0.0,0.0,0.0,0.0,0.0,0.0,0.0,0.0,0.0,0.0,0.0,0.0,0.0,-1.1938,-1.1864,-1.1864,-1.1619,-1.1599,-1.1857,-1.1613,-1.1545,-1.1681,-1.1681,-1.1681,-1.1681,-1.1803,-1.1796,-1.1681,-1.1681,-1.183,-1.2169,-1.2169,-1.2176,-1.2128,-1.2264,-1.2318,-1.2332,-1.2474,-1.2528,-1.2535,-1.2556,-1.2651,-1.2745,0.0,0.0,0.0,0.0,0.0,0.0,0.0,0.0,0.0,0.0,0.0,-0.9822,0.0,0.0,0.0,0.0,0.0,0.0,0.0,0.0,0.0,-0.9883,-1.0093,-1.0215,-1.0297,-1.0507,-1.0622,-1.0622,-1.0683,-1.0839,-1.107,-1.1219,-1.1328,-1.1396,-1.1552,-1.1538,-1.1382,-1.1226,-1.1084,-1.0867,-1.0778,-1.0772,-1.0772,-1.0751,-1.0772,-1.0766,-1.0751,-1.0717,-1.0717,-1.0717,-1.0717,-1.0697,-1.0541,0.0,0.0,0.0,0.0,0.0,-1.031,-1.0765,-1.1219,0.0,-1.183,-1.2074,-1.2223,0.0,0.0,0.0,0.0,0.0,0.0,0.0,0.0,0.0,0.0,0.0,0.0,0.0,0.0,0.0,0.0,0.0,0.0,0.0,0.0,0.0,-1.1545,-1.1457,-1.1457,-1.1335,-1.1321,-1.145,-1.1335,-1.1294,-1.1362,-1.1362,-1.1362,-1.1362,-1.143,-1.147,-1.1491,-1.1491,-1.1653,-1.1932,-1.1932,-1.1979,-1.2067,-1.2135,-1.221,-1.2298,-1.2359,-1.2433,-1.2501,-1.2501,-1.2542,-1.2589,0.0,0.0,0.0,0.0,0.0,0.0,0.0,0.0,0.0,0.0,0.0,0.0,0.0,0.0,0.0,0.0,0.0,0.0,0.0,0.0,0.0,-0.9977,-1.0195,-1.0344,-1.0487,-1.0643,-1.0717,-1.0717,-1.0717,-1.0873,-1.1165,-1.1321,-1.143,-1.1511,-1.1667,-1.1687,-1.1606,-1.1375,-1.1219,-1.1035,-1.0907,-1.088,-1.0867,-1.0819,-1.0779,-1.086,-1.0772,-1.0717,-1.0717,-1.0717,-1.0717,-1.0704,-1.0588,0.0,0.0,0.0,0.0,0.0,0.0,0.0,-1.088,-1.1287,-1.1525,-1.1714,0.0,0.0,0.0,0.0,0.0,0.0,0.0,0.0,0.0,0.0,0.0,0.0,0.0,0.0,0.0,0.0,0.0,0.0,0.0,0.0,0.0,0.0,-1.1226,-1.1234,-1.1234,-1.1131,-1.1124,-1.1227,-1.1124,-1.1111,-1.1111,-1.1111,-1.1111,-1.1111,-1.1214,-1.1219,-1.1335,-1.1375,-1.1511,-1.1721,-1.1762,-1.1843,-1.1952,-1.1986,-1.2067,-1.2176,-1.2216,-1.2318,-1.2447,-1.2447,-1.2467,-1.2501,0.0,0.0,0.0,0.0,0.0,0.0,0.0,0.0,0.0,0.0,0.0,0.0,0.0,-0.9822,-0.9822,-0.9822,0.0,0.0,0.0,0.0,0.0,-0.9977,-1.0195,0.0,-1.0487,-1.0643,-1.0717,-1.0717,-1.0717,-1.0873,-1.1165,-1.1321,-1.1538,-1.1816,-1.1972,-1.2115,-1.2216,-1.1782,-1.1592,-1.1558,-1.126,-1.1063,-1.088,-1.0873,-1.0873,-1.086,-1.0772,-1.0717,-1.0717,-1.0717,-1.0717,-1.0717,-1.0711,0.0,0.0,0.0,0.0,0.0,0.0,-1.0188,0.0,-1.069,-1.0982,0.0,0.0,0.0,0.0,0.0,0.0,0.0,0.0,0.0,0.0,0.0,0.0,0.0,0.0,0.0,0.0,0.0,0.0,0.0,0.0,0.0,0.0,0.0,-1.1165,-1.1234,-1.1234,-1.1036,-1.1023,-1.1158,-1.1029,-1.0894,-1.0894,-1.0894,-1.0894,-1.0894,-1.1097,-1.1165,-1.1179,-1.1321,-1.1402,-1.1423,-1.1565,-1.1633,-1.1653,-1.1789,-1.1843,-1.187,-1.2013,-1.2169,-1.2298,-1.2298,-1.2386,-1.2501,0.0,0.0,0.0,0.0,0.0,0.0,0.0,0.0,0.0,0.0,0.0,0.0,0.0,-0.9822,-0.9822,-0.9822,-0.9822,0.0,0.0,0.0,0.0,-1.0188,-1.0337,-1.0487,-1.0636,-1.069,-1.0717,-1.0717,-1.0717,-1.0873,-1.1165,-1.1321,-1.1599,-1.1979,-1.204,-1.2033,-1.1979,-1.1728,-1.1565,-1.1463,-1.1355,-1.128,-1.1219,-1.1124,-1.1145,-1.1212,0.0,0.0,0.0,0.0,0.0,0.0,0.0,0.0,0.0,0.0,0.0,0.0,0.0,0.0,0.0,-1.05,-1.0731,-1.0934,0.0,0.0,0.0,0.0,0.0,0.0,0.0,0.0,0.0,0.0,0.0,0.0,0.0,0.0,0.0,0.0,0.0,0.0,0.0,0.0,0.0,0.0,0.0,-1.088,-1.088,-1.0833,-1.0826,-1.088,-1.0833,-1.0806,-1.0806,-1.0806,-1.0806,-1.0806,-1.0853,-1.0928,-1.1029,-1.1179,-1.1301,-1.1402,-1.1552,-1.1619,-1.1619,-1.1674,-1.1748,-1.1837,-1.1891,-1.2006,-1.2155,-1.225,-1.2325,-1.2379,0.0,0.0,0.0,0.0,0.0,0.0,0.0,0.0,0.0,0.0,0.0,0.0,0.0,0.0,-0.9917,-0.9971,-0.9978,-0.9978,-0.9978,-1.0066,-1.0195,-1.0344,-1.0439,-1.0561,-1.0717,-1.0717,-1.0717,-1.0717,-1.0717,-1.0846,-1.1097,-1.1301,-1.1579,-1.1918,-1.202,-1.2088,-1.2121,-1.1925,-1.1755,-1.1613,-1.1558,-1.1538,-1.1531,-1.1484,-1.1525,0.0,0.0,0.0,0.0,0.0,0.0,0.0,0.0,0.0,0.0,0.0,0.0,0.0,-0.9883,0.0,0.0,0.0,0.0,-1.0561,0.0,0.0,0.0,0.0,0.0,0.0,0.0,0.0,0.0,0.0,0.0,0.0,0.0,0.0,0.0,0.0,0.0,0.0,0.0,0.0,0.0,0.0,0.0,0.0,-1.0717,-1.0717,-1.0717,-1.0717,-1.0717,-1.0717,-1.0717,-1.0717,-1.0717,-1.0717,-1.0717,-1.0772,-1.0806,-1.1023,-1.1145,-1.1253,-1.1457,-1.1572,-1.1619,-1.1619,-1.1674,-1.1762,-1.1762,-1.185,-1.2006,-1.2155,-1.2244,-1.2311,0.0,0.0,0.0,0.0,0.0,0.0,0.0,0.0,0.0,-0.9822,0.0,0.0,0.0,0.0,0.0,-1.027,-1.0283,-1.0283,-1.0283,-1.0283,-1.0344,-1.0487,0.0,0.0,0.0,0.0,0.0,0.0,0.0,0.0,-1.0894,-1.1246,-1.147,-1.1633,-1.1925,-1.2291,-1.2678,-1.2393,-1.2196,-1.2047,-1.1898,-1.1837,-1.1864,0.0,0.0,0.0,-1.1898,-1.1748,0.0,-1.1633,0.0,0.0,0.0,0.0,0.0,0.0,0.0,0.0,0.0,0.0,0.0,0.0,0.0,0.0,0.0,0.0,0.0,0.0,0.0,0.0,0.0,0.0,0.0,0.0,0.0,0.0,0.0,0.0,0.0,0.0,0.0,0.0,0.0,0.0,0.0,0.0,-1.0717,-1.0717,-1.0717,-1.0717,-1.0717,-1.0717,-1.0717,-1.0717,-1.0717,-1.0717,-1.0717,-1.0717,-1.0717,-1.0717,-1.0724,-1.0813,-1.088,-1.0894,-1.126,-1.147,-1.1613,-1.1619,-1.1619,-1.1619,-1.1619,-1.1701,-1.1843,-1.2006,-1.2155,-1.2298,0.0,0.0,0.0,0.0,0.0,0.0,0.0,0.0,0.0,0.0,0.0,0.0,-0.9984,-1.0243,-1.0344,-1.0283,-1.0371,-1.0392,-1.029,-1.0378,-1.0453,-1.0487,-1.0595,-1.0731,-1.0813,0.0,0.0,0.0,0.0,0.0,0.0,0.0,0.0,0.0,-1.1809,-1.1904,-1.1925,-1.1952,0.0,-1.2135,-1.2013,-1.2067,0.0,0.0,0.0,0.0,0.0,-1.1993,-1.1789,0.0,-1.1694,-1.1328,0.0,0.0,0.0,0.0,0.0,0.0,-0.9822,0.0,0.0,0.0,0.0,0.0,0.0,0.0,0.0,0.0,0.0,0.0,0.0,0.0,0.0,0.0,0.0,0.0,0.0,0.0,0.0,0.0,0.0,0.0,0.0,0.0,0.0,0.0,-1.0717,-1.0717,-1.0717,-1.0717,-1.0717,-1.0717,-1.0717,-1.0717,-1.0717,-1.0717,-1.0717,-1.0717,-1.0717,-1.0717,-1.0724,-1.0813,-1.088,-1.0894,-1.1145,-1.1314,-1.1463,-1.1572,-1.1619,-1.1619,-1.1619,-1.1647,-1.1708,-1.1965,-1.202,-1.2006,0.0,0.0,0.0,0.0,0.0,0.0,0.0,0.0,0.0,0.0,0.0,0.0,-1.0253,-1.0595,-1.0738,-1.0656,-1.0724,-1.0738,-1.0656,-1.0724,-1.0744,-1.0683,-1.0826,-1.0921,-1.088,-1.0921,0.0,0.0,0.0,0.0,0.0,0.0,0.0,0.0,0.0,0.0,0.0,0.0,0.0,0.0,-1.2081,0.0,0.0,-1.2488,-1.2528,0.0,0.0,0.0,-1.2386,-1.2352,-1.1999,0.0,0.0,0.0,0.0,0.0,0.0,0.0,0.0,0.0,0.0,0.0,0.0,0.0,-1.0114,-1.0215,0.0,0.0,0.0,0.0,0.0,0.0,0.0,0.0,0.0,0.0,0.0,0.0,0.0,0.0,0.0,0.0,0.0,-1.0534,-1.0534,-1.0534,-1.0588,-1.0656,-1.0717,-1.0717,-1.0717,-1.0717,-1.0717,-1.0717,-1.0717,-1.0717,-1.0717,-1.0717,-1.0717,-1.0717,-1.0724,-1.0812,-1.0786,-1.086,-1.1009,-1.1124,-1.1219,-1.1369,-1.1504,-1.1619,-1.1619,-1.1619,-1.1647,-1.1877,-1.1911,-1.1877,0.0,0.0,0.0,0.0,0.0,0.0,0.0,0.0,0.0,0.0,0.0,-1.0446,-1.0758,-1.1029,-1.1185,-1.1185,-1.1185,-1.1248,-1.1234,-1.1234,-1.1104,-1.0907,-1.1097,-1.1111,-1.0934,-1.1104,0.0,0.0,0.0,0.0,0.0,0.0,0.0,0.0,0.0,0.0,0.0,0.0,0.0,-1.166,-1.2108,-1.2386,0.0,0.0,-1.3173,-1.3173,-1.3193,-1.3186,-1.3125,-1.2793,-1.2291,0.0,0.0,0.0,0.0,0.0,-1.0209,0.0,0.0,0.0,0.0,0.0,0.0,0.0,-1.0175,-1.0243,-1.0324,0.0,0.0,0.0,0.0,0.0,0.0,0.0,0.0,0.0,0.0,0.0,0.0,0.0,0.0,0.0,-1.0317,-1.029,-1.0283,-1.0283,-1.0399,-1.0527,-1.0663,-1.067,-1.067,-1.067,-1.0683,-1.0697,-1.0697,-1.0711,-1.0717,-1.0717,-1.0717,-1.0717,-1.0717,-1.0717,-1.0717,-1.0724,-1.0799,-1.0867,-1.0894,-1.1084,-1.1321,-1.1592,-1.1592,-1.1606,-1.164,-1.1775,-1.1823,-1.183,0.0,0.0,0.0,0.0,0.0,0.0,0.0,0.0,0.0,0.0,0.0,-1.0792,-1.1212,-1.1314,-1.1348,0.0,-1.1348,-1.1294,-1.1241,-1.1234,-1.1151,-1.1124,-1.1151,-1.1206,-1.1301,-1.1212,-1.1212,0.0,0.0,0.0,0.0,0.0,0.0,0.0,0.0,0.0,0.0,0.0,0.0,-1.166,-1.2108,0.0,-1.2718,-1.3051,-1.3173,-1.3186,-1.3308,-1.3275,-1.3091,-1.2556,-1.206,-1.1599,0.0,0.0,0.0,-1.0541,0.0,0.0,0.0,0.0,0.0,0.0,0.0,0.0,-0.9951,-1.0005,-1.0011,0.0,0.0,0.0,0.0,0.0,0.0,0.0,0.0,0.0,0.0,0.0,0.0,0.0,0.0,0.0,-1.0453,-1.0344,-1.0283,-1.0283,-1.0304,-1.0337,-1.0365,-1.0365,-1.0365,-1.0365,-1.048,-1.0534,-1.0534,-1.0656,-1.0717,-1.0717,-1.0717,-1.0717,-1.0717,-1.0717,-1.0717,-1.0724,-1.0751,-1.0766,-1.088,-1.0914,-1.1165,-1.1436,-1.1436,-1.1511,-1.164,-1.1775,-1.1755,-1.1701,0.0,0.0,0.0,0.0,0.0,0.0,0.0,0.0,0.0,0.0,-1.109,-1.1335,-1.1491,-1.1565,-1.1586,0.0,0.0,0.0,0.0,-1.1389,-1.1355,-1.128,-1.1348,-1.1389,-1.1389,-1.1389,-1.1389,-1.1389,0.0,0.0,0.0,0.0,0.0,0.0,0.0,0.0,0.0,0.0,-1.1409,-1.1667,-1.2182,0.0,-1.2888,-1.3261,-1.3356,-1.3308,-1.3458,-1.337,-1.3105,-1.2657,-1.2264,0.0,0.0,-1.1226,-1.1111,0.0,-1.0663,-1.0575,0.0,0.0,0.0,-1.0181,0.0,0.0,0.0,-1.0053,-0.999,0.0,0.0,0.0,0.0,0.0,0.0,0.0,0.0,0.0,0.0,0.0,0.0,0.0,0.0,0.0,-1.0168,-1.0093,-1.008,-1.0161,-1.0168,-1.0202,-1.0276,-1.0283,-1.0283,-1.0283,-1.0419,-1.0493,-1.0493,-1.0643,-1.0717,-1.0717,-1.0717,-1.0717,-1.0717,-1.0717,-1.0717,-1.0717,-1.0717,-1.0765,-1.0766,-1.0766,-1.0968,-1.1185,-1.1335,-1.1436,-1.1525,-1.1674,-1.1681,-1.164,0.0,0.0,0.0,0.0,0.0,0.0,0.0,0.0,0.0,0.0,-1.1599,-1.1735,-1.1708,0.0,0.0,0.0,0.0,0.0,0.0,-1.1694,-1.1592,-1.1443,-1.1552,-1.1558,-1.1436,-1.1558,-1.1558,-1.1436,0.0,0.0,0.0,0.0,0.0,0.0,0.0,0.0,0.0,0.0,0.0,-1.183,0.0,-1.2678,-1.2929,-1.3437,-1.3532,-1.3417,-1.3573,-1.3431,-1.3125,-1.2793,-1.2508,-1.2182,-1.1579,-1.1409,0.0,0.0,0.0,0.0,0.0,0.0,0.0,0.0,0.0,-1.0125,0.0,0.0,0.0,0.0,0.0,0.0,0.0,0.0,0.0,0.0,0.0,0.0,0.0,0.0,0.0,0.0,0.0,0.0,0.0,-0.9795,-0.9842,-0.993,-0.9916,-1.0032,-1.0181,-1.0195,-1.0195,-1.0195,-1.0331,-1.0419,-1.0453,-1.0602,-1.069,-1.0717,-1.0717,-1.0717,-1.0717,-1.0717,-1.0717,-1.0717,-1.0717,-1.0717,-1.0717,-1.0717,-1.0792,-1.086,-1.1199,-1.1321,-1.1369,-1.1518,-1.1572,-1.1579,-0.9822,-0.9822,0.0,0.0,0.0,0.0,0.0,0.0,0.0,0.0,0.0,0.0,0.0,0.0,0.0,0.0,0.0,0.0,-1.2203,0.0,-1.1742,-1.1599,-1.1613,-1.1613,-1.1592,-1.1613,-1.1613,-1.1592,0.0,0.0,0.0,0.0,0.0,0.0,-1.1592,0.0,0.0,0.0,-1.202,0.0,-1.2623,-1.2644,0.0,-1.3356,-1.3532,-1.3417,-1.3573,-1.3431,-1.3105,0.0,-1.242,-1.2182,0.0,-1.1484,-1.1531,-1.1226,0.0,0.0,0.0,0.0,0.0,0.0,-1.0555,0.0,0.0,0.0,0.0,0.0,0.0,0.0,0.0,0.0,0.0,0.0,0.0,0.0,0.0,0.0,0.0,0.0,0.0,0.0,0.0,-0.9707,-0.9693,-0.9836,-0.9734,-0.972,-0.9863,-0.9876,-0.9876,-0.9876,-0.9957,-1.0161,-1.0304,-1.0446,-1.0588,-1.0717,-1.0717,-1.0717,-1.0717,-1.0717,-1.0717,-1.0717,-1.0717,-1.0717,-1.0717,-1.0717,-1.0731,-1.0765,-1.0934,-1.1077,-1.1206,-1.1362,-1.1416,-1.1436,-0.9822,-0.989,0.0,0.0,0.0,0.0,0.0,0.0,0.0,0.0,0.0,0.0,0.0,0.0,0.0,0.0,0.0,-1.2223,0.0,0.0,0.0,-1.2006,-1.1925,-1.1877,-1.1877,-1.1789,-1.1701,-1.1619,-1.1619,0.0,0.0,0.0,0.0,0.0,-1.1667,0.0,-1.1748,0.0,-1.2169,0.0,0.0,0.0,0.0,-1.3376,-1.3587,-1.3532,-1.3505,-1.3417,-1.3234,0.0,-1.2535,0.0,0.0,0.0,0.0,0.0,0.0,0.0,0.0,0.0,0.0,0.0,0.0,0.0,-1.0071,0.0,-0.9822,0.0,0.0,0.0,0.0,0.0,0.0,0.0,0.0,0.0,0.0,0.0,0.0,0.0,0.0,0.0,0.0,0.0,0.0,0.0,-0.9686,-0.9673,-0.9815,-0.9822,-0.9822,-0.9822,-1.0059,-1.0215,-1.0283,-1.0507,-1.0656,-1.0717,-1.0717,-1.0717,-1.0717,-1.0717,-1.0717,-1.0717,-1.0717,-1.0717,-1.0717,-1.0717,-1.0717,-1.0724,-1.0792,-1.0907,-1.107,-1.1307,-1.1389,-1.1409,-0.9883,0.0,0.0,0.0,0.0,0.0,-1.0833,-1.1382,-1.1701,-1.1681,0.0,0.0,-1.2556,-1.2671,0.0,0.0,-1.2752,-1.2644,0.0,0.0,-1.2223,0.0,0.0,0.0,-1.1999,-1.1932,-1.1803,-1.1619,-1.1619,0.0,0.0,0.0,0.0,0.0,0.0,-1.1959,-1.1972,0.0,-1.2454,-1.2698,-1.2807,-1.2854,-1.2901,-1.3336,-1.3505,-1.3492,-1.3376,-1.3336,-1.3268,-1.282,-1.2589,0.0,-1.202,0.0,0.0,0.0,0.0,0.0,-1.0921,0.0,0.0,0.0,0.0,0.0,0.0,0.0,0.0,0.0,0.0,0.0,0.0,0.0,0.0,0.0,0.0,0.0,0.0,0.0,0.0,0.0,0.0,0.0,0.0,0.0,0.0,-0.9747,-0.9632,-0.9625,-0.9808,-0.9822,-0.9822,-0.9822,-1.008,-1.0236,-1.0283,-1.0534,-1.0677,-1.0717,-1.0717,-1.0717,-1.0717,-1.0717,-1.0717,-1.0717,-1.0717,-1.0717,-1.0717,-1.0717,-1.0717,-1.0717,-1.0717,-1.0785,-1.0921,-1.1219,-1.1328,-1.1355,-0.9977,-0.9984,0.0,0.0,0.0,-1.0595,-1.0833,-1.1206,-1.1504,0.0,0.0,0.0,0.0,0.0,0.0,0.0,0.0,-1.3546,-1.2976,0.0,-1.2447,0.0,0.0,-1.2142,0.0,-1.1979,-1.1911,-1.1619,-1.1619,0.0,0.0,0.0,0.0,0.0,0.0,-1.2277,-1.2305,-1.2745,-1.3017,-1.3152,-1.3159,-1.3159,-1.3159,0.0,-1.3186,-1.3186,-1.318,0.0,0.0,-1.2657,-1.2508,0.0,0.0,0.0,0.0,0.0,0.0,0.0,0.0,0.0,0.0,-1.0643,0.0,0.0,0.0,0.0,-0.9875,0.0,0.0,0.0,0.0,0.0,0.0,0.0,0.0,0.0,0.0,0.0,0.0,0.0,0.0,0.0,0.0,0.0,0.0,-0.9591,-0.9476,-0.9517,-0.9802,-0.9822,-0.9822,-0.9822,-0.9909,-1.0127,-1.0276,-1.0426,-1.0575,-1.0717,-1.0717,-1.0717,-1.0717,-1.0717,-1.0717,-1.0717,-1.0717,-1.0717,-1.0717,-1.0717,-1.0717,-1.0717,-1.0717,-1.0724,-1.0765,-1.1056,-1.1241,-1.1212,0.0,0.0,0.0,0.0,0.0,-1.0744,-1.1043,-1.1348,-1.1789,0.0,0.0,0.0,0.0,-1.4109,-1.4238,0.0,0.0,-1.3973,-1.3573,-1.3308,0.0,0.0,0.0,-1.2684,0.0,0.0,0.0,0.0,0.0,0.0,0.0,0.0,0.0,0.0,0.0,-1.225,0.0,0.0,0.0,0.0,0.0,-1.2996,-1.3173,0.0,0.0,-1.3186,-1.3288,-1.3261,0.0,-1.2888,-1.2671,-1.2467,-1.2277,-1.2108,-1.1965,-1.1864,-1.1796,0.0,0.0,0.0,-1.1538,-1.0941,0.0,0.0,0.0,0.0,0.0,0.0,0.0,0.0,0.0,0.0,0.0,0.0,0.0,0.0,0.0,0.0,0.0,0.0,0.0,0.0,0.0,0.0,0.0,-0.9585,-0.9469,-0.951,-0.9802,-0.9822,-0.9822,-0.9822,-1.0073,-1.0229,-1.0283,-1.0521,-1.067,-1.0717,-1.0717,-1.0717,-1.0717,-1.0717,-1.0717,-1.0717,-1.0717,-1.0717,-1.0717,-1.0717,-1.0717,-1.0717,-1.0717,-1.0717,-1.0758,-1.105,-1.1234,-1.1206,-1.0568,0.0,0.0,0.0,0.0,-1.09,-1.1199,0.0,0.0,0.0,-1.3383,0.0,-1.4733,0.0,-1.4889,0.0,-1.4882,-1.4509,-1.3878,-1.381,0.0,-1.3119,-1.3159,0.0,0.0,0.0,0.0,0.0,0.0,-1.1993,0.0,0.0,0.0,0.0,0.0,-1.2223,-1.2515,0.0,-1.2983,0.0,0.0,-1.2813,0.0,0.0,-1.3003,-1.3112,0.0,-1.3146,-1.299,-1.2847,-1.2664,-1.2488,-1.2393,-1.2264,-1.2121,-1.2026,-1.1959,-1.1877,-1.1735,-1.1762,0.0,-1.1158,-1.1023,0.0,-1.0331,0.0,0.0,0.0,0.0,0.0,0.0,0.0,0.0,0.0,0.0,0.0,0.0,0.0,0.0,0.0,0.0,0.0,0.0,0.0,-0.9205,-0.9503,-0.9435,-0.949,0.0,0.0,-0.9822,-0.9822,-1.012,-1.0283,-1.0283,-1.0575,-1.0717,-1.0717,-1.0717,-1.0717,-1.0717,-1.0717,-1.0717,-1.0717,-1.0717,-1.0717,-1.0717,-1.0717,-1.0717,-1.0717,-1.0717,-1.0717,-1.0758,-1.105,-1.1233,-1.1348,0.0,0.0,0.0,0.0,-1.0778,0.0,0.0,0.0,-1.2895,0.0,-1.3966,-1.4516,-1.4997,-1.5289,-1.5398,-1.5262,-1.5493,-1.516,-1.3994,-1.4306,0.0,0.0,-1.3424,-1.3376,-1.28,0.0,0.0,0.0,0.0,0.0,0.0,0.0,0.0,0.0,-1.2135,0.0,-1.2501,-1.2807,-1.3105,-1.3329,-1.2895,-1.2637,-1.2522,-1.2515,-1.2698,-1.2963,-1.2963,-1.2861,-1.2705,-1.2562,-1.2508,-1.2501,-1.2501,-1.2413,-1.2298,-1.2298,-1.2196,-1.2054,-1.1904,-1.1864,-1.1755,-1.1307,0.0,0.0,0.0,0.0,-1.0399,0.0,0.0,0.0,0.0,0.0,0.0,0.0,0.0,0.0,0.0,0.0,0.0,0.0,0.0,0.0,0.0,-0.8798,-0.9062,-0.9361,-0.9374,0.0,0.0,0.0,-0.9815,-0.9829,-1.012,-1.0283,-1.029,-1.0575,-1.0717,-1.0717,-1.0717,-1.0717,-1.0717,-1.0717,-1.0717,-1.0717,-1.0717,-1.0717,-1.0717,-1.0717,-1.0717,-1.0717,-1.0717,-1.0731,-1.0778,-1.1056,-1.1355,-1.1599,-1.0751,-1.0894,-1.107,0.0,-1.1226,-1.1375,0.0,0.0,0.0,0.0,-1.4496,-1.5133,-1.6029,-1.6096,-1.6103,-1.6171,-1.5947,0.0,0.0,0.0,0.0,-1.398,-1.396,-1.3831,-1.3559,-1.3376,0.0,-1.2888,0.0,0.0,-1.2284,0.0,0.0,0.0,0.0,0.0,-1.2196,-1.2494,-1.2732,-1.2881,-1.2651,-1.2678,0.0,0.0,-1.2793,-1.2963,-1.2963,-1.2861,-1.2725,-1.2684,-1.2596,-1.2501,-1.2501,-1.2474,-1.2447,-1.2447,-1.242,-1.2379,-1.2338,-1.2332,-1.2223,-1.1769,-1.1579,-1.1382,0.0,0.0,0.0,0.0,0.0,0.0,0.0,0.0,0.0,0.0,0.0,0.0,0.0,0.0,0.0,0.0,0.0,0.0,0.0,-0.8787,-0.9062,-0.9361,-0.933,0.0,0.0,0.0,0.0,-0.9923,-1.0181,-1.0331,-1.0439,-1.0622,-1.0717,-1.0717,-1.0717,-1.0717,-1.0717,-1.0717,-1.0717,-1.0717,-1.0717,-1.0717,-1.0717,-1.0717,-1.0717,-1.0717,-1.0717,-1.0853,-1.1056,-1.12,-1.1355,-1.1613,-1.1043,0.0,0.0,-1.1565,0.0,0.0,-1.2291,0.0,0.0,-1.4251,-1.4733,0.0,-1.5954,-1.6144,-1.6239,-1.632,-1.6096,0.0,-1.5432,0.0,0.0,-1.4421,-1.4312,-1.4102,-1.3756,-1.3519,0.0,-1.3078,0.0,0.0,-1.2372,0.0,0.0,0.0,0.0,-1.2033,0.0,-1.2549,-1.2712,-1.2725,-1.2637,0.0,0.0,-1.2637,-1.2684,-1.2759,-1.2759,-1.2745,-1.2718,-1.2651,-1.2576,-1.2501,-1.2501,-1.2501,-1.2501,-1.2501,-1.2501,-1.2501,-1.2501,-1.2454,-1.2096,-1.0953,-1.1151,-1.139,-1.0101,-1.031,-1.0596,0.0,0.0,0.0,0.0,0.0,0.0,0.0,0.0,0.0,0.0,0.0,0.0,0.0,0.0,0.0,0.0,0.0,-0.9035,-0.9323,0.0,0.0,0.0,0.0,0.0,-0.9883,-1.0168,-1.0351,-1.0487,-1.0643,-1.0717,-1.0717,-1.0717,-1.0717,-1.0717,-1.0717,-1.0717,-1.0717,-1.0717,-1.0717,-1.0717,-1.0717,-1.0717,-1.0724,-1.0725,-1.0962,-1.1241,-1.124,-1.1416,-1.1599,-1.147,0.0,0.0,0.0,0.0,0.0,0.0,-1.3247,0.0,-1.4462,0.0,-1.5221,-1.5499,-1.5879,-1.611,-1.611,0.0,-1.5913,-1.5527,-1.5588,-1.533,-1.4631,-1.4563,-1.4278,-1.3729,-1.3532,-1.3295,0.0,0.0,0.0,0.0,0.0,0.0,0.0,0.0,0.0,0.0,-1.2691,-1.2786,-1.2644,-1.2684,-1.2549,-1.2332,-1.2474,-1.2528,-1.2528,-1.2528,-1.2603,-1.2678,-1.2549,-1.2501,-1.2501,-1.2501,-1.2501,-1.2501,-1.2501,-1.2501,-1.2501,-1.2481,-1.2386,-1.1789,-0.965,-1.0281,-1.0948,-0.8958,-0.9601,-1.0474,-1.0046,-0.8534,-0.7115,0.0,0.0,0.0,0.0,0.0,0.0,0.0,0.0,0.0,0.0,0.0,0.0,0.0,0.0,0.0,0.0,0.0,0.0,0.0,0.0,0.0,-0.9876,-1.0141,-1.0358,-1.0521,0.0,-1.0717,-1.0717,-1.0717,-1.0717,-1.0717,-1.0717,-1.0717,-1.0717,-1.0717,-1.0717,-1.0717,-1.0717,-1.0717,-1.0738,-1.082,-1.1036,-1.1179,-1.1314,-1.147,-1.1579,0.0,0.0,0.0,0.0,0.0,-1.3268,-1.3797,-1.4102,-1.4428,-1.4835,-1.5472,-1.5954,-1.6137,-1.6225,-1.6273,-1.6273,-1.6151,0.0,0.0,0.0,0.0,-1.5079,-1.4828,-1.4536,-1.419,-1.3797,-1.3505,0.0,0.0,0.0,0.0,0.0,0.0,0.0,0.0,0.0,-1.1932,-1.2264,0.0,-1.2203,-1.244,-1.2508,-1.2481,-1.263,-1.2691,-1.2691,-1.2691,-1.2623,-1.2535,-1.2508,-1.2501,-1.2501,-1.2501,-1.2501,-1.2501,-1.2501,-1.2501,-1.2474,-1.2359,-1.2311,-1.1763,-0.9478,-0.9181,-0.928,-0.8776,-0.7606,-0.7057,-0.8464,-0.7215,-0.5604,-0.5053,0.0,0.0,0.0,0.0,0.0,0.0,0.0,0.0,0.0,0.0,0.0,0.0,0.0,0.0,0.0,0.0,0.0,0.0,0.0,0.0,0.0,-1.0249,0.0,0.0,0.0,-1.0717,-1.0717,-1.0717,-1.0717,-1.0717,-1.0717,-1.0717,-1.0717,-1.0717,-1.0717,-1.0717,-1.0717,-1.0717,-1.0738,-1.082,-1.1036,-1.1165,-1.1261,-1.1382,-1.1613,0.0,0.0,0.0,0.0,0.0,0.0,0.0,-1.4685,0.0,-1.4862,-1.5167,-1.5445,-1.5601,-1.5825,-1.5995,-1.6062,-1.594,-1.5852,-1.5852,-1.5567,-1.5303,-1.5079,-1.478,0.0,-1.419,-1.3743,-1.3471,-1.3403,0.0,0.0,0.0,0.0,0.0,0.0,0.0,-1.1789,0.0,0.0,0.0,-1.242,-1.2562,-1.2617,-1.263,-1.2705,-1.2678,-1.261,-1.261,-1.2562,-1.2501,-1.2501,-1.2501,-1.2501,-1.2501,-1.2501,-1.2501,-1.2501,-1.2501,-1.2467,-1.2332,-1.223,-1.1433,-0.8169,-0.8089,-0.8261,-0.6177,-0.572,-0.5982,-0.6848,-0.543,-0.3705,-0.2443,-0.2649,0.0,0.0,0.0,0.0,0.0,0.0,0.0,0.0,0.0,0.0,0.0,0.0,0.0,0.0,0.0,0.0,0.0,0.0,0.0,0.0,0.0,0.0,0.0,0.0,0.0,-1.0717,-1.0717,-1.0717,-1.0717,-1.0717,-1.0717,-1.0717,-1.0717,-1.0717,-1.0717,-1.0717,-1.0717,-1.0744,-1.0968,-1.1104,-1.1255,-1.1341,-1.1491,-1.1606,0.0,-1.2406,0.0,0.0,-1.3593,0.0,-1.4407,-1.4977,-1.5248,-1.4923,-1.4909,-1.4977,-1.5099,-1.5425,-1.5683,-1.5798,-1.5703,-1.5628,-1.5594,-1.5337,-1.5106,-1.493,-1.4658,-1.4387,-1.4129,-1.3682,-1.3403,0.0,0.0,0.0,0.0,0.0,0.0,0.0,0.0,0.0,0.0,0.0,-1.2501,-1.2684,-1.2718,-1.2732,-1.2725,-1.2691,-1.261,-1.2501,-1.2501,-1.2501,-1.2501,-1.2501,-1.2501,-1.2501,-1.2501,-1.2501,-1.2494,-1.2467,-1.2481,-1.2377,-1.1713,-1.1521,-1.0506,-0.6356,-0.6432,-0.6673,-0.3633,-0.3732,-0.4667,-0.4969,-0.3588,-0.1898,-0.0662,-0.189,0.0,0.0,0.0,0.0,0.0,0.0,0.0,0.0,0.0,0.0,0.0,0.0,0.0,0.0,0.0,-0.9049,-0.9248,-0.9347,-0.9618,0.0,0.0,-1.0405,-1.067,0.0,-1.0717,-1.0717,-1.0717,-1.0717,-1.0717,-1.0717,-1.0717,-1.0717,-1.0717,-1.0717,-1.0717,-1.0717,-1.0717,-1.0751,-1.105,-1.1234,-1.1199,-1.1504,-1.1619,-1.1599,0.0,0.0,0.0,0.0,0.0,0.0,-1.4292,-1.4821,-1.5242,-1.5337,-1.5466,-1.556,-1.5574,-1.5615,-1.5642,-1.5655,-1.5649,-1.5581,-1.5438,-1.5276,-1.5059,-1.4774,-1.4604,-1.4441,-1.4285,-1.3838,-1.341,0.0,0.0,0.0,0.0,0.0,0.0,0.0,0.0,0.0,0.0,-1.2454,-1.2623,-1.2535,-1.2671,-1.2732,-1.2712,-1.2576,-1.2515,-1.2501,-1.2501,-1.2501,-1.2501,-1.2501,-1.2501,-1.2501,-1.2501,-1.2501,-1.2474,-1.2345,-1.24,-1.2022,-0.9813,-0.934,-0.8458,-0.4246,-0.3346,-0.3342,-0.2979,-0.1642,-0.1053,-0.2799,-0.1646,-0.0604,-0.165,-0.1052,-0.1112,0.0,0.0,0.0,0.0,0.0,0.0,0.0,0.0,0.0,0.0,0.0,0.0,0.0,0.0,-0.9255,-0.9354,-0.9503,-0.9727,-0.9977,0.0,-1.0358,-1.0514,-1.0649,-1.0717,-1.0717,-1.0717,-1.0717,-1.0717,-1.0717,-1.0717,-1.0717,-1.0717,-1.0717,-1.0717,-1.0717,-1.0717,-1.0751,-1.105,-1.1234,-1.1199,-1.1504,-1.1619,-1.1619,0.0,0.0,0.0,0.0,0.0,0.0,0.0,-1.4767,-1.4936,-1.4997,-1.5215,-1.5364,-1.5364,-1.5289,-1.5235,-1.5235,-1.5153,-1.5072,-1.5011,-1.4862,-1.4726,-1.4611,-1.4462,-1.436,-1.4299,-1.3946,-1.358,0.0,0.0,0.0,0.0,0.0,0.0,0.0,0.0,-1.1864,-1.1864,-1.2379,-1.2556,-1.2515,-1.2671,-1.2732,-1.2712,-1.2562,-1.2501,-1.2501,-1.2501,-1.2501,-1.2501,-1.2501,-1.2447,-1.2386,-1.2474,-1.244,-1.2149,-1.0934,-1.0608,-1.0168,-0.7818,-0.7207,-0.6537,-0.361,-0.2926,-0.2618,-0.1456,-0.0572,-0.021,-0.0981,-0.0549,-0.0134,-0.0668,-0.0993,-0.1252,0.0,0.0,0.0,0.0,0.0,0.0,0.0,0.0,0.0,0.0,0.0,0.0,0.0,0.0,0.0,-0.9296,-0.9388,0.0,-0.9842,0.0,-1.0351,-1.0487,-1.0643,-1.0717,-1.0717,-1.0717,-1.0717,-1.0717,-1.0717,-1.0717,-1.0717,-1.0717,-1.0717,-1.0717,-1.0717,-1.0717,-1.0751,-1.105,-1.1234,-1.1199,-1.1504,-1.1619,-1.1619,-1.3512,0.0,-1.3614,0.0,-1.4136,-1.4258,-1.4618,-1.4713,-1.474,-1.474,-1.4923,-1.5052,-1.5052,-1.4964,-1.4903,-1.4903,-1.4801,-1.4719,-1.4672,-1.457,-1.4489,-1.4448,-1.4353,0.0,-1.4299,-1.4041,-1.3743,-1.3403,-1.3037,0.0,0.0,0.0,0.0,0.0,-1.1796,-1.1911,-1.1993,-1.24,-1.2569,-1.2576,-1.2684,-1.2732,-1.2712,-1.2562,-1.2501,-1.2501,-1.2501,-1.2501,-1.2501,-1.2501,-1.2406,-1.2318,-1.2461,-1.2433,-1.1976,-0.9932,-0.9367,-0.877,-0.5866,-0.5112,-0.4681,-0.2585,-0.2052,-0.1675,-0.0292,0.0,0.0,0.0,0.0,0.0,0.0,-0.0801,-0.1261,-0.0668,0.0,0.0,0.0,0.0,0.0,0.0,-0.4561,-0.5902,-0.8868,0.0,0.0,0.0,0.0,0.0,0.0,0.0,0.0,0.0,0.0,0.0,0.0,-1.0643,-1.0717,-1.0717,-1.0717,-1.0717,-1.0717,-1.0717,-1.0717,-1.0717,-1.0717,-1.0717,-1.0717,-1.0717,-1.0744,-1.0812,-1.1063,-1.1192,-1.126,-1.1525,-1.1619,-1.1619,-1.3777,-1.3722,-1.377,-1.4217,-1.4299,-1.4346,-1.4489,-1.4645,-1.474,-1.474,-1.474,-1.4746,-1.4746,-1.474,-1.474,-1.474,-1.474,-1.4672,-1.4523,-1.4516,-1.4448,0.0,0.0,-1.4299,-1.4299,-1.415,-1.3851,-1.3403,0.0,0.0,-1.1626,0.0,-1.1775,-1.2067,-1.2359,-1.2413,-1.2305,-1.2603,-1.2725,-1.2725,-1.2732,-1.2732,-1.2712,-1.2562,-1.2501,-1.2501,-1.2501,-1.2501,-1.2501,-1.2501,-1.2406,-1.2318,-1.2461,-1.2501,-1.2082,-0.9851,-0.9285,-0.8447,-0.4115,-0.3067,-0.2629,-0.0587,0.0,0.0,0.0,0.0,0.0,0.0,0.0,0.0,0.0,0.0,-0.0469,-0.1782,0.0,0.0,0.0,0.0,0.0,0.0,-0.6372,-0.7972,-0.9633,0.0,0.0,0.0,0.0,0.0,0.0,0.0,0.0,-0.9977,-1.0202,0.0,-1.0487,-1.0643,-1.0717,-1.0717,-1.0717,-1.0717,-1.0717,-1.0717,-1.0717,-1.0717,-1.0717,-1.0717,-1.0717,-1.0717,-1.0812,-1.0894,-1.1104,-1.1253,-1.1409,-1.1558,-1.1619,-1.1619,-1.4136,-1.4116,-1.4129,-1.4278,-1.4299,-1.4319,-1.436,-1.4407,-1.4441,-1.4441,-1.4441,-1.4441,-1.4441,-1.4529,-1.4543,0.0,-1.4441,-1.4421,0.0,-1.4367,-1.4346,-1.4299,-1.4299,-1.4299,-1.4299,-1.4251,-1.4007,-1.3559,0.0,0.0,0.0,-1.2271,-1.2216,-1.2223,-1.2318,-1.2332,-1.2311,-1.2603,-1.2671,-1.2589,-1.2807,-1.2759,-1.2583,-1.2637,-1.2589,-1.2501,-1.2501,-1.2501,-1.2269,-1.0856,-1.0363,-1.0092,-0.8731,-0.9182,-0.9555,-0.6072,-0.5055,-0.4492,-0.1658,-0.0968,-0.0812,-0.0148,0.0,0.0,0.0,0.0,0.0,0.0,0.0,0.0,0.0,0.0,-0.0134,-0.0535,-0.0268,0.0,0.0,0.0,0.0,0.0,-0.4511,-0.5881,0.0,-0.8762,0.0,0.0,0.0,0.0,0.0,0.0,0.0,0.0,-1.0148,0.0,-1.0487,-1.0643,-1.0717,-1.0717,-1.0717,-1.0717,-1.0717,-1.0717,-1.0717,-1.0717,-1.0717,-1.0717,-1.0717,-1.0717,-1.0751,-1.0806,-1.0955,-1.1043,-1.1118,-1.1369,-1.1463,-1.1477,-1.4299,-1.4299,-1.4299,-1.4299,-1.4299,-1.4299,-1.4299,-1.4299,-1.4299,-1.4299,-1.4299,-1.4299,-1.4299,-1.438,0.0,-1.4306,-1.4299,-1.4299,-1.4299,-1.4299,-1.4299,-1.4299,-1.4299,-1.4299,-1.4299,-1.4245,0.0,-1.3709,-1.3485,-1.3186,-1.2813,-1.2603,-1.2488,-1.2454,-1.2393,-1.2372,-1.2379,-1.2569,-1.2589,-1.2522,-1.2712,-1.2671,-1.2515,-1.261,-1.2583,-1.2501,-1.2501,-1.1998,-1.11,-0.9826,-0.8881,-0.7907,-0.5775,-0.5928,-0.64,-0.3829,-0.3116,-0.2642,-0.0602,0.0,0.0,0.0,0.0,0.0,0.0,0.0,0.0,0.0,0.0,0.0,0.0,0.0,0.0,0.0,0.0,0.0,0.0,0.0,0.0,0.0,0.0,0.0,0.0,-0.9018,-0.9169,0.0,0.0,0.0,0.0,0.0,0.0,-0.9985,-1.0236,0.0,-1.0575,-1.067,-1.0717,-1.0717,-1.0717,-1.0717,-1.0717,-1.0717,-1.0717,-1.0717,-1.0717,-1.0717,-1.0717,-1.0717,-1.0751,-1.0745,-1.0847,-1.0948,-1.1138,-1.1321,-1.143,-1.1491,-1.4299,-1.4299,-1.4299,0.0,-1.4299,0.0,-1.4299,-1.4299,-1.4299,-1.4299,-1.4299,-1.4299,-1.4299,-1.4299,-1.4299,-1.4299,0.0,0.0,0.0,-1.4299,-1.4299,-1.4299,-1.4292,-1.4285,-1.4285,-1.4136,-1.398,-1.3824,-1.3268,-1.299,-1.2983,-1.2678,-1.261,-1.2739,-1.2576,-1.2501,-1.2501,-1.2501,-1.2501,-1.2501,-1.2515,-1.2508,-1.2501,-1.2515,-1.2431,-1.2263,-1.2256,-1.0922,-0.9147,-0.9016,-0.7671,-0.5682,-0.3535,-0.2865,-0.2876,-0.2886,-0.2868,-0.2487,-0.0522,0.0,0.0,0.0,0.0,0.0,0.0,0.0,0.0,0.0,0.0,0.0,0.0,0.0,0.0,0.0,0.0,0.0,0.0,0.0,0.0,0.0,0.0,0.0,0.0,-0.9977,-0.9923,0.0,0.0,0.0,0.0,0.0,-0.9992,-1.027,-1.0419,-1.0568,-1.0717,-1.0717,-1.0717,-1.0717,-1.0717,-1.0717,-1.0717,-1.0717,-1.0717,-1.0717,-1.0717,-1.0717,-1.0717,-1.0717,-1.0812,-1.088,-1.0867,-1.1111,-1.1375,-1.1362,-1.1463,-1.1606,0.0,0.0,-1.4299,-1.4299,-1.4299,-1.4299,-1.4299,-1.4299,-1.4299,-1.4299,-1.4299,-1.4299,-1.4299,-1.4299,-1.4299,-1.4299,-1.4299,-1.4299,-1.4299,-1.4299,-1.4299,-1.4299,-1.419,-1.4129,-1.4129,-1.3973,-1.3824,-1.3682,-1.3424,-1.3295,-1.3288,-1.299,-1.2874,-1.2895,-1.2623,-1.2501,-1.2501,-1.2501,-1.2501,-1.2515,-1.263,-1.2603,-1.2515,-1.263,-1.1576,-1.0142,-1.0125,-0.8765,-0.6758,-0.5166,-0.4239,-0.3456,-0.1371,-0.0761,-0.0761,-0.075,-0.0752,-0.0603,-0.0148,0.0,0.0,0.0,0.0,0.0,0.0,0.0,0.0,0.0,0.0,0.0,0.0,0.0,0.0,0.0,0.0,0.0,0.0,0.0,0.0,0.0,-0.4616,-0.599,-0.9411,-0.9636,-0.9711,0.0,0.0,0.0,0.0,-1.0276,-1.0317,-1.0283,-1.0419,-1.0568,-1.0717,-1.0717,-1.0717,-1.0717,-1.0717,-1.0717,-1.0717,-1.0717,-1.0717,-1.0717,-1.0717,-1.0717,-1.0717,-1.0717,-1.0812,-1.0867,-1.0819,-1.0955,-1.1206,-1.109,-1.1219,-1.1443,-1.4299,-1.4299,-1.4299,-1.4299,-1.4299,-1.4299,-1.4299,-1.4299,-1.4299,-1.4299,-1.4299,-1.4299,-1.4299,-1.4299,-1.4299,-1.4299,-1.4299,-1.4299,-1.4299,-1.4299,-1.4299,-1.4299,-1.4156,-1.4075,-1.4075,-1.3858,-1.3675,-1.3526,-1.3444,-1.3363,-1.3295,-1.3064,-1.2922,-1.2847,-1.261,-1.2501,-1.2501,-1.2501,-1.2501,-1.2508,-1.2589,-1.2576,-1.2431,-1.157,-1.0448,-0.9284,-0.8324,-0.6601,-0.4688,-0.3462,-0.2463,-0.1462,-0.0382,0.0,0.0,0.0,0.0,0.0,0.0,0.0,0.0,0.0,0.0,0.0,0.0,0.0,0.0,0.0,0.0,0.0,0.0,0.0,0.0,0.0,0.0,0.0,0.0,0.0,0.0,-0.3353,-0.4434,-0.5926,-0.8516,-0.9482,-0.9986,-1.027,-1.0263,0.0,-1.0276,-1.048,-1.0527,-1.0378,-1.0521,-1.0636,-1.0717,-1.0717,-1.0717,-1.0717,-1.0717,-1.0758,-1.0819,-1.0751,-1.0758,-1.0819,-1.0751,-1.0717,-1.0717,-1.0717,-1.0772,-1.0846,-1.0826,-1.0962,-1.1165,-1.1151,-1.1294,-1.1497,-1.4299,-1.4299,-1.4299,-1.4299,-1.4299,-1.4299,-1.4299,-1.4299,-1.4299,-1.4299,-1.4299,-1.4299,-1.4299,-1.4299,-1.4299,-1.4299,-1.4299,-1.4299,-1.4299,-1.4299,-1.4292,-1.4265,-1.4116,-1.4027,-1.4007,-1.3736,-1.3532,-1.3403,-1.3403,-1.3322,-1.3166,-1.303,-1.2874,-1.2725,-1.2569,-1.2501,-1.2501,-1.2501,-1.2347,-1.203,-1.203,-1.1876,-1.1405,-0.9609,-0.875,-0.8192,-0.6477,-0.4458,-0.2617,-0.2617,-0.1464,0.0,0.0,0.0,0.0,0.0,0.0,0.0,0.0,0.0,0.0,0.0,0.0,0.0,0.0,0.0,0.0,0.0,0.0,0.0,0.0,0.0,0.0,0.0,0.0,0.0,0.0,0.0,-0.0694,-0.2515,-0.4281,-0.6041,-0.7687,-0.9453,-1.0453,-1.0351,-1.0439,-1.0453,-1.0351,-1.0582,-1.0663,-1.0527,-1.0649,-1.0717,-1.0717,-1.0717,-1.0717,-1.0717,-1.0744,-1.0819,-1.088,-1.0839,-1.086,-1.0975,-1.0819,-1.0758,-1.0751,-1.0731,-1.0731,-1.0765,-1.0833,-1.105,-1.1212,-1.1314,-1.147,-1.1613,-1.4299,-1.4299,-1.4299,-1.4299,-1.4299,-1.4299,-1.4299,-1.4299,-1.4299,-1.4299,-1.4299,-1.4299,-1.4299,-1.4299,-1.4299,-1.4299,-1.4299,-1.4299,-1.4299,-1.4299,-1.4245,-1.4116,-1.396,-1.3817,-1.3702,-1.3526,-1.3424,-1.3403,-1.3403,-1.3322,-1.3166,-1.303,-1.2874,-1.2725,-1.2569,-1.2501,-1.2501,-1.2501,-1.1482,-0.992,-0.992,-0.8828,-0.7189,-0.6878,-0.563,-0.4061,-0.3706,-0.2233,-0.0462,-0.0462,-0.0231,0.0,0.0,0.0,0.0,0.0,0.0,0.0,0.0,0.0,0.0,0.0,0.0,0.0,0.0,0.0,0.0,0.0,0.0,0.0,0.0,0.0,0.0,0.0,0.0,0.0,0.0,0.0,-0.0694,-0.2515,-0.4293,-0.6062,-0.7806,-0.9508,-1.0534,-1.0643,-1.0555,-1.0541,-1.0643,-1.0697,-1.0711,-1.0683,-1.0711,-1.0717,-1.0717,-1.0717,-1.0717,-1.0724,-1.0786,-1.086,-1.0887,-1.105,-1.1111,-1.1124,-1.0975,-1.0847,-1.0833,-1.0772,-1.0799,-1.0847,-1.0873,-1.1118,-1.1341,-1.124,-1.1375,-1.1599,-1.4299,-1.4299,-1.4299,-1.4299,-1.4299,-1.4299,-1.4299,-1.4299,-1.4299,-1.4299,-1.4299,-1.4299,-1.4299,-1.4299,-1.4299,-1.4299,-1.4299,-1.4265,-1.4183,-1.4251,-1.4231,-1.4082,-1.3926,-1.3736,-1.3512,-1.3356,-1.3315,-1.3403,-1.3241,-1.3125,-1.3057,-1.2908,-1.2752,-1.2603,-1.2535,-1.1876,-1.0856,-1.0856,-0.9609,-0.7738,-0.7738,-0.7193,-0.6176,-0.5006,-0.399,-0.297,-0.1856,-0.0851,0.0,0.0,0.0,0.0,0.0,0.0,0.0,0.0,0.0,0.0,0.0,0.0,0.0,0.0,0.0,0.0,0.0,0.0,0.0,0.0,0.0,0.0,0.0,0.0,0.0,0.0,0.0,0.0,0.0,0.0,-0.032,-0.116,-0.3694,-0.5696,-0.6498,-0.9053,-1.0643,-1.0717,-1.0656,-1.0643,-1.0717,-1.0717,-1.0717,-1.0717,-1.0717,-1.0717,-1.0717,-1.0717,-1.0765,-1.0779,-1.0847,-1.0961,-1.1185,-1.1172,-1.1206,-1.1274,-1.1043,-1.088,-1.0867,-1.0785,-1.0812,-1.0887,-1.1036,-1.1199,-1.1396,-1.1402,-1.1497,-1.1606,-1.4299,-1.4299,-1.4299,-1.4299,-1.4299,-1.4299,-1.4299,-1.4299,-1.4299,-1.4299,-1.4299,-1.4299,-1.4299,-1.4299,-1.4299,-1.4299,-1.4265,-1.4197,-1.4082,-1.415,-1.4122,-1.3973,-1.3817,-1.3634,-1.3403,-1.3254,-1.3227,-1.3349,-1.3085,-1.2942,-1.2901,-1.2786,-1.2331,-1.1798,-1.1798,-1.0624,-0.8672,-0.8672,-0.7501,-0.5552,-0.5552,-0.524,-0.4696,-0.2975,-0.2349,-0.219,-0.0544,0.0,0.0,0.0,0.0,0.0,0.0,0.0,0.0,0.0,0.0,0.0,0.0,0.0,0.0,0.0,0.0,0.0,0.0,0.0,0.0,0.0,0.0,0.0,0.0,0.0,0.0,0.0,0.0,0.0,0.0,0.0,0.0,0.0,-0.3208,-0.5457,-0.5389,-0.8617,-1.0772,-1.0772,-1.0738,-1.0738,-1.0772,-1.0738,-1.0717,-1.0717,-1.0758,-1.0772,-1.0772,-1.0806,-1.088,-1.0995,-1.1036,-1.1172,-1.1389,-1.1307,-1.1335,-1.143,-1.1165,-1.105,-1.1036,-1.0887,-1.0894,-1.1016,-1.1158,-1.1287,-1.1409,-1.1565,-1.1619,-1.1619,-1.4299,-1.4299,-1.4299,-1.4299,-1.4299,-1.4299,-1.4299,-1.4299,-1.4299,-1.4299,-1.4299,-1.4299,-1.4299,-1.4299,-1.4299,-1.4299,-1.417,-1.4082,-1.4075,-1.3946,-1.381,-1.3668,-1.3512,-1.3424,-1.3403,-1.3254,-1.318,-1.3193,-1.3037,-1.2888,-1.2745,-1.2732,-1.1619,-0.9609,-0.9609,-0.8439,-0.6492,-0.6492,-0.5318,-0.3365,-0.3365,-0.2194,-0.0471,-0.0314,-0.0236,-0.0235,-0.0078,0.0,0.0,0.0,0.0,0.0,0.0,0.0,0.0,0.0,0.0,0.0,0.0,0.0,0.0,0.0,0.0,0.0,0.0,0.0,0.0,0.0,0.0,0.0,0.0,0.0,0.0,0.0,0.0,0.0,0.0,0.0,0.0,0.0,-0.332,-0.5532,-0.5399,-0.8742,-1.086,-1.086,-1.0799,-1.0778,-1.0853,-1.0799,-1.0717,-1.0717,-1.0793,-1.086,-1.086,-1.1063,-1.1138,-1.1151,-1.1287,-1.1369,-1.1396,-1.1525,-1.1592,-1.1592,-1.143,-1.1362,-1.1348,-1.1192,-1.1138,-1.1165,-1.1314,-1.1382,-1.1409,-1.1565,-1.1619,-1.1619,-1.4299,-1.4299,-1.4299,-1.4299,-1.4299,-1.4299,-1.4299,-1.4299,-1.4299,-1.4299,-1.4299,-1.4299,-1.4299,-1.4299,-1.4265,-1.4163,-1.4102,-1.3994,-1.381,-1.3743,-1.3688,-1.3634,-1.339,-1.3261,-1.3261,-1.3024,-1.2942,-1.3044,-1.28,-1.2056,-1.0814,-1.0655,-0.9495,-0.7505,-0.7505,-0.6332,-0.4303,-0.4303,-0.3132,-0.1177,-0.1177,-0.0706,0.0,0.0,0.0,0.0,0.0,0.0,0.0,0.0,0.0,0.0,0.0,0.0,0.0,0.0,0.0,0.0,0.0,0.0,0.0,0.0,0.0,0.0,0.0,0.0,0.0,0.0,0.0,0.0,0.0,0.0,0.0,0.0,0.0,0.0,0.0,0.0,0.0,0.0,-0.2266,-0.4245,-0.5273,-0.7728,-0.9709,-1.0812,-1.0975,-1.1016,-1.1077,-1.1029,-1.0995,-1.0995,-1.1145,-1.1131,-1.088,-1.109,-1.1212,-1.1307,-1.1362,-1.1443,-1.1538,-1.1592,-1.1619,-1.1613,-1.1457,-1.1389,-1.1382,-1.1226,-1.1219,-1.1307,-1.1369,-1.145,-1.1538,-1.1599,-1.1619,-1.1619,-1.4299,-1.4299,-1.4299,-1.4299,-1.4299,-1.4299,-1.4299,-1.4299,-1.4299,-1.4299,-1.4258,-1.4231,-1.4231,-1.4183,-1.4116,-1.4007,-1.396,-1.3844,-1.3641,-1.3587,-1.3559,-1.3559,-1.3356,-1.322,-1.3173,-1.2275,-1.1861,-1.1918,-1.1047,-0.9885,-0.8544,-0.8471,-0.7267,-0.5318,-0.5318,-0.4146,-0.2115,-0.2115,-0.1333,0.0,0.0,0.0,0.0,0.0,0.0,0.0,0.0,0.0,0.0,0.0,0.0,0.0,0.0,0.0,0.0,0.0,0.0,0.0,0.0,0.0,0.0,0.0,0.0,0.0,0.0,0.0,0.0,0.0,0.0,0.0,0.0,0.0,0.0,0.0,0.0,0.0,0.0,0.0,0.0,0.0,-0.1607,-0.3261,-0.4439,-0.6306,-0.8168,-1.0041,-1.0229,-1.0536,-1.1165,-1.1234,-1.1234,-1.1234,-1.1314,-1.1294,-1.109,-1.1233,-1.1362,-1.1463,-1.1463,-1.1518,-1.1619,-1.1619,-1.1619,-1.1613,-1.1511,-1.1463,-1.1457,-1.1348,-1.1369,-1.1463,-1.1463,-1.1525,-1.1619,-1.1619,-1.1619,-1.1619,-1.4299,-1.4299,-1.4299,-1.4299,-1.4299,-1.4299,-1.4299,-1.4299,-1.4299,-1.4299,-1.4163,-1.4068,-1.4068,-1.3933,-1.3838,-1.3838,-1.3709,-1.3627,-1.3543,-1.3485,-1.3397,-1.3314,-1.3397,-1.3322,-1.3173,-1.0982,-0.9732,-0.9624,-0.7393,-0.6254,-0.6254,-0.6254,-0.5162,-0.3052,-0.3052,-0.1959,0.0,0.0,0.0,0.0,0.0,0.0,0.0,0.0,0.0,0.0,0.0,0.0,0.0,0.0,0.0,0.0,0.0,0.0,0.0,0.0,0.0,0.0,0.0,0.0,0.0,0.0,0.0,0.0,0.0,0.0,0.0,0.0,0.0,0.0,0.0,0.0,0.0,0.0,0.0,0.0,0.0,0.0,0.0,0.0,-0.1714,-0.2852,-0.2711,-0.4419,-0.6406,-0.8318,-0.8363,-0.914,-1.1096,-1.1165,-1.1165,-1.1165,-1.1314,-1.1396,-1.1396,-1.1545,-1.1619,-1.1619,-1.1619,-1.1619,-1.1619,-1.1619,-1.1619,-1.1619,-1.1619,-1.1619,-1.1619,-1.1619,-1.1619,-1.1619,-1.1619,-1.1619,-1.1619,-1.1619,-1.1619,-1.1619,-1.4,-1.4068,-1.4102,-1.3994,-1.398,-1.398,-1.398,-1.398,-1.398,-1.398,-1.3939,-1.3912,-1.3912,-1.3871,-1.3797,-1.3702,-1.3654,-1.2862,-1.1151,-1.2433,-1.1867,-0.8829,-1.0135,-1.146,-1.2788,-0.9213,-0.8041,-0.9427,-0.7361,-0.5552,-0.4068,-0.4068,-0.2897,-0.0941,-0.0941,-0.0549,0.0,0.0,0.0,0.0,0.0,0.0,0.0,0.0,0.0,0.0,0.0,0.0,0.0,0.0,0.0,0.0,0.0,0.0,0.0,0.0,0.0,0.0,0.0,0.0,0.0,0.0,0.0,0.0,0.0,0.0,0.0,0.0,0.0,0.0,0.0,0.0,0.0,0.0,0.0,0.0,0.0,0.0,0.0,0.0,-0.0503,-0.1358,-0.257,-0.328,-0.4488,-0.6331,-0.7789,-0.882,-0.939,-1.076,-1.1484,-1.1484,-1.1531,-1.1552,-1.1552,-1.1599,-1.1619,-1.1619,-1.1619,-1.1619,-1.1619,-1.1619,-1.1619,-1.1619,-1.1619,-1.1619,-1.1619,-1.1619,-1.1619,-1.1619,-1.1619,-1.1619,-1.1619,-1.1619,-1.1619,-1.1619,-1.3858,-1.3912,-1.3953,-1.3858,-1.3838,-1.3838,-1.3838,-1.3838,-1.3838,-1.3838,-1.379,-1.3756,-1.3756,-1.3702,-1.3634,-1.3546,-1.2721,-1.1191,-0.8816,-0.9917,-0.943,-0.6755,-0.7072,-0.8167,-1.0177,-0.6874,-0.5733,-0.6874,-0.4849,-0.3132,-0.188,-0.188,-0.1176,0.0,0.0,0.0,0.0,0.0,0.0,0.0,0.0,0.0,0.0,0.0,0.0,0.0,0.0,0.0,0.0,0.0,0.0,0.0,0.0,0.0,0.0,0.0,0.0,0.0,0.0,0.0,0.0,0.0,0.0,0.0,0.0,0.0,0.0,0.0,0.0,0.0,0.0,0.0,0.0,0.0,0.0,0.0,0.0,0.0,0.0,0.0,0.0,-0.0433,-0.1512,-0.1727,-0.2517,-0.4379,-0.6429,-0.7544,-0.7544,-0.943,-1.0449,-1.0449,-1.1181,-1.1619,-1.1619,-1.1619,-1.1619,-1.1619,-1.1619,-1.1619,-1.1619,-1.1619,-1.1619,-1.1613,-1.1558,-1.1565,-1.1613,-1.1491,-1.147,-1.1531,-1.1531,-1.1531,-1.1538,-1.1599,-1.1619,-1.1619,-1.3804,-1.381,-1.3817,-1.3804,-1.3804,-1.3804,-1.3804,-1.3804,-1.3804,-1.3804,-1.3688,-1.3607,-1.3607,-1.3485,-1.3321,-1.3148,-1.1029,-0.8729,-0.6581,-0.6594,-0.6438,-0.596,-0.4293,-0.4135,-0.5877,-0.3976,-0.3008,-0.313,-0.102,0.0,0.0,0.0,0.0,0.0,0.0,0.0,0.0,0.0,0.0,0.0,0.0,0.0,0.0,0.0,0.0,0.0,0.0,0.0,0.0,0.0,0.0,0.0,0.0,0.0,0.0,0.0,0.0,0.0,0.0,0.0,0.0,0.0,0.0,0.0,0.0,0.0,0.0,0.0,0.0,0.0,0.0,0.0,0.0,0.0,0.0,0.0,0.0,0.0,0.0,0.0,0.0,0.0,0.0,0.0,-0.0729,-0.2472,-0.4431,-0.5518,-0.5518,-0.7544,-0.8703,-0.8703,-1.0593,-1.1619,-1.1619,-1.1619,-1.1619,-1.1619,-1.1619,-1.1619,-1.1619,-1.1619,-1.1613,-1.1592,-1.145,-1.1463,-1.1558,-1.1274,-1.1253,-1.1389,-1.1389,-1.1402,-1.143,-1.1565,-1.1619,-1.1619,-1.3519,-1.3593,-1.3634,-1.3519,-1.3498,-1.3498,-1.3498,-1.3498,-1.3498,-1.3498,-1.3471,-1.3451,-1.3451,-1.3417,-1.2644,-1.0882,-0.8689,-0.646,-0.4155,-0.5596,-0.4976,-0.1576,-0.2515,-0.2594,-0.1417,-0.0945,-0.1494,-0.313,-0.102,0.0,0.0,0.0,0.0,0.0,0.0,0.0,0.0,0.0,0.0,0.0,0.0,0.0,0.0,0.0,0.0,0.0,0.0,0.0,0.0,0.0,0.0,0.0,0.0,0.0,0.0,0.0,0.0,0.0,0.0,0.0,0.0,0.0,0.0,0.0,0.0,0.0,0.0,0.0,0.0,0.0,0.0,0.0,0.0,0.0,0.0,0.0,0.0,0.0,0.0,0.0,0.0,0.0,0.0,0.0,-0.0146,-0.0583,-0.2401,-0.356,-0.356,-0.6817,-0.8703,-0.8703,-1.0593,-1.1619,-1.1619,-1.1619,-1.1619,-1.1619,-1.1619,-1.1619,-1.1619,-1.1619,-1.1552,-1.1436,-1.1402,-1.1341,-1.1253,-1.1192,-1.1253,-1.1389,-1.1389,-1.1463,-1.1572,-1.1606,-1.1619,-1.1619,-1.3417,-1.3464,-1.3498,-1.3417,-1.3403,-1.3403,-1.3403,-1.3403,-1.3403,-1.3403,-1.2478,-1.1807,-1.1807,-1.0882,-0.9271,-0.7063,-0.579,-0.4177,-0.1854,-0.2802,-0.2381,-0.0079,-0.102,-0.1098,0.0,0.0,-0.0549,-0.1646,-0.0549,0.0,0.0,0.0,0.0,0.0,0.0,0.0,0.0,0.0,0.0,0.0,0.0,0.0,0.0,0.0,0.0,0.0,0.0,0.0,0.0,0.0,0.0,0.0,0.0,0.0,0.0,0.0,0.0,0.0,0.0,0.0,0.0,0.0,0.0,0.0,0.0,0.0,0.0,0.0,0.0,0.0,0.0,0.0,0.0,0.0,0.0,0.0,0.0,0.0,0.0,0.0,0.0,0.0,0.0,0.0,0.0,0.0,-0.0947,-0.1529,-0.1529,-0.4358,-0.6383,-0.7255,-0.9213,-1.0665,-1.1619,-1.1619,-1.1619,-1.1619,-1.1619,-1.1619,-1.1619,-1.1619,-1.1538,-1.1389,-1.1314,-1.124,-1.122,-1.1009,-1.1043,-1.1185,-1.1253,-1.1335,-1.1409,-1.1484,-1.1511,-1.1518,-1.3403,-1.3403,-1.3403,-1.3403,-1.3403,-1.3403,-1.3403,-1.3065,-1.281,-1.281,-1.0882,-0.9535,-0.9521,-0.7504,-0.5396,-0.354,-0.3018,-0.2019,-0.016,0.0,0.0,0.0,0.0,0.0,0.0,0.0,0.0,0.0,0.0,0.0,0.0,0.0,0.0,0.0,0.0,0.0,0.0,0.0,0.0,0.0,0.0,0.0,0.0,0.0,0.0,0.0,0.0,0.0,0.0,0.0,0.0,0.0,0.0,0.0,0.0,0.0,0.0,0.0,0.0,0.0,0.0,0.0,0.0,0.0,0.0,0.0,0.0,0.0,0.0,0.0,0.0,0.0,0.0,0.0,0.0,0.0,0.0,0.0,0.0,0.0,0.0,0.0,0.0,0.0,0.0,0.0,0.0,0.0,0.0,-0.2183,-0.4141,-0.5736,-0.7982,-0.9939,-1.1548,-1.1619,-1.1619,-1.1619,-1.1619,-1.1619,-1.1619,-1.1619,-1.1518,-1.1348,-1.1219,-1.1151,-1.1111,-1.086,-1.0799,-1.0968,-1.1158,-1.1219,-1.1253,-1.1355,-1.1409,-1.1443,-1.3403,-1.3403,-1.3403,-1.3403,-1.3403,-1.3403,-1.3403,-1.1718,-1.0466,-1.0466,-0.854,-0.7176,-0.7188,-0.5158,-0.3663,-0.3334,-0.1545,-0.0324,0.0,0.0,0.0,0.0,0.0,0.0,0.0,0.0,0.0,0.0,0.0,0.0,0.0,0.0,0.0,0.0,0.0,0.0,0.0,0.0,0.0,0.0,0.0,0.0,0.0,0.0,0.0,0.0,0.0,0.0,0.0,0.0,0.0,0.0,0.0,0.0,0.0,0.0,0.0,0.0,0.0,0.0,0.0,0.0,0.0,0.0,0.0,0.0,0.0,0.0,0.0,0.0,0.0,0.0,0.0,0.0,0.0,0.0,0.0,0.0,0.0,0.0,0.0,0.0,0.0,0.0,0.0,0.0,0.0,0.0,0.0,-0.3417,-0.5518,-0.5808,-0.9291,-1.1325,-1.1619,-1.1619,-1.1619,-1.1619,-1.1619,-1.1619,-1.1619,-1.1619,-1.1463,-1.1261,-1.1241,-1.109,-1.0975,-1.0867,-1.1084,-1.1335,-1.1355,-1.1443,-1.1545,-1.143,-1.1477,-1.1552,-1.3403,-1.3403,-1.3376,-1.3288,-1.3275,-1.2831,-1.1592,-1.0514,-0.9467,-0.8288,-0.619,-0.4856,-0.4781,-0.2778,-0.1459,-0.1449,-0.0564,0.0,0.0,0.0,0.0,0.0,0.0,0.0,0.0,0.0,0.0,0.0,0.0,0.0,0.0,0.0,0.0,0.0,0.0,0.0,0.0,0.0,0.0,0.0,0.0,0.0,0.0,0.0,0.0,0.0,0.0,0.0,0.0,0.0,0.0,0.0,0.0,0.0,0.0,0.0,0.0,0.0,0.0,0.0,0.0,0.0,0.0,0.0,0.0,0.0,0.0,0.0,0.0,0.0,0.0,0.0,0.0,0.0,0.0,0.0,0.0,0.0,0.0,0.0,0.0,0.0,0.0,0.0,0.0,0.0,0.0,0.0,0.0,-0.1603,-0.3562,-0.5736,-0.7476,-0.9435,-1.1548,-1.1619,-1.1619,-1.1619,-1.1619,-1.1619,-1.1619,-1.1619,-1.1497,-1.1294,-1.1294,-1.1206,-1.107,-1.107,-1.1145,-1.126,-1.126,-1.1253,-1.1184,-1.1355,-1.1328,-1.124]}]]